     2              OBSERVATION DATA    GPS                 RINEX VERSION / TYPE
teqc 2002Apr29 battag 20030505 23:32:10UTC                  PGM / RUN BY / DATE
                                                            COMMENT
L2: 1 -> 1; 5 -> 5; 60 -> 9                                 COMMENT
L2: 1 -> 1; 5 -> 5; 60 -> 9                                 COMMENT
L2: 1 -> 1; 5 -> 5; 60 -> 9                                 COMMENT
L2: 1 -> 1; 5 -> 5; 60 -> 9                                 COMMENT
L2: 1 -> 1; 5 -> 5; 60 -> 9                                 COMMENT
L2: 1 -> 1; 5 -> 5; 60 -> 9                                 COMMENT
Original Marker Name: 05SH                                  COMMENT
Campaign Name: UC Berkeley Central Calif 2003-2004          COMMENT
4-Character Station Name: 05SH                              COMMENT
6-Character Antenna Code: TRZEPH                            COMMENT
Vertical Measurement Point: MGP                             COMMENT
Vertical Offset to Rinex Ref. Point: 0.0443                 COMMENT
Radial Measurement Point: OGP                               COMMENT
Radial Offset to Rinex Ref. Point: 0.1698                   COMMENT
Antenna Height from Field Measurement: 1.3875 m             COMMENT
Original XYZ: -2653511.3427 -4420928.9978 3742004.3396      COMMENT
New XYZ position is based on association with SCEC monument COMMENT
E1F0Y5I2+0011. Position of that monument is believed to be  COMMENT
valid to within 1 m horizontally; vertical accuracy         COMMENT
should be no worse than 3-times this value.                 COMMENT
                                                            COMMENT
Revised Rinex header created by UCSD GPS archive for        COMMENT
GSAC on 04-Feb-2005 (2005:035) 16:33:25 GMT                 COMMENT
For assistance contact dagnew@ucsd.edu                      COMMENT
or anderson@python.ucsd.edu                                 COMMENT
                                                            COMMENT
F155 1933                                                   MARKER NAME
05sh                                                        MARKER NUMBER
-Unknown- UNIV CALIF BERKELEY                               OBSERVER / AGENCY
220281511 TRIMBLE 5700 NP 1.20 / SP 0.00                    REC # / TYPE / VERS
S/N UNKNOWN TRM41249.00                                     ANT # / TYPE
 -2653510.0000 -4420930.0000  3742002.0000                  APPROX POSITION XYZ
        1.3328        0.0000        0.0000                  ANTENNA: DELTA H/E/N
     1     1     0                                          WAVELENGTH FACT L1/2
     7    L1    L2    C1    P1    P2    S1    S2            # / TYPES OF OBSERV
    30                                                      INTERVAL
  2003     1    17     1    43   30.000000                  TIME OF FIRST OBS
  2003     1    17    23    52   60.000000                  TIME OF LAST OBS
                                                            END OF HEADER
 03  1 17  1 43 30.0000000  0 10G 5G 6G10G15G17G18G23G26G29G30
    668098.18459    501045.78156  24376165.7974                   24376165.3594
        41.2504         22.0004
   -498793.94559   -378945.38558  20549836.7504                   20549833.4964
        49.5004         41.5004
    387937.77759    287679.75757  22279902.9924                   22279900.9454
        46.5004         33.0004
   -944872.24659   -733524.80557  23757015.0634                   23757013.0084
        43.5004         28.2504
   -699141.55159   -529714.20157  21868817.8054                   21868815.0004
        50.0004         37.5004
  -1248425.83659   -948524.95156  24376138.5864                   24376136.7424
        36.5004         20.5004
   -751227.62159   -568635.30758  21164719.0004                   21164716.0084
        49.2504         40.5004
  -1033975.36359   -786823.72256  23873695.6334                   23873693.5124
        42.0004         24.7504
   -811511.32059   -615129.26756  23931598.7734                   23931596.4614
        43.2504         24.5004
    427638.11759    318240.67857  21707785.2424                   21707782.1334
        50.2504         37.0004
 03  1 17  1 44  0.0000000  0 10G 5G 6G10G15G17G18G23G26G29G30
    744463.78549    560551.36746  24390696.3984                   24390697.2854
        39.5004         21.5004
   -554022.02749   -421980.23448  20539327.2584                   20539323.9804
        49.5004         41.5004
    433901.72749    323495.79547  22288651.3754                   22288647.9264
        48.5004         33.5004
  -1056498.26649   -820506.03647  23735773.4534                   23735772.3404
        41.7504         27.7504
   -777682.36749   -590914.80447  21853871.8754                   21853869.3054
        49.5004         37.7504
  -1390934.03149  -1059570.04846  24349020.0944                   24349018.6334
        37.5004         21.0004
   -834408.37949   -633451.44448  21148890.2734                   21148887.1214
        48.5004         40.7504
  -1151755.20349   -878600.09846  23851281.8754                   23851280.6994
        42.2504         23.0004
   -902706.15249   -686190.08646  23914244.8984                   23914242.1764
        44.2504         24.7504
    477892.62549    357400.01847  21717348.6174                   21717345.1764
        50.2504         37.0004
 03  1 17  1 44 30.0000000  0 10G 5G 6G10G15G17G18G23G26G29G30
    820815.71549    620046.40046  24405225.8754                   24405226.9414
        39.5004         21.0004
   -608938.14549   -464772.00248  20528877.1254                   20528873.9494
        50.7504         41.5004
    480241.34449    359604.62747  22297468.8834                   22297464.7384
        50.0004         33.7504
  -1167992.84849   -907384.81547  23714556.4304                   23714553.9454
        40.0004         26.7504
   -856026.86349   -651962.44447  21838964.1484                   21838960.6454
        50.2504         38.0004
  -1533371.39549  -1170560.01846  24321914.7114                   24321912.0004
        36.0004         20.2504
   -917126.14849   -697906.80848  21133149.4384                   21133146.1684
        50.7504         39.7504
  -1269399.52349   -970270.99046  23828895.7274                   23828892.7074
        43.5004         24.5004
   -993640.38349   -757047.86046  23896940.5784                   23896938.3324
        44.0004         24.0004
    528484.82849    396822.50047  21726975.8444                   21726972.5864
        50.2504         36.2504
 03  1 17  1 45  0.0000000  0 10G 5G 6G10G15G17G18G23G26G29G30
    897157.46949    679533.37046  24419753.7974                   24419753.9924
        40.2504         22.0004
   -663534.88349   -507314.88948  20518487.6484                   20518484.1054
        51.2504         41.2504
    526959.92649    396008.75547  22306358.2034                   22306354.4694
        48.0004         33.5004
  -1279349.82449   -994156.37747  23693365.4844                   23693363.9694
        41.0004         26.2504
   -934170.13749   -712853.26547  21824093.3204                   21824090.6254
        50.2504         38.0004
  -1675729.78549  -1281488.53446  24294823.8364                   24294822.4964
        36.2504         21.0004
   -999373.78149   -761995.82948  21117498.3054                   21117495.0004
        51.0004         40.0004
  -1386898.98449  -1061828.89046  23806535.4224                   23806533.1094
        42.5004         21.7504
  -1084305.31249   -827695.77246  23879687.6484                   23879685.5704
        43.0004         25.0004
    579417.75449    436510.49947  21736667.2344                   21736664.7664
        49.7504         37.0004
 03  1 17  1 45 30.0000000  0 10G 5G 6G10G15G17G18G23G26G29G30
    973487.56649    739011.32846  24434279.2974                   24434279.6604
        42.2504         22.5004
   -717809.79749   -549607.00448  20508159.5864                   20508156.2114
        51.2504         41.2504
    574055.85249    432706.86947  22315320.3594                   22315316.2624
        47.2504         32.7504
  -1390568.03949  -1080819.84047  23672201.7274                   23672200.1564
        41.0004         27.2504
  -1012111.14549   -773586.49747  21809261.5554                   21809259.0664
        50.5004         38.5004
  -1818005.57049  -1392352.51746  24267750.0234                   24267749.2894
        38.0004         22.7504
  -1081149.18049   -825716.88048  21101936.7344                   21101933.5864
        51.2504         40.2504
  -1504249.07049  -1153270.38546  23784205.2424                   23784202.6294
        44.2504         23.7504
  -1174697.19149   -898130.90446  23862486.1174                   23862483.8834
        43.2504         22.5004
    630689.63349    476462.60347  21746424.3834                   21746421.7934
        50.5004         35.7504
 03  1 17  1 46  0.0000000  0 10G 5G 6G10G15G17G18G23G26G29G30
   1049798.94149    798474.72146  24448801.4454                   24448801.3444
        43.5004         24.0004
   -771765.77749   -591650.59648  20497891.6804                   20497888.6684
        51.0004         41.5004
    621521.85249    469693.36647  22324353.3834                   22324349.1954
        48.2504         33.5004
  -1501651.85549  -1167378.54647  23651062.8284                   23651061.6684
        40.0004         27.0004
  -1089854.61749   -834165.78947  21794467.8594                   21794465.0274
        50.5004         38.5004
  -1960201.13749  -1503154.11546  24240690.7504                   24240690.5044
        38.7504         23.7504
  -1162455.59449   -889072.49248  21086464.6564                   21086461.7464
        49.7504         40.7504
  -1621450.78549  -1244596.28846  23761901.1884                   23761899.7544
        42.5004         22.5004
  -1264817.68749   -968354.63446  23845337.1884                   23845334.9574
        43.5004         24.0004
    682293.33649    516673.26447  21756243.9304                   21756241.4304
        49.7504         36.2504
 03  1 17  1 46 30.0000000  0 10G 5G 6G10G15G17G18G23G26G29G30
   1126099.88349    857929.96047  24463321.1564                   24463320.6174
        43.0004         26.5004
   -825390.60249   -633436.15748  20487687.4924                   20487683.9804
        51.2504         41.2504
    669365.55149    506974.19547  22333457.1254                   22333453.4184
        48.7504         33.2504
  -1612589.96149  -1253823.76347  23629952.4454                   23629950.0044
        40.2504         27.7504
  -1167390.13349   -894583.02747  21779713.0084                   21779710.1644
        50.2504         38.7504
  -2102303.38349  -1613883.05846  24213649.6884                   24213648.3244
        37.5004         25.0004
  -1243281.07049   -952053.33948  21071084.1254                   21071081.1524
        50.2504         40.5004
  -1738489.90649  -1335795.45446  23739629.9454                   23739628.2734
        43.0004         22.7504
  -1354653.31249  -1038356.40747  23828242.1644                   23828239.7664
        44.0004         26.5004
    734236.77349    557148.66347  21766128.7664                   21766126.4144
        50.0004         35.5004
 03  1 17  1 47  0.0000000  0 10G 5G 6G10G15G17G18G23G26G29G30
   1202382.46149    917370.92947  24477836.8364                   24477836.8594
        43.5004         26.5004
   -878688.37149   -674966.86348  20477545.2194                   20477541.8554
        51.5004         41.7504
    717578.71549    544542.91647  22342631.8444                   22342627.8754
        48.2504         33.0004
  -1723387.90249  -1340159.70147  23608868.0864                   23608866.1724
        40.2504         28.0004
  -1244723.63349   -954842.86747  21764997.4694                   21764994.0634
        50.0004         38.5004
  -2244315.90249  -1724542.04546  24186625.8914                   24186623.3914
        39.7504         24.0004
  -1323630.07049  -1014662.91248  21055794.1724                   21055791.5234
        51.0004         41.0004
  -1855368.52749  -1426869.60446  23717388.1954                   23717386.2774
        41.2504         21.2504
  -1444206.85949  -1108138.26447  23811200.0634                   23811198.1684
        43.5004         26.5004
    786511.62949    597882.31447  21776075.8284                   21776073.9064
        49.2504         37.0004
 03  1 17  1 47 30.0000000  0 10G 5G 6G10G15G17G18G23G26G29G30
   1278646.28949    976797.23347  24492349.7424                   24492348.8484
        43.0004         26.7504
   -931655.50449   -716239.93448  20467465.9774                   20467462.6764
        50.5004         41.7504
    766160.73049    582399.07147  22351876.1414                   22351872.2074
        47.5004         33.2504
  -1834043.44549  -1426384.70947  23587811.3134                   23587809.3954
        40.5004         29.2504
  -1321852.77349  -1014943.46647  21750319.5084                   21750316.5164
        50.0004         38.0004
  -2386234.15649  -1835127.61546  24159619.8524                   24159617.9304
        40.5004         25.2504
  -1403499.36749  -1076898.69848  21040595.7194                   21040592.6954
        51.0004         40.7504
  -1972081.01649  -1517814.29246  23695178.0554                   23695176.3554
        41.0004         21.7504
  -1533473.61749  -1177696.70246  23794213.4384                   23794210.8364
        43.5004         25.5004
    839117.18849    638873.65547  21786087.3134                   21786084.1764
        50.0004         36.0004
 03  1 17  1 48  0.0000000  0 10G 5G 6G10G15G17G18G23G26G29G30
   1354897.96149   1036214.08046  24506859.6334                   24506858.7504
        43.0004         24.5004
   -984281.51649   -757247.19448  20457451.6884                   20457448.3554
        51.0004         41.5004
    815117.99649    620547.57847  22361192.8914                   22361189.2584
        48.2504         33.7504
  -1944547.23849  -1512491.48447  23566782.8204                   23566781.1684
        42.5004         28.5004
  -1398769.03549  -1074878.18247  21735682.9384                   21735680.2344
        50.0004         37.2504
  -2528046.81649  -1945630.91646  24132633.5314                   24132632.0164
        41.7504         25.2504
  -1482878.87549  -1138752.83148  21025490.4384                   21025487.4144
        51.5004         41.5004
  -2088614.66449  -1608619.56046  23673002.8594                   23673001.0274
        43.2504         21.2504
  -1622441.58649  -1247022.29147  23777283.9534                   23777280.8634
        44.0004         26.2504
    892059.79349    680127.62047  21796162.0004                   21796158.9184
        49.7504         35.5004
 03  1 17  1 48 30.0000000  0 10G 5G 6G10G15G17G18G23G26G29G30
   1431191.83249   1095663.79146  24521378.2194                   24521377.3244
        42.5004         24.5004
  -1036508.13749   -797943.23648  20447513.0394                   20447509.7624
        51.2504         41.5004
    864504.60249    659030.69447  22370590.2734                   22370587.5904
        46.7504         33.0004
  -2054842.17649  -1598435.51847  23545794.0784                   23545791.9654
        42.2504         29.0004
  -1475415.88749  -1134602.96247  21721097.0474                   21721094.7774
        50.0004         38.2504
  -2669694.72749  -2056005.80347  24105678.4844                   24105678.2304
        41.0004         26.0004
  -1561710.74249  -1200180.21348  21010488.8364                   21010485.9654
        52.0004         41.2504
  -2204909.44549  -1699238.70946  23650872.2504                   23650869.5594
        42.2504         20.7504
  -1711051.44549  -1316068.91546  23760420.8524                   23760418.3524
        43.5004         24.5004
    945393.41049    721686.28247  21806310.8054                   21806307.7774
        50.0004         36.7504
 03  1 17  1 49  0.0000000  0 10G 5G 6G10G15G17G18G23G26G29G30
   1507308.64849   1154975.53946  24535862.2814                   24535862.0514
        41.5004         24.5004
  -1088550.52749   -838495.72148  20437609.6094                   20437606.0594
        51.0004         41.2504
    914101.14849    697677.34947  22380029.1024                   22380025.6294
        47.5004         33.0004
  -2165144.75449  -1684385.51247  23524804.6804                   23524802.4454
        41.5004         29.0004
  -1552010.21149  -1194286.82247  21706522.5554                   21706519.5084
        50.0004         38.5004
  -2811392.16849  -2166419.33346  24078714.6334                   24078713.3634
        40.5004         25.2504
  -1640210.69949  -1261348.98248  20995551.0474                   20995548.2464
        52.2504         41.5004
  -2321178.43449  -1789837.74246  23628746.9064                   23628745.1724
        41.5004         22.5004
  -1799517.03149  -1385003.02546  23743585.6334                   23743583.6374
        42.5004         22.5004
    998898.41449    763378.47147  21816492.7664                   21816489.7034
        50.0004         35.5004
 03  1 17  1 49 30.0000000  0 10G 5G 6G10G15G17G18G23G26G29G30
   1583326.14549   1214209.89446  24550328.0634                   24550327.7304
        40.2504         23.0004
  -1140326.88349   -878840.91248  20427757.0864                   20427753.6294
        51.0004         41.5004
    963984.73849    736547.70647  22389520.8524                   22389518.2624
        46.0004         34.0004
  -2275374.45749  -1770278.70147  23503828.4694                   23503826.3914
        42.2504         28.5004
  -1628472.54349  -1253867.82447  21691970.9454                   21691969.1294
        49.5004         38.5004
  -2953056.64549  -2276807.20446  24051757.2734                   24051754.8134
        41.2504         25.5004
  -1718297.21149  -1322195.58548  20980691.7114                   20980688.3204
        51.7504         41.0004
  -2437337.90249  -1880351.51746  23606642.8594                   23606640.7774
        41.2504         21.5004
  -1887755.16849  -1453759.90147  23726795.2504                   23726793.4384
        43.5004         26.0004
   1052652.44149    805264.71647  21826721.7194                   21826718.7274
        50.0004         36.0004
 03  1 17  1 50  0.0000000  0 10G 5G 6G10G15G17G18G23G26G29G30
   1659264.13349   1273382.32046  24564778.3594                   24564778.0514
        39.2504         22.0004
  -1191813.77049   -918960.55448  20417959.2734                   20417955.5944
        51.2504         42.0004
   1014175.00449    775657.00747  22399073.4224                   22399068.9384
        47.2504         33.5004
  -2385509.06249  -1856097.81547  23482869.9844                   23482869.1334
        41.2504         28.7504
  -1704780.14149  -1313328.25747  21677450.3364                   21677447.6174
        49.7504         38.7504
  -3094663.88749  -2387150.40947  24024810.2034                   24024807.4104
        41.2504         25.7504
  -1795947.28149  -1382702.09148  20965915.1024                   20965911.6994
        51.2504         40.5004
  -2553362.14149  -1970759.87946  23584564.0704                   23584562.0784
        41.7504         22.5004
  -1975741.08249  -1522320.26347  23710051.9064                   23710050.2074
        43.5004         26.7504
   1106674.82849    847360.07247  21837001.1484                   21836998.8014
        49.2504         36.0004
 03  1 17  1 50 30.0000000  0 10G 5G 6G10G15G17G18G23G26G29G30
   1735139.40649   1332505.84646  24579217.1024                   24579216.0434
        38.2504         22.0004
  -1242990.48849   -958838.48548  20408220.5234                   20408216.7194
        50.2504         41.0004
   1064688.02749    815017.86647  22408684.2424                   22408680.5824
        48.2504         33.5004
  -2495529.19149  -1941827.71947  23461933.9144                   23461932.7774
        41.2504         29.2504
  -1780914.48849  -1372653.68647  21662962.3524                   21662960.2384
        50.2504         38.0004
  -3236192.35949  -2497432.28346  23997878.7274                   23997875.7384
        41.5004         22.5004
  -1873140.86349  -1442852.89348  20951225.6884                   20951222.2934
        51.5004         40.5004
  -2669228.57449  -2061045.23246  23562514.7974                   23562512.9184
        42.0004         22.5004
  -2063453.16449  -1590667.23146  23693360.7344                   23693358.7584
        42.5004         25.5004
   1160981.76249    889677.15847  21847335.9774                   21847332.7584
        50.0004         35.0004
 03  1 17  1 51  0.0000000  0 10G 5G 6G10G15G17G18G23G26G29G30
   1810960.88349   1391587.44946  24593645.2194                   24593644.6374
        36.7504         22.5004
  -1293844.01649   -998464.59248  20398543.7344                   20398540.0164
        51.0004         41.7504
   1115532.93849    854637.28147  22418360.5864                   22418356.1524
        48.2504         33.7504
  -2605422.96149  -2027459.16847  23441021.8984                   23441019.7664
        41.5004         28.5004
  -1856864.58249  -1431835.54747  21648509.9534                   21648507.3364
        50.0004         38.0004
  -3377628.19949  -2607641.95346  23970964.2894                   23970961.3914
        41.0004         22.7504
  -1949865.28149  -1502638.11348  20936625.3204                   20936622.1684
        51.7504         39.7504
  -2784922.07449  -2151195.94246  23540499.7664                   23540497.7114
        43.5004         25.0004
  -2150876.95749  -1658789.57846  23676725.4534                   23676722.1994
        43.0004         25.5004
   1215582.06649    932222.83947  21857725.8444                   21857723.0314
        50.0004         35.5004
 03  1 17  1 51 30.0000000  0 10G 5G 6G10G15G17G18G23G26G29G30
   1886741.16849   1450636.94146  24608066.0554                   24608065.3984
        36.0004         22.0004
  -1344358.02749  -1037826.14048  20388930.9694                   20388927.4414
        50.0004         41.2504
   1166721.71949    894524.67247  22428101.1884                   22428097.4774
        49.5004         34.0004
  -2715175.26249  -2112980.33847  23420136.7344                   23420133.6884
        42.0004         28.5004
  -1932615.51649  -1490862.22147  21634095.4454                   21634092.5664
        49.7504         38.5004
  -3518954.21949  -2717766.00546  23944070.0084                   23944068.0514
        38.5004         22.2504
  -2026104.66449  -1562045.38548  20922117.3204                   20922113.7624
        50.7504         39.5004
  -2900424.22349  -2241197.45346  23518519.9534                   23518517.3404
        43.2504         22.2504
  -2237994.80149  -1726673.54347  23660147.0234                   23660144.4024
        43.5004         26.5004
   1270487.90249    975006.58947  21868173.6954                   21868171.2774
        48.7504         34.5004
 03  1 17  1 52  0.0000000  0 10G 5G 6G10G15G17G18G23G26G29G30
   1962462.13349   1509640.32146  24622476.3204                   24622474.4654
        37.0004         22.0004
  -1394546.63349  -1076934.12648  20379380.7114                   20379377.1254
        50.5004         41.5004
   1218236.01649    934665.69647  22437904.1024                   22437900.8324
        48.0004         33.5004
  -2824801.50449  -2198403.29547  23399275.6094                   23399273.7704
        41.7504         29.7504
  -2008183.03949  -1549745.96747  21619714.9774                   21619712.2814
        49.7504         38.7504
  -3660183.89549  -2827815.04446  23917195.1334                   23917193.0394
        38.5004         22.2504
  -2101873.56649  -1621086.05048  20907698.7974                   20907695.5784
        51.5004         40.5004
  -3015747.03949  -2331059.33546  23496573.9844                   23496571.0044
        41.5004         22.5004
  -2324819.60249  -1794329.11847  23643625.1564                   23643622.7544
        44.0004         28.0004
   1325680.84449   1018014.08147  21878677.3054                   21878674.2194
        49.7504         35.0004
 03  1 17  1 52 30.0000000  0 10G 5G 6G10G15G17G18G23G26G29G30
   2038108.30148   1568585.27446  24636870.8444                   24636869.2114
        35.2504         21.5004
  -1444421.45749  -1115797.61048  20369889.5944                   20369885.9384
        50.5004         41.5004
   1270059.94949    975048.03447  22447766.1884                   22447762.1804
        50.0004         34.0004
  -2934314.54349  -2283738.06547  23378435.7974                   23378434.5394
        42.0004         29.5004
  -2083580.32049  -1608497.06647  21605367.5314                   21605364.5234
        49.7504         39.0004
  -3801327.93049  -2937797.28546  23890335.2814                   23890333.6254
        38.2504         21.5004
  -2177184.30949  -1679769.71148  20893367.8054                   20893364.7464
        50.7504         39.7504
  -3130900.12949  -2420788.89847  23474661.9384                   23474659.8324
        43.0004         26.0004
  -2411361.84849  -1861764.52047  23627156.8524                   23627153.9454
        43.5004         27.7504
   1381144.77349   1061232.70347  21889231.7274                   21889228.5204
        49.5004         35.0004
 03  1 17  1 53  0.0000000  0 10G 5G 6G10G15G17G18G23G26G29G30
   2113699.94149   1627487.73846  24651256.0704                   24651253.9884
        38.0004         22.2504
  -1493958.24249  -1154397.68948  20360462.9534                   20360459.3594
        50.2504         41.2504
   1322213.48449   1015687.18647  22457689.3524                   22457685.7464
        47.0004         32.7504
  -3043691.59049  -2368966.86447  23357621.5554                   23357620.4774
        41.2504         28.7504
  -2158785.16049  -1667098.20847  21591056.4774                   21591053.6484
        49.7504         38.2504
  -3942360.85949  -3047693.01146  23863498.3204                   23863495.9384
        41.2504         22.5004
  -2252013.17649  -1738077.88348  20879128.1484                   20879124.8674
        51.0004         40.0004
  -3245857.33649  -2510365.86846  23452786.5704                   23452784.3674
        43.7504         25.5004
  -2497596.22349  -1928960.04746  23610746.2664                   23610743.2074
        42.5004         23.7504
   1436899.84449   1104678.19747  21899841.6024                   21899838.6914
        49.5004         34.5004
 03  1 17  1 53 30.0000000  0 10G 5G 6G10G15G17G18G23G26G29G30
   2189237.55149   1686348.19146  24665630.4064                   24665628.5474
        38.5004         22.7504
  -1543152.91849  -1192731.17748  20351101.4924                   20351098.1644
        51.2504         41.2504
   1374696.44949   1056582.99847  22467676.3914                   22467672.9694
        47.0004         31.7504
  -3152929.64549  -2454087.34147  23336834.3914                   23336831.6374
        40.7504         27.5004
  -2233795.56249  -1725547.83547  21576782.0474                   21576779.5634
        50.0004         38.2504
  -4083278.23049  -3157498.61146  23836681.6804                   23836679.6764
        40.7504         22.2504
  -2326356.57049  -1796007.76048  20864981.0944                   20864977.7854
        51.0004         40.5004
  -3360612.23849  -2599785.17147  23430949.1564                   23430947.5124
        44.0004         25.7504
  -2583517.10249  -1995911.30847  23594396.0944                   23594392.8914
        43.7504         26.0004
   1492945.66049   1148350.25347  21910506.6564                   21910504.3134
        49.0004         34.7504
 03  1 17  1 54  0.0000000  0 10G 5G 6G10G15G17G18G23G26G29G30
   2264710.80649   1745158.40546  24679992.2504                   24679991.1564
        39.5004         21.0004
  -1592012.16049  -1230803.30048  20341804.0704                   20341800.9104
        50.5004         41.5004
   1427498.14549   1097727.16947  22477724.5554                   22477722.6334
        47.5004         32.5004
  -3262036.52749  -2539105.61847  23316071.7814                   23316068.7774
        41.0004         27.2504
  -2308619.11749  -1783851.87047  21562544.2344                   21562540.7544
        50.5004         38.5004
  -4224085.46549  -3267218.49646  23809888.1804                   23809884.8834
        43.0004         22.5004
  -2400221.54749  -1853564.85048  20850925.2114                   20850922.0824
        51.5004         40.7504
  -3475169.35549  -2689050.37446  23409149.7344                   23409146.8524
        42.7504         23.0004
  -2669130.00849  -2062622.61747  23578104.3524                   23578101.6174
        44.0004         27.0004
   1549271.66049   1192240.62047  21921224.7974                   21921222.3524
        49.0004         35.2504
 03  1 17  1 54 30.0000000  0 10G 5G 6G10G15G17G18G23G26G29G30
   2340131.59849   1803927.78946  24694344.4454                   24694343.2704
        38.2504         21.7504
  -1640519.82449  -1268601.46148  20332573.4534                   20332570.1174
        50.5004         41.5004
   1480630.00849   1139128.63747  22487834.1954                   22487834.6954
        46.5004         31.7504
  -3370997.47749  -2624010.15747  23295337.2504                   23295334.9264
        42.0004         28.7504
  -2383241.86749  -1841999.43347  21548343.3674                   21548340.6764
        49.7504         38.5004
  -4364765.84049  -3376839.38246  23783117.1564                   23783114.6294
        43.2504         22.7504
  -2473592.78949  -1910737.21748  20836963.2034                   20836960.0944
        52.0004         40.5004
  -3589510.81649  -2778147.54946  23387390.5474                   23387387.9224
        43.0004         22.5004
  -2754417.77349  -2129080.50447  23561874.0554                   23561872.3284
        42.5004         26.0004
   1605889.34049   1236358.28047  21931998.9924                   21931996.5124
        49.0004         35.5004
 03  1 17  1 55  0.0000000  0 10G 5G 6G10G15G17G18G23G26G29G30
   2415505.44549   1862660.71346  24708686.6954                   24708686.0664
        37.7504         20.2504
  -1688666.80949  -1306118.57348  20323411.3284                   20323408.0204
        50.2504         42.0004
   1534097.23849   1180791.41547  22498009.6414                   22498008.8134
        45.7504         32.2504
  -3479804.38749  -2708794.70247  23274632.2894                   23274630.7194
        41.5004         29.5004
  -2457656.35949  -1899984.72147  21534183.7194                   21534180.4064
        50.5004         38.7504
  -4505309.40249  -3486353.76146  23756371.7894                   23756369.9734
        43.2504         24.0004
  -2546461.67649  -1967518.13648  20823096.6644                   20823093.4384
        51.7504         40.7504
  -3703625.05549  -2867067.67046  23365674.7034                   23365672.9224
        43.0004         22.7504
  -2839369.97349  -2195276.94146  23545708.3444                   23545705.8484
        42.5004         24.5004
   1662803.71949   1280707.12747  21942829.8524                   21942827.0004
        49.5004         35.5004
 03  1 17  1 55 30.0000000  0 10G 5G 6G10G15G17G18G23G26G29G30
   2490822.82049   1921349.45246  24723019.4304                   24723018.2584
        39.5004         18.5004
  -1736458.77049  -1343359.04348  20314316.6564                   20314313.2154
        51.0004         41.5004
   1587890.13349   1222707.99747  22508246.4224                   22508243.8914
        46.5004         31.2504
  -3588464.41449  -2793464.78447  23253955.3754                   23253954.0164
        44.0004         29.5004
  -2531869.27349  -1957812.93447  21520060.3134                   21520057.7734
        50.0004         38.5004
  -4645721.14849  -3595765.40247  23729653.0394                   23729650.2154
        43.0004         25.7504
  -2618834.48049  -2023912.50548  20809324.1484                   20809321.4024
        51.5004         40.5004
  -3817515.65649  -2955813.52546  23344002.9534                   23344000.3094
        44.5004         25.5004
  -2923990.93049  -2261215.28447  23529605.6564                   23529602.0634
        43.7504         26.0004
   1720004.71149   1325279.32147  21953714.4384                   21953711.7664
        49.0004         35.0004
 03  1 17  1 56  0.0000000  0 10G 5G 6G10G15G17G18G23G26G29G30
   2566075.59449   1979987.95446  24737340.0004                   24737339.0514
        40.7504         20.5004
  -1783900.23849  -1380326.40448  20305288.9454                   20305285.7194
        50.5004         41.0004
   1642000.01249   1264871.54447  22518543.5314                   22518538.7624
        47.0004         31.2504
  -3696983.13749  -2878024.76547  23233304.4844                   23233302.7774
        43.7504         29.7504
  -2605887.75849  -2015489.65347  21505975.3364                   21505972.6844
        50.0004         38.5004
  -4786004.43749  -3705076.89147  23702958.4144                   23702954.3444
        44.2504         26.0004
  -2690716.37149  -2079924.33848  20795645.8754                   20795642.5044
        51.2504         40.7504
  -3931184.93749  -3044386.90947  23322372.0704                   23322370.5044
        43.5004         26.0004
  -3008284.00849  -2326898.15347  23513565.5864                   23513562.3554
        43.7504         28.7504
   1777483.74649   1370068.17547  21964652.4924                   21964649.8324
        49.2504         35.5004
 03  1 17  1 56 30.0000000  0 10G 5G 6G10G15G17G18G23G26G29G30
   2641263.61349   2038576.08946  24751647.5004                   24751646.3554
        40.0004         19.2504
  -1830987.27049  -1417017.57848  20296328.6954                   20296325.2234
        51.0004         41.7504
   1696426.39149   1307281.78247  22528900.5004                   22528894.7274
        47.7504         32.2504
  -3805358.00849  -2962472.66347  23212681.5004                   23212678.1454
        44.5004         28.7504
  -2679709.35949  -2073012.94947  21491928.1724                   21491924.8204
        49.5004         38.5004
  -4926154.83249  -3814284.86146  23676288.6484                   23676284.8014
        44.5004         25.5004
  -2762104.12949  -2135551.12748  20782061.0084                   20782058.0044
        52.0004         40.5004
  -4044627.17249  -3132783.36346  23300783.9384                   23300782.7504
        42.7504         24.5004
  -3092244.28949  -2392321.66747  23497588.2814                   23497585.8794
        43.5004         28.2504
   1835240.29349   1415073.25747  21975643.1254                   21975640.1844
        49.0004         35.5004
 03  1 17  1 57  0.0000000  0  9G 6G10G15G17G18G23G26G29G30
  -1877718.13749  -1453431.22848  20287435.8984                   20287432.1054
        50.5004         41.5004
   1751166.85249   1349936.68547  22539316.4924                   22539311.9804
        45.7504         29.5004
  -3913588.35949  -3046807.91347  23192085.4384                   23192081.7774
        42.2504         29.2504
  -2753333.58649  -2130382.44847  21477916.9774                   21477914.5704
        49.5004         38.0004
  -5066169.16449  -3923386.79447  23649643.9384                   23649640.9614
        43.5004         26.5004
  -2832996.54749  -2190791.93748  20768570.7664                   20768567.6804
        51.0004         41.0004
  -4157838.31249  -3220999.70446  23279241.5164                   23279238.5124
        43.5004         24.2504
  -3175868.52749  -2457483.30947  23481675.0234                   23481672.6334
        44.2504         27.5004
   1893271.92249   1460292.69347  21986686.2974                   21986683.6884
        49.0004         34.5004
 03  1 17  1 57 30.0000000  0  9G 6G10G15G17G18G23G26G29G30
  -1924087.13349  -1489562.90348  20278612.0234                   20278608.3364
        50.7504         41.7504
   1806222.81349   1392837.43547  22549794.0394                   22549790.4694
        47.2504         32.0004
  -4021669.82449  -3131027.15347  23171518.0474                   23171514.9614
        43.0004         28.5004
  -2826756.88749  -2187595.38147  21463945.7274                   21463942.3054
        49.5004         38.5004
  -5206041.13349  -4032377.79246  23623026.7814                   23623024.2974
        44.2504         24.7504
  -2903388.62149  -2245642.87748  20755175.5784                   20755172.6414
        51.7504         41.0004
  -4270810.62549  -3309030.04446  23257742.9774                   23257740.8984
        43.0004         22.7504
  -3259149.98849  -2522377.91047  23465826.3594                   23465823.6094
        45.2504         28.2504
   1951579.97349   1505727.52747  21997781.5554                   21997778.9104
        49.5004         34.7504
 03  1 17  1 58  0.0000000  0  9G 6G10G15G17G18G23G26G29G30
  -1970091.28549  -1525410.27048  20269857.9384                   20269854.2624
        51.0004         41.0004
   1861592.99649   1435983.06647  22560329.1414                   22560328.4024
        44.5004         31.7504
  -4129600.59449  -3215128.94347  23150978.8054                   23150977.4614
        43.0004         29.0004
  -2899977.77749  -2244650.59247  21450012.0314                   21450008.9774
        50.0004         38.7504
  -5345766.81249  -4141254.79046  23596437.7974                   23596434.8404
        44.5004         25.2504
  -2973278.15249  -2300102.21448  20741875.8134                   20741872.8834
        52.0004         40.7504
  -4383538.95349  -3396870.19146  23236291.9694                   23236289.5824
        43.5004         23.7504
  -3342084.60249  -2587002.26147  23450044.8524                   23450041.9384
        44.5004         28.0004
   2010163.09849   1551376.69747  22008929.7814                   22008927.4024
        49.2504         34.2504
 03  1 17  1 58 30.0000000  0  9G 6G10G15G17G18G23G26G29G30
  -2015721.46549  -1560966.23648  20261174.6484                   20261171.4224
        51.0004         41.2504
   1917282.53149   1479377.50947  22570928.9774                   22570925.6564
        45.7504         31.7504
  -4237372.53549  -3299106.96447  23130471.0234                   23130469.3794
        42.7504         29.2504
  -2972988.84449  -2301542.29747  21436118.4614                   21436115.6334
        50.0004         38.7504
  -5485336.53949  -4250010.29847  23569878.7894                   23569875.8134
        44.5004         26.5004
  -3042656.68749  -2354163.37648  20728673.6954                   20728670.4574
        51.2504         41.2504
  -4496012.02349  -3484511.44546  23214888.2734                   23214886.0164
        43.5004         24.7504
  -3424661.97349  -2651348.17947  23434330.5634                   23434328.9454
        44.5004         28.7504
   2069026.31649   1597244.13547  22020131.2034                   22020128.3714
        49.5004         34.2504
 03  1 17  1 59  0.0000000  0  9G 6G10G15G17G18G23G26G29G30
  -2060979.23449  -1596232.02048  20252562.2894                   20252559.0554
        50.5004         41.2504
   1973285.24249   1523016.01247  22581585.3444                   22581580.8794
        47.0004         31.5004
  -4344988.92249  -3382963.83247  23109992.6954                   23109991.2934
        44.7504         30.5004
  -3045793.03949  -2358272.82248  21422264.2344                   21422261.3984
        49.2504         39.5004
  -5624751.30949  -4358645.05146  23543348.8364                   23543345.3634
        44.2504         24.5004
  -3111526.66849  -2407828.26948  20715567.8364                   20715564.9304
        51.5004         41.5004
  -4608229.45349  -3571953.48047  23193535.0944                   23193532.3444
        44.7504         26.0004
  -3506882.68049  -2715416.18347  23418685.1724                   23418682.7974
        45.7504         28.7504
   2128163.48049   1643325.02347  22031384.4844                   22031381.8014
        49.5004         33.5004
 03  1 17  1 59 30.0000000  0  9G 6G10G15G17G18G23G26G29G30
  -2105868.97349  -1631211.01448  20244020.2504                   20244016.5234
        49.0004         41.5004
   2029593.01649   1566892.24147  22592299.5474                   22592295.3674
        46.2504         30.7504
  -4452455.21549  -3466703.73947  23089543.0314                   23089541.2384
        45.5004         30.2504
  -3118396.55549  -2414846.94847  21408448.2664                   21408445.2194
        48.7504         39.2504
  -5764014.15249  -4467161.43847  23516848.2504                   23516844.6414
        44.7504         26.7504
  -3179893.10949  -2461100.78348  20702558.5864                   20702555.3794
        52.2504         41.2504
  -4720193.37149  -3659198.03646  23172229.4384                   23172226.0044
        45.2504         25.5004
  -3588749.77349  -2779208.66747  23403106.4304                   23403103.0634
        44.5004         26.5004
   2187566.14549   1689612.82047  22042688.5634                   22042685.7854
        49.5004         34.0004
 03  1 17  2  0  0.0000000  0  9G 6G10G15G17G18G23G26G29G30
  -2150389.60249  -1665902.40148  20235548.1024                   20235544.7114
        50.2504         41.5004
   2086202.48849   1611003.52747  22603072.2194                   22603068.5274
        46.7504         30.2504
  -4559771.50049  -3550326.77647  23069121.6174                   23069119.3204
        45.2504         30.2504
  -3190799.92249  -2471265.12947  21394670.4224                   21394666.9884
        49.0004         38.7504
  -5903123.02349  -4575557.81247  23490376.5394                   23490373.0354
        43.5004         26.2504
  -3247755.66849  -2513980.66748  20689644.7114                   20689641.3244
        51.5004         41.5004
  -4831900.67649  -3746242.56446  23150971.0314                   23150968.2274
        43.5004         25.5004
  -3670261.26249  -2842724.02447  23387594.5474                   23387591.2154
        44.0004         26.5004
   2247231.00449   1736104.89447  22054042.4304                   22054039.5594
        49.0004         34.0004
 03  1 17  2  0 30.0000000  0  9G 6G10G15G17G18G23G26G29G30
  -2194539.01249  -1700304.52348  20227146.9384                   20227143.7074
        49.0004         41.2504
   2143111.42249   1655348.16247  22613901.0784                   22613898.3094
        46.0004         30.2504
  -4666936.60949  -3633832.01847  23048727.5864                   23048725.8444
        45.2504         31.0004
  -3263002.94949  -2527527.19847  21380930.0864                   21380927.6094
        47.0004         39.2504
  -6042074.75449  -4683831.80347  23463934.3594                   23463931.2734
        43.0004         26.0004
  -3315113.02349  -2566466.88048  20676826.6174                   20676823.5634
        50.5004         40.7504
  -4943347.02049  -3833083.80947  23129763.5944                   23129762.3914
        43.7504         27.0004
  -3751413.72749  -2905959.66247  23372151.7974                   23372148.9924
        45.5004         29.2504
   2307155.91449   1782799.60647  22065445.6954                   22065442.7814
        48.7504         33.0004
 03  1 17  2  1  0.0000000  0  9G 6G10G15G17G18G23G26G29G30
  -2238314.14549  -1734415.00048  20218816.7424                   20218813.4574
        49.2504         41.5004
   2200319.23049   1699925.69347  22624787.2584                   22624785.7274
        45.7504         31.5004
  -4773948.79749  -3717218.07847  23028363.8444                   23028361.2034
        44.0004         30.0004
  -3335004.04349  -2583631.91847  21367228.9614                   21367225.9414
        48.0004         38.7504
  -6180865.48449  -4791980.30246  23437523.6254                   23437520.2664
        43.5004         25.5004
  -3381962.71949  -2618557.52048  20664105.6334                   20664102.4774
        51.7504         41.0004
  -5054527.12949  -3919717.50046  23108605.7664                   23108603.8554
        43.5004         23.2504
  -3832202.82049  -2968912.11047  23356778.5314                   23356775.7774
        44.5004         28.0004
   2367339.85949   1829696.19047  22076898.4454                   22076895.5044
        49.0004         34.0004
 03  1 17  2  1 30.0000000  0  9G 6G10G15G17G18G23G26G29G30
  -2281711.60549  -1768231.18248  20210558.4614                   20210554.8794
        50.0004         41.5004
   2257824.74649   1744735.19147  22635730.1804                   22635729.5864
        45.7504         31.5004
  -4880805.92249  -3800483.30847  23008029.8834                   23008026.9104
        45.0004         29.5004
  -3406801.93049  -2639578.29747  21353566.3834                   21353563.2624
        47.5004         39.0004
  -6319491.27049  -4900000.29947  23411144.3914                   23411140.4884
        44.2504         26.5004
  -3448302.30149  -2670250.66348  20651481.9304                   20651478.1764
        51.5004         41.0004
  -5165435.42249  -4006139.53547  23087502.3054                   23087498.9344
        45.0004         27.7504
  -3912624.10549  -3031577.95447  23341474.0004                   23341471.5434
        43.5004         29.0004
   2427781.82849   1876793.80947  22088400.3284                   22088397.2384
        49.5004         33.7504
 03  1 17  2  2  0.0000000  0  9G 6G10G15G17G18G23G26G29G30
  -2324736.80549  -1801757.29948  20202370.9774                   20202367.6764
        50.7504         41.7504
   2315618.62149   1789769.44947  22646727.4534                   22646727.1564
        45.5004         31.5004
  -4987514.60949  -3883632.89747  22987723.6174                   22987720.7584
        44.7504         28.2504
  -3478402.79349  -2695371.13747  21339941.1954                   21339938.3714
        50.0004         38.5004
  -6457956.32049  -5007894.99446  23384794.9064                   23384791.1604
        42.5004         25.5004
  -3514137.85549  -2721551.06448  20638953.6884                   20638950.0204
        52.5004         41.0004
  -5276075.18049  -4092352.20647  23066446.6484                   23066445.8244
        43.5004         26.5004
  -3992681.77049  -3093960.48547  23326239.5394                   23326236.8554
        45.2504         28.0004
   2488472.24249   1924085.02347  22099949.2344                   22099946.2664
        48.2504         34.2504
 03  1 17  2  2 30.0000000  0  9G 6G10G15G17G18G23G26G29G30
  -2367382.48449  -1834987.68048  20194255.8204                   20194252.3954
        49.7504         41.7504
   2373703.91849   1835030.73347  22657781.0704                   22657778.3484
        45.0004         30.5004
  -5094069.05949  -3966662.30547  22967447.0164                   22967443.9804
        45.5004         30.5004
  -3549801.45749  -2751006.42847  21326354.3674                   21326351.0984
        49.5004         39.0004
  -6596252.81249  -5115658.44447  23358477.7584                   23358474.0704
        43.5004         26.0004
  -3579463.24249  -2772453.92548  20626522.8134                   20626519.2974
        52.2504         41.5004
  -5386437.20749  -4178348.49947  23045446.2344                   23045443.8244
        44.0004         27.5004
  -4072367.78549  -3156053.40447  23311076.0634                   23311073.0864
        44.5004         28.5004
   2549413.97749   1971572.08647  22111546.2114                   22111542.9844
        48.5004         33.0004
 03  1 17  2  3  0.0000000  0  9G 6G10G15G17G18G23G26G29G30
  -2409651.69549  -1867924.71048  20186212.2114                   20186208.5784
        49.5004         41.5004
   2432073.54349   1880513.56447  22668888.3444                   22668884.6174
        45.2504         29.2504
  -5200473.17649  -4049574.57547  22947198.5004                   22947196.0124
        44.5004         30.0004
  -3621002.40649  -2806487.65347  21312805.5784                   21312802.3554
        48.5004         38.7504
  -6734382.80549  -5223292.11546  23332192.1484                   23332188.9694
        43.0004         24.5004
  -3644282.32449  -2822962.27548  20614188.0784                   20614184.7854
        52.0004         41.7504
  -5496522.07449  -4264128.82347  23024497.1254                   23024495.6174
        43.5004         29.0004
  -4151683.57049  -3217857.85447  23295982.8984                   23295980.5354
        43.7504         29.2504
   2610599.76249   2019249.29247  22123189.1564                   22123186.5004
        48.0004         33.2504
 03  1 17  2  3 30.0000000  0  9G 6G10G15G17G18G23G26G29G30
  -2451538.79749  -1900563.99948  20178241.3054                   20178237.7344
        50.7504         41.5004
   2490729.12949   1926219.22447  22680049.9144                   22680047.7934
        44.7504         30.0004
  -5306722.46549  -4132366.19147  22926979.9064                   22926977.8324
        44.5004         29.2504
  -3692001.43449  -2861811.52947  21299294.7034                   21299291.5904
        50.0004         39.2504
  -6872339.66449  -5330790.87246  23305940.5164                   23305936.2894
        43.0004         25.5004
  -3708589.89149  -2873072.03348  20601950.4144                   20601947.2304
        51.7504         41.5004
  -5606322.06649  -4349687.15447  23003603.5314                   23003601.6804
        44.5004         29.5004
  -4230622.46149  -3279368.56647  23280961.0784                   23280958.4064
        43.0004         29.0004
   2672031.19549   2067117.93847  22134879.2974                   22134876.4924
        48.5004         33.2504
 03  1 17  2  4  0.0000000  0  9G 6G10G15G17G18G23G26G29G30
  -2493043.00849  -1932904.91848  20170343.1414                   20170339.9574
        50.0004         41.2504
   2549667.31349   1972145.07747  22691265.8594                   22691264.4574
        45.0004         30.7504
  -5412817.28549  -4215037.44647  22906791.4224                   22906789.2424
        45.7504         31.0004
  -3762799.28949  -2916978.64648  21285821.9614                   21285819.2424
        48.2504         39.5004
  -7010121.61749  -5438153.37647  23279721.2114                   23279717.3714
        43.0004         26.0004
  -3772386.22749  -2922783.42948  20589810.4534                   20589807.5394
        51.5004         41.0004
  -5715834.14849  -4435021.19447  22982764.4924                   22982761.4614
        44.7504         27.2504
  -4309182.77749  -3340584.34747  23266011.3834                   23266008.4264
        44.7504         29.0004
   2733704.87149   2115175.33147  22146615.3754                   22146612.8364
        48.0004         33.5004
 03  1 17  2  4 30.0000000  0  9G 6G10G15G17G18G23G26G29G30
  -2534160.38749  -1964944.41748  20162518.7814                   20162515.2034
        50.2504         41.2504
   2608888.01249   2018291.14147  22702535.3444                   22702532.4844
        44.5004         29.7504
  -5518754.78549  -4297586.12847  22886632.0864                   22886629.5204
        45.2504         30.5004
  -3833394.02349  -2971987.50247  21272388.4534                   21272385.4024
        50.0004         39.0004
  -7147723.77349  -5545375.76247  23253536.0944                   23253532.8484
        43.7504         26.7504
  -3835668.19149  -2972094.01248  20577768.3594                   20577764.9454
        51.7504         40.7504
  -5825052.26249  -4520126.12546  22961979.4924                   22961976.8984
        43.2504         24.0004
  -4387359.31249  -3401501.04647  23251134.8524                   23251131.6484
        43.5004         28.0004
   2795620.41449   2163421.19047  22158397.6254                   22158394.9344
        48.7504         33.7504
 03  1 17  2  4 59.9990000  0  9G 6G10G15G17G18G23G26G29G30
  -2574889.89549  -1996681.68248  20154768.0894                   20154764.4764
        51.0004         41.7504
   2668384.65649   2064652.14747  22713857.2534                   22713852.6014
        44.5004         29.5004
  -5624533.16449  -4380010.81147  22866503.0034                   22866500.8124
        44.7504         31.0004
  -3903784.83249  -3026837.44547  21258993.5504                   21258990.3704
        50.2504         39.0004
  -7285140.93049  -5652453.99747  23227386.8004                   23227382.9334
        42.7504         26.7504
  -3898434.94149  -3021003.13848  20565824.2844                   20565820.9604
        51.5004         41.2504
  -5933970.87549  -4604997.70847  22941253.1054                   22941250.7654
        41.7504         25.7504
  -4465148.63349  -3462116.01147  23236332.1124                   23236329.5224
        43.0004         29.2504
   2857771.25849   2211850.41947  22170224.5504                   22170221.8584
        47.5004         33.5004
 03  1 17  2  5 29.9990000  0  9G 6G10G15G17G18G23G26G29G30
  -2615232.91049  -2028117.77848  20147091.4644                   20147087.7844
        51.5004         41.5004
   2728158.32449   2111229.04047  22725232.7454                   22725228.8194
        45.5004         30.0004
  -5730159.36749  -4462316.89447  22846402.5264                   22846401.0154
        44.5004         30.5004
  -3973977.08649  -3081532.67447  21245636.4564                   21245633.0074
        50.2504         39.2504
  -7422380.00449  -5759393.47047  23201271.1674                   23201266.6754
        44.7504         28.0004
  -3960690.48449  -3069513.93048  20553977.3944                   20553974.3394
        51.5004         40.7504
  -6042593.99649  -4689639.01646  22920582.5974                   22920580.0464
        42.7504         25.5004
  -4542553.77049  -3522431.64647  23221602.2694                   23221599.7264
        42.7504         29.5004
   2920158.42249   2260463.77147  22182096.1054                   22182093.9214
        48.0004         33.2504
 03  1 17  2  5 59.9990000  0  9G 6G10G15G17G18G23G26G29G30
  -2655188.64849  -2059252.10548  20139488.2374                   20139484.4524
        51.0004         41.5004
   2788202.69149   2158016.91247  22736657.7144                   22736656.3394
        44.2504         31.7504
  -5835631.15649  -4544502.65747  22826332.6514                   22826330.0384
        44.0004         30.2504
  -4043970.35249  -3136072.85147  21232317.0344                   21232313.7614
        50.5004         39.0004
  -7559435.95749  -5866190.25147  23175190.0584                   23175186.2104
        43.7504         26.7504
  -4022433.89849  -3117625.64148  20542227.9804                   20542224.8584
        52.0004         41.0004
  -6150916.02349  -4774045.70147  22899970.0814                   22899967.0424
        44.0004         27.5004
  -4619571.42249  -3582445.30547  23206946.0734                   23206942.9954
        42.2504         26.7504
   2982775.30149   2309256.12947  22194012.0194                   22194009.4644
        47.7504         33.0004
 03  1 17  2  6 29.9990000  0  9G 6G10G15G17G18G23G26G29G30
  -2694749.08649  -2090078.39448  20131959.7764                   20131956.2654
        50.5004         41.7504
   2848521.58249   2205018.66847  22748134.8784                   22748133.9914
        41.2504         28.7504
  -5940941.81649  -4626562.86747  22806291.9874                   22806290.1124
        45.0004         30.0004
  -4113758.18049  -3190452.93448  21219036.6754                   21219033.5034
        50.0004         39.5004
  -7696300.03149  -5972837.53747  23149145.3154                   23149141.8274
        43.5004         27.5004
  -4083658.39849  -3165333.00748  20530577.1904                   20530573.7694
        51.0004         41.0004
  -6258926.93749  -4858209.98447  22879416.1204                   22879414.5074
        43.0004         26.2504
  -4696192.39549  -3642149.88247  23192365.4804                   23192362.5814
        43.0004         29.0004
   3045625.64149   2358230.41747  22205971.8944                   22205969.4954
        48.2504         33.5004
 03  1 17  2  6 59.9990000  0  9G 6G10G15G17G18G23G26G29G30
  -2733918.35549  -2120599.88348  20124506.3944                   20124502.6054
        51.0004         41.7504
   2909107.07449   2252228.13947  22759665.5194                   22759662.2804
        41.7504         28.0004
  -6046096.36349  -4708501.43147  22786282.1754                   22786279.2724
        45.2504         29.7504
  -4183346.02349  -3244677.19148  21205794.6594                   21205791.5814
        50.2504         39.5004
  -7832975.32849  -6079337.72247  23123136.4644                   23123133.0114
        43.0004         27.0004
  -4144368.67249  -3212639.68548  20519024.4174                   20519021.1674
        51.2504         40.7504
  -6366628.46549  -4942133.12647  22858921.1904                   22858918.0814
        43.5004         27.2504
  -4772419.62549  -3701547.65247  23177860.3704                   23177857.1364
        43.0004         28.5004
   3108701.22749   2407380.20147  22217974.7304                   22217972.4524
        48.0004         33.0004
 03  1 17  2  7 29.9990000  0  9G 6G10G15G17G18G23G26G29G30
  -2772691.58649  -2150812.77848  20117128.0974                   20117124.3584
        50.5004         42.0004
   2969959.62149   2299645.72147  22771244.9334                   22771242.8234
        43.5004         31.0004
  -6151091.30149  -4790315.63447  22766302.1984                   22766299.6874
        44.2504         30.0004
  -4252730.51649  -3298742.99548  21192591.5034                   21192588.3004
        49.5004         39.5004
  -7969455.93749  -6185686.19847  23097165.0584                   23097161.7334
        41.5004         26.7504
  -4204560.88749  -3259542.68048  20507570.1834                   20507566.9094
        51.2504         40.7504
  -6474013.48449  -5025809.76647  22838486.9094                   22838483.4834
        43.5004         27.0004
  -4848247.35549  -3760634.12947  23163429.7534                   23163426.8394
        42.0004         26.0004
   3172002.79749   2456706.08047  22230021.1834                   22230018.3864
        48.0004         33.0004
 03  1 17  2  7 59.9990000  0  9G 6G10G15G17G18G23G26G29G30
  -2811059.66449  -2180709.95748  20109826.4874                   20109823.2334
        49.0004         41.5004
   3031084.56349   2347275.57647  22782876.4254                   22782875.1324
        41.5004         30.0004
  -6255918.90649  -4871999.42647  22746354.1054                   22746351.7224
        44.5004         31.7504
  -4321904.49649  -3352644.75548  21179427.7454                   21179424.5344
        48.0004         39.7504
  -8105731.99649  -6291875.25147  23071232.5894                   23071228.9684
        43.0004         27.0004
  -4264226.97749  -3306035.70648  20496216.0504                   20496212.8554
        50.5004         40.5004
  -6581071.09049  -5109231.16846  22818113.3944                   22818112.1794
        43.2504         25.0004
  -4923665.34049  -3819401.33647  23149079.3084                   23149075.0264
        44.0004         27.7504
   3235535.09849   2506211.75347  22242110.4014                   22242108.3274
        48.0004         32.7504
 03  1 17  2  8 29.9990000  0  9G 6G10G15G17G18G23G26G29G30
  -2849031.25449  -2210298.19948  20102600.8944                   20102597.5264
        50.0004         42.0004
   3092468.88749   2395107.52047  22794557.5584                   22794555.7574
        42.2504         30.2504
  -6360588.72749  -4953560.26947  22726436.3314                   22726433.7264
        45.2504         31.0004
  -4390877.83249  -3406390.18548  21166302.7614                   21166299.2104
        49.0004         39.7504
  -8241811.29349  -6397911.02547  23045337.6594                   23045334.4524
        43.2504         27.0004
  -4323376.53549  -3352126.23948  20484960.3154                   20484957.1204
        51.2504         40.5004
  -6687807.31649  -5192402.19646  22797802.9094                   22797799.2654
        43.7504         24.0004
  -4998681.33649  -3877855.31247  23134803.7534                   23134801.0074
        44.0004         27.7504
   3299285.28549   2555887.21147  22254241.9874                   22254239.3434
        47.2504         32.7504
 03  1 17  2  8 59.9990000  0  9G 6G10G15G17G18G23G26G29G30
  -2886603.56249  -2239575.29948  20095451.0194                   20095447.7144
        50.7504         41.5004
   3154111.62949   2443140.84747  22806288.2374                   22806285.7024
        42.0004         30.7504
  -6465099.30949  -5034997.03047  22706547.9014                   22706545.8944
        45.7504         31.0004
  -4459649.30149  -3459978.30248  21153215.8314                   21153212.8584
        50.0004         39.5004
  -8377689.67249  -6503790.22047  23019481.2844                   23019477.7224
        44.5004         27.5004
  -4382007.85549  -3397812.95748  20473803.3314                   20473799.5504
        50.5004         41.0004
  -6794217.53149  -5275319.16646  22777552.9094                   22777550.0624
        44.5004         25.0004
  -5073291.26649  -3935992.80247  23120605.3944                   23120603.1164
        42.5004         27.7504
   3363251.93449   2605731.34147  22266414.3154                   22266411.8704
        47.0004         32.7504
 03  1 17  2  9 29.9990000  0  9G 6G10G15G17G18G23G26G29G30
  -2923777.23849  -2268541.77448  20088377.0654                   20088373.6984
        50.5004         41.2504
   3216008.23449   2491371.98547  22818067.6674                   22818062.8274
        42.5004         29.0004
  -6569452.18749  -5116310.89847  22686690.5504                   22686688.2024
        44.2504         32.0004
  -4528221.12149  -3513410.84648  21140167.2614                   21140163.8704
        48.7504         40.0004
  -8513366.84849  -6609512.64347  22993662.4954                   22993658.6054
        44.5004         28.5004
  -4440122.52049  -3443097.07648  20462744.0504                   20462741.0734
        50.7504         41.0004
  -6900299.82049  -5357980.62347  22757367.6054                   22757363.6554
        42.5004         26.2504
  -5147494.82849  -3993813.66247  23106485.6594                   23106481.3474
        44.0004         26.0004
   3427430.48049   2655740.57447  22278627.0734                   22278624.8004
        46.2504         32.2504
 03  1 17  2  9 59.9990000  0  9G 6G10G15G17G18G23G26G29G30
  -2960543.81249  -2297191.04648  20081380.5114                   20081376.7844
        50.0004         41.7504
   3278163.02749   2539804.29147  22829894.5344                   22829889.9604
        42.5004         27.7504
  -6673640.00849  -5197496.16947  22666864.2454                   22666861.6124
        45.2504         30.7504
  -4596586.25849  -3566682.35548  21127157.6284                   21127154.1674
        49.5004         40.0004
  -8648833.73849  -6715071.21947  22967884.0584                   22967880.2224
        43.7504         28.2504
  -4497712.94949  -3487972.70648  20451785.1514                   20451781.8744
        51.2504         40.5004
  -7006043.63349  -5440378.33646  22737243.8554                   22737241.1204
        44.0004         25.0004
  -5221282.39849  -4051310.46947  23092444.4724                   23092439.9804
        44.2504         27.7504
   3491825.09049   2705918.18247  22290880.9014                   22290878.6244
        46.2504         32.2504
 03  1 17  2 10 29.9990000  0  9G 6G10G15G17G18G23G26G29G30
  -2996902.76249  -2325522.67248  20074461.7924                   20074458.4254
        51.0004         41.0004
   3340572.87949   2588435.33847  22841771.2614                   22841767.8624
        43.0004         28.7504
  -6777663.20749  -5278553.16047  22647069.1054                   22647066.5934
        44.7504         31.2504
  -4664745.67649  -3619793.53848  21114187.1444                   21114183.8744
        50.2504         39.5004
  -8784088.77349  -6820464.70147  22942145.6054                   22942142.2414
        43.7504         28.5004
  -4554779.84049  -3532440.38448  20440925.7064                   20440922.1244
        51.0004         40.7504
  -7111446.41849  -5522510.24747  22717186.8314                   22717184.2884
        45.5004         27.2504
  -5294652.66849  -4108481.99447  23078481.8084                   23078479.4564
        42.0004         28.0004
   3556432.18849   2756261.35147  22303175.0504                   22303172.8584
        45.0004         32.0004
 03  1 17  2 10 59.9990000  0  9G 6G10G15G17G18G23G26G29G30
  -3032861.86749  -2353542.73148  20067618.9014                   20067615.3314
        48.7504         41.7504
   3403225.96949   2637255.97747  22853693.6284                   22853690.7264
        44.2504         30.5004
  -6881530.50049  -5359488.64547  22627303.7614                   22627301.6594
        44.5004         31.0004
  -4732708.27749  -3672751.38048  21101254.3154                   21101251.3824
        47.7504         39.7504
  -8919138.48449  -6925698.17547  22916446.3554                   22916442.5854
        43.0004         28.2504
  -4611331.89149  -3576506.89648  20430164.1514                   20430160.9564
        51.5004         41.5004
  -7216513.43749  -5604380.60147  22697192.7304                   22697191.0974
        44.7504         26.5004
  -5367612.09849  -4165333.41047  23064598.9334                   23064595.1594
        43.0004         29.0004
   3621239.91049   2806760.87447  22315508.0974                   22315505.5774
        47.0004         31.7504
 03  1 17  2 11 29.9990000  0  9G 6G10G15G17G18G23G26G29G30
  -3068413.27349  -2381245.10748  20060853.8394                   20060850.1874
        50.7504         41.2504
   3466125.98849   2686269.05347  22865662.6754                   22865658.5194
        44.2504         29.2504
  -6985235.40649  -5440297.61247  22607569.3944                   22607566.9874
        45.7504         31.7504
  -4800468.28549  -3725551.35048  21088359.9404                   21088356.6984
        50.2504         39.7504
  -9053974.00049  -7030764.78347  22890788.2534                   22890784.5584
        45.0004         28.2504
  -4667362.36749  -3620166.97148  20419501.6054                   20419498.3944
        51.0004         40.5004
  -7321234.71549  -5685981.50647  22677265.0034                   22677261.5734
        46.0004         26.7504
  -5440151.87949  -4221857.87346  23050794.2694                   23050790.2264
        43.7504         25.5004
   3686251.95749   2857419.59447  22327879.4724                   22327876.8584
        46.0004         31.7504
 03  1 17  2 11 59.9990000  0  9G 6G10G15G17G18G23G26G29G30
  -3103555.43049  -2408628.58848  20054166.5584                   20054162.7724
        51.0004         41.7504
   3529270.50449   2735472.61047  22877677.9954                   22877673.1014
        42.7504         27.7504
  -7088777.51649  -5520979.70647  22587866.0114                   22587863.5384
        43.5004         32.0004
  -4868025.58649  -3778193.36848  21075503.9804                   21075501.0114
        50.5004         39.5004
  -9188593.35949  -7135662.90947  22865171.2224                   22865167.4914
        42.0004         28.0004
  -4722870.87549  -3663420.31848  20408938.9014                   20408935.4524
        51.5004         40.7504
  -7425606.69149  -5767310.24347  22657404.1124                   22657401.5264
        42.7504         27.7504
  -5512269.64149  -4278053.46347  23037070.4174                   23037067.9764
        43.2504         28.0004
   3751465.53949   2908235.37247  22340289.0584                   22340286.4834
        44.7504         32.0004
 03  1 17  2 12 29.9990000  0  9G 6G10G15G17G18G23G26G29G30
  -3138282.12549  -2435688.33648  20047557.9724                   20047554.5654
        50.7504         41.5004
   3592661.71149   2784868.31447  22889740.0264                   22889738.3124
        43.5004         28.2504
  -7192151.70749  -5601530.98247  22568194.3944                   22568192.4954
        43.2504         31.5004
  -4935375.10249  -3830673.47248  21062687.9014                   21062684.7614
        50.0004         40.0004
  -9322989.07049  -7240386.79447  22839596.0504                   22839592.7304
        43.0004         28.5004
  -4777852.28549  -3706262.95548  20398476.1284                   20398472.9764
        51.0004         41.5004
  -7529620.68749  -5848360.05947  22637610.9644                   22637607.8864
        43.2504         28.5004
  -5583957.96149  -4333914.39847  23023429.5034                   23023426.5734
        45.0004         30.0004
   3816882.98449   2959209.98947  22352737.6674                   22352734.9644
        45.0004         31.0004
 03  1 17  2 12 59.9990000  0  9G 6G10G15G17G18G23G26G29G30
  -3172601.15249  -2462430.41148  20041027.6444                   20041023.9374
        50.7504         41.2504
   3656288.24249   2834447.48047  22901847.6674                   22901847.3314
        43.0004         28.7504
  -7295366.42649  -5681957.96247  22548553.3784                   22548550.8904
        46.0004         32.0004
  -5002525.96549  -3882998.78848  21049909.5194                   21049906.2724
        50.0004         39.7504
  -9457167.77349  -7344941.56847  22814062.4644                   22814059.2304
        44.7504         28.0004
  -4832315.48049  -3748701.77748  20388112.0424                   20388109.2534
        51.2504         41.2504
  -7633282.51649  -5929135.40947  22617883.8704                   22617882.5854
        43.2504         27.5004
  -5655223.74649  -4389446.10947  23009867.2534                   23009863.9834
        43.7504         27.5004
   3882492.27049   3010334.07647  22365222.4014                   22365219.4804
        45.0004         30.7504
 03  1 17  2 13 29.9990000  0  9G 6G10G15G17G18G23G26G29G30
  -3206509.51649  -2488852.49248  20034574.8474                   20034571.4994
        51.2504         41.0004
   3720149.30549   2884209.39547  22914000.0584                   22913998.0504
        43.0004         28.2504
  -7398419.85549  -5762259.28647  22528942.6904                   22528940.4684
        45.5004         31.2504
  -5069476.69149  -3935168.15248  21037169.1444                   21037166.2414
        50.5004         39.5004
  -9591125.65649  -7449324.28447  22788571.5584                   22788567.9684
        43.7504         28.0004
  -4886258.43049  -3790735.22148  20377847.1984                   20377843.5264
        51.0004         41.0004
  -7736586.67249  -6009632.01647  22598226.0654                   22598223.7654
        44.2504         27.2504
  -5726062.78149  -4444645.27447  22996386.8944                   22996383.0464
        44.0004         26.7504
   3948292.45349   3061606.94647  22377743.7764                   22377741.0894
        46.0004         31.2504
 03  1 17  2 13 59.9990000  0  9G 6G10G15G17G18G23G26G29G30
  -3240001.65649  -2514950.25348  20028200.9404                   20028197.8354
        51.0004         41.2504
   3784246.46549   2934155.25546  22926197.2064                   22926193.6404
        42.5004         25.2504
  -7501307.46549  -5842431.40147  22509364.1904                   22509361.2764
        45.5004         31.5004
  -5136223.55149  -3987178.66648  21024467.5584                   21024464.3354
        51.0004         40.0004
  -9724856.16849  -7553529.80847  22763123.1834                   22763119.6834
        44.5004         28.2504
  -4939676.66849  -3832359.79348  20367682.1364                   20367678.6404
        51.2504         41.2504
  -7839525.40249  -6089843.98346  22578636.8084                   22578632.6674
        43.7504         25.0004
  -5796468.66449  -4499506.99547  22982990.0504                   22982986.7574
        46.0004         29.7504
   4014284.91849   3113029.62447  22390302.0034                   22390298.9874
        45.5004         31.0004
 03  1 17  2 14 29.9990000  0  9G 6G10G15G17G18G23G26G29G30
  -3273081.67249  -2540726.86948  20021906.5264                   20021903.1674
        50.5004         41.5004
   3848571.73049   2984278.82847  22938437.9404                   22938436.0894
        43.5004         27.0004
  -7604034.56649  -5922478.44047  22489815.4094                   22489812.9374
        46.5004         31.0004
  -5202771.35549  -4039034.05748  21011803.8234                   21011800.8274
        50.0004         39.7504
  -9858362.59049  -7657560.75347  22737717.1984                   22737714.2724
        44.0004         29.0004
  -4992575.43749  -3873579.58848  20357615.8864                   20357612.4484
        51.2504         41.0004
  -7942100.74649  -6169772.72947  22559118.1754                   22559115.7184
        44.2504         28.0004
  -5866444.36749  -4554033.39347  22969672.8154                   22969671.0304
        42.0004         28.0004
   4080461.67649   3164595.93747  22402894.8004                   22402892.1714
        46.2504         31.5004
 03  1 17  2 14 59.9990000  0  9G 6G10G15G17G18G23G26G29G30
  -3305741.58249  -2566176.12248  20015691.6754                   20015688.2494
        51.5004         41.7504
   3913129.31349   3034583.44347  22950724.2064                   22950721.6674
        45.0004         28.7504
  -7706594.05149  -6002394.85247  22470299.1054                   22470296.4834
        45.5004         32.2504
  -5269113.95749  -4090729.55548  20999179.3394                   20999176.0194
        50.5004         39.7504
  -9991635.54349  -7761409.74747  22712357.0194                   22712353.4404
        45.5004         29.2504
  -5044947.98449  -3914389.33848  20347649.6284                   20347646.2964
        51.5004         41.0004
  -8044302.23049  -6249410.16247  22539669.6904                   22539667.5584
        43.0004         27.5004
  -5935981.04749  -4608217.74647  22956440.4014                   22956436.8974
        44.5004         28.2504
   4146826.50449   3216308.78147  22415523.4874                   22415521.2494
        45.5004         31.5004
 03  1 17  2 15 29.9990000  0  9G 6G10G15G17G18G23G26G29G30
  -3337986.22749  -2591301.80948  20009555.5894                   20009552.1474
        51.0004         41.2504
   3977910.67249   3085062.48747  22963052.0974                   22963045.8784
        46.0004         27.5004
  -7808991.43449  -6082184.97447  22450813.5424                   22450811.2304
        44.0004         32.0004
  -5335256.84849  -4142269.46248  20986592.6904                   20986589.5814
        51.5004         40.7504
 -10124678.40249  -7865079.44247  22687039.3154                   22687035.4724
        45.7504         29.2504
  -5096800.01649  -3954793.48448  20337782.3554                   20337778.6794
        51.2504         41.5004
  -8146132.42649  -6328758.26647  22520291.9254                   22520288.4294
        41.5004         27.0004
  -6005082.39549  -4662062.91947  22943291.4724                   22943287.7374
        45.5004         29.0004
   4213370.81649   3268161.48247  22428186.7064                   22428184.1204
        46.0004         31.2504
 03  1 17  2 15 59.9990000  0  9G 6G10G15G17G18G23G26G29G30
  -3369811.72349  -2616100.88048  20003499.3474                   20003495.6164
        50.5004         41.5004
   4042915.81349   3135715.82347  22975422.2374                   22975417.4564
        46.2504         26.7504
  -7911223.93749  -6161846.60247  22431358.7924                   22431356.9174
        44.7504         32.5004
  -5401198.18449  -4193652.28048  20974044.6514                   20974041.3784
        50.5004         40.2504
 -10257486.38749  -7968566.14847  22661767.1054                   22661763.0344
        44.0004         29.2504
  -5148128.81249  -3994789.92048  20328014.8474                   20328011.5854
        51.5004         41.5004
  -8247585.27349  -6407812.37947  22500985.8554                   22500983.5814
        42.0004         28.0004
  -6073743.42649  -4715564.96147  22930225.1444                   22930222.1164
        44.5004         28.7504
   4280094.22349   3320153.74247  22440883.7374                   22440881.0894
        45.7504         31.5004
 03  1 17  2 16 29.9990000  0  9G 6G10G15G17G18G23G26G29G30
  -3401217.11349  -2640572.59548  19997522.8394                   19997519.7144
        51.2504         41.5004
   4108141.65249   3186541.13647  22987835.0424                   22987831.8554
        43.5004         31.0004
  -8013291.98849  -6241380.08647  22411935.9014                   22411933.4214
        46.2504         31.7504
  -5466938.27049  -4244878.29548  20961534.5974                   20961531.5384
        50.7504         39.7504
 -10390058.03549  -8071868.66847  22636539.4804                   22636535.6204
        45.5004         30.5004
  -5198934.55949  -4034378.77948  20318346.6514                   20318343.0264
        51.5004         41.5004
  -8348657.74649  -6486570.01747  22481752.3234                   22481749.5264
        44.5004         27.5004
  -6141962.54349  -4768722.58747  22917243.9484                   22917240.4954
        45.5004         28.0004
   4346993.65249   3372283.14947  22453614.1594                   22453611.6474
        43.7504         31.2504
 03  1 17  2 16 59.9990000  0  9G 6G10G15G17G18G23G26G29G30
  -3432202.60549  -2664717.12748  19991626.7924                   19991623.1084
        51.5004         41.2504
   4173584.37549   3237535.51047  23000288.4254                   23000284.4954
        42.5004         29.5004
  -8115196.83249  -6320786.41147  22392544.4094                   22392541.6124
        46.5004         31.5004
  -5532478.39549  -4295948.49848  20949062.7924                   20949059.2144
        49.2504         40.2504
 -10522392.45349  -8174986.36447  22611356.9094                   22611352.9644
        45.0004         30.2504
  -5249218.80149  -4073561.28148  20308777.9804                   20308774.6794
        51.7504         41.5004
  -8449347.71949  -6565029.69647  22462591.8784                   22462588.3084
        45.0004         28.7504
  -6209738.85549  -4821535.28047  22904346.7224                   22904342.8314
        40.5004         28.0004
   4414064.85549   3424546.43047  22466377.7614                   22466374.6714
        44.2504         31.0004
 03  1 17  2 17 29.9990000  0  9G 6G10G15G17G18G23G26G29G30
  -3462769.10249  -2688535.15448  19985810.1204                   19985806.6554
        50.5004         41.0004
   4239239.14149   3288695.10847  23012781.0034                   23012775.9874
        44.5004         27.7504
  -8216940.11349  -6400066.84147  22373183.0034                   22373180.6674
        46.5004         32.2504
  -5597821.12949  -4346864.86847  20936628.3084                   20936624.9994
        49.5004         39.2504
 -10654489.42649  -8277919.01547  22586219.2694                   22586216.0194
        45.7504         29.5004
  -5298983.61749  -4112339.02648  20299308.1754                   20299304.8004
        51.7504         41.0004
  -8549653.85549  -6643190.23247  22443503.5344                   22443501.4444
        44.5004         27.5004
  -6277072.44949  -4874002.96047  22891532.8004                   22891529.6874
        40.0004         28.5004
   4481303.07449   3476939.81147  22479172.6904                   22479170.1084
        47.0004         31.5004
 03  1 17  2 17 59.9990000  0  9G 6G10G15G17G18G23G26G29G30
  -3492909.37549  -2712021.07248  19980074.7224                   19980071.3154
        51.0004         41.0004
   4305109.40249   3340022.60047  23025315.1364                   23025312.9724
        39.5004         27.2504
  -8318515.56249  -6479216.50247  22353853.7764                   22353851.5074
        44.5004         32.2504
  -5662960.90249  -4397623.11048  20924232.5894                   20924229.5694
        49.7504         40.0004
 -10786340.61349  -8380660.17047  22561128.9174                   22561125.6084
        46.7504         29.7504
  -5348223.01649  -4150707.36048  20289938.2924                   20289934.8554
        51.7504         41.0004
  -8649566.82049  -6721044.39547  22424490.7304                   22424488.4134
        42.2504         28.0004
  -6343954.95749  -4926119.14147  22878805.4094                   22878801.9914
        40.7504         29.5004
   4548711.43049   3529465.80047  22492000.1364                   22491997.5584
        44.2504         31.0004
 03  1 17  2 18 29.9990000  0  9G 6G10G15G17G18G23G26G29G30
  -3522631.07849  -2735180.82448  19974418.7614                   19974415.3124
        51.5004         41.5004
   4371183.82049   3391509.21447  23037888.0264                   23037885.4094
        39.0004         26.0004
  -8419931.80949  -6558242.09547  22334555.3084                   22334552.9564
        46.5004         32.2504
  -5727906.23449  -4448229.82148  20911874.0654                   20911870.9874
        51.5004         39.5004
 -10917953.12149  -8483215.33547  22536084.2454                   22536080.4444
        47.0004         30.0004
  -5396945.97349  -4188673.26248  20280666.5814                   20280662.7614
        52.2504         40.5004
  -8749091.91049  -6798596.35847  22405551.6904                   22405548.7494
        45.2504         28.5004
  -6410393.19549  -4977889.14447  22866162.9254                   22866159.5814
        44.5004         28.5004
   4616278.20349   3582115.21447  22504857.5344                   22504854.9834
        44.0004         31.0004
 03  1 17  2 18 59.9990000  0  9G 6G10G15G17G18G23G26G29G30
  -3551931.52749  -2758012.33448  19968843.2454                   19968839.6714
        51.0004         41.5004
   4437461.21949   3443153.94246  23050500.2924                   23050496.4834
        43.5004         24.7504
  -8521187.05149  -6637142.22947  22315286.5734                   22315284.2534
        47.5004         31.7504
  -5792655.44949  -4498683.72748  20899552.5034                   20899549.5344
        51.0004         40.2504
 -11049322.93449  -8585581.38847  22511085.5894                   22511081.4994
        47.0004         30.0004
  -5445150.92649  -4226235.53548  20271493.3154                   20271489.8704
        51.2504         41.7504
  -8848224.24249  -6875842.24047  22386687.5894                   22386685.1904
        45.2504         28.7504
  -6476383.73449  -5029310.33247  22853605.4334                   22853602.0504
        45.5004         30.2504
   4684002.04349   3634887.02947  22517744.5974                   22517742.4444
        46.2504         30.5004
 03  1 17  2 19 29.9990000  0  9G 6G10G15G17G18G23G26G29G30
  -3580808.55949  -2780513.89448  19963347.8154                   19963344.5774
        51.0004         40.7504
   4503940.41449   3494955.91947  23063151.4724                   23063149.2574
        44.2504         28.0004
  -8622279.98449  -6715915.90947  22296049.6124                   22296046.5194
        47.0004         32.2504
  -5857207.86749  -4548984.28048  20887268.6904                   20887265.6054
        50.0004         40.0004
 -11180446.67249  -8687755.68347  22486133.4254                   22486129.3234
        47.0004         30.0004
  -5492836.78149  -4263393.31348  20262418.9254                   20262415.4954
        52.0004         41.5004
  -8946959.30149  -6952778.55047  22367899.1594                   22367895.8744
        44.5004         29.5004
  -6541923.24649  -5080380.02647  22841133.4954                   22841130.1594
        41.5004         29.2504
   4751881.42649   3687780.05647  22530661.8154                   22530659.2844
        46.2504         30.0004
 03  1 17  2 19 59.9990000  0  9G 6G10G15G17G18G23G26G29G30
  -3609259.20749  -2802683.22548  19957933.9334                   19957930.3974
        51.5004         41.2504
   4570620.49249   3546914.46447  23075840.9954                   23075837.4174
        45.5004         29.0004
  -8723208.61749  -6794561.55347  22276843.3474                   22276840.8274
        47.0004         32.5004
  -5921562.24649  -4599130.52248  20875022.5734                   20875019.3704
        50.0004         40.7504
 -11311320.37149  -8789735.14447  22461227.8624                   22461224.9444
        47.0004         30.2504
  -5540001.76249  -4300145.21348  20253443.5344                   20253440.2614
        51.5004         41.0004
  -9045291.94949  -7029401.34647  22349186.6204                   22349183.6904
        45.2504         28.5004
  -6607007.90249  -5131095.28947  22828747.6284                   22828744.5464
        40.2504         29.0004
   4819915.35549   3740793.46847  22543608.4874                   22543605.6474
        46.5004         30.5004
 03  1 17  2 20 29.9990000  0  9G 6G10G15G17G18G23G26G29G30
  -3637286.84049  -2824522.92248  19952600.4094                   19952596.9484
        50.2504         41.2504
   4637494.41449   3599024.03947  23088566.5584                   23088561.5464
        46.0004         27.0004
  -8823977.24249  -6873082.51447  22257667.7374                   22257664.8624
        47.5004         32.0004
  -5985722.91849  -4649125.80748  20862813.1984                   20862809.8974
        50.0004         40.0004
 -11441946.22749  -8891521.48547  22436370.9094                   22436367.7884
        46.7504         29.5004
  -5586650.53949  -4336494.87048  20244566.5814                   20244563.2844
        51.2504         41.2504
  -9143223.13749  -7105711.29847  22330551.6204                   22330548.7964
        45.2504         29.0004
  -6671639.89849  -5181457.84647  22816449.2064                   22816445.7184
        43.2504         28.5004
   4888096.50049   3793921.63047  22556583.0734                   22556580.1084
        46.0004         30.2504
 03  1 17  2 20 59.9990000  0  9G 6G10G15G17G18G23G26G29G30
  -3664890.12149  -2846031.97048  19947347.7144                   19947344.1014
        51.2504         40.7504
   4704560.21949   3651283.08747  23101329.3944                   23101325.1054
        46.0004         28.0004
  -8924585.23849  -6951478.31447  22238522.4174                   22238519.4914
        47.2504         32.5004
  -6049689.23449  -4698969.66548  20850640.6594                   20850637.5934
        50.7504         40.0004
 -11572321.73049  -8993112.72547  22411561.3784                   22411558.2534
        46.7504         30.0004
  -5632782.88349  -4372442.12248  20235787.9484                   20235784.3394
        51.2504         41.0004
  -9240749.19549  -7181705.56147  22311992.2304                   22311988.5304
        44.7504         27.7504
  -6735816.93749  -5231465.90847  22804236.3864                   22804233.8944
        44.0004         29.2504
   4956422.52749   3847162.66247  22569584.9724                   22569582.3394
        46.5004         31.0004
 03  1 17  2 21 29.9990000  0  9G 6G10G15G17G18G23G26G29G30
  -3692068.65649  -2867210.03248  19942175.9094                   19942172.0424
        50.7504         41.0004
   4771814.42249   3703688.94647  23114127.0584                   23114123.4404
        44.2504         27.2504
  -9025033.24649  -7029749.45347  22219407.7694                   22219405.5154
        46.7504         32.7504
  -6113462.80549  -4748663.31048  20838504.8474                   20838501.5894
        50.7504         40.0004
 -11702445.40249  -9094507.74747  22386800.2764                   22386796.5034
        46.7504         30.5004
  -5678399.85249  -4407987.79048  20227107.3154                   20227103.9994
        51.2504         41.0004
  -9337867.67649  -7257382.20247  22293511.3234                   22293508.0304
        46.0004         29.5004
  -6799537.93049  -5281118.56647  22792110.6364                   22792108.2374
        43.5004         29.7504
   5024889.78149   3900513.76547  22582613.6754                   22582611.0694
        45.7504         31.0004
 03  1 17  2 21 59.9990000  0  9G 6G10G15G17G18G23G26G29G30
  -3718820.24649  -2888055.40148  19937085.0264                   19937081.5464
        51.2504         40.7504
   4839255.64149   3756240.59646  23126960.4014                   23126955.6634
        38.7504         23.0004
  -9125319.67249  -7107894.68347  22200324.3864                   22200321.2534
        47.0004         32.0004
  -6177042.18749  -4798205.65148  20826406.0814                   20826402.9604
        50.5004         40.0004
 -11832313.96949  -9195703.99047  22362086.8394                   22362083.1244
        47.0004         31.5004
  -5723500.41449  -4443131.04848  20218524.7844                   20218521.2374
        51.7504         40.7504
  -9434574.02049  -7332737.73147  22275109.2614                   22275106.6124
        45.7504         31.0004
  -6862799.69549  -5330413.38747  22780072.5344                   22780068.2334
        43.0004         28.5004
   5093496.57449   3953973.58747  22595669.5654                   22595666.7104
        44.2504         30.5004
 03  1 17  2 22 29.9990000  0  9G 6G10G15G17G18G23G26G29G30
  -3745145.30149  -2908568.41248  19932075.7844                   19932072.0774
        51.2504         40.5004
   4906879.79349   3808934.77246  23139827.2844                   23139824.2884
        41.7504         23.7504
  -9225446.10949  -7185915.23347  22181270.0894                   22181267.8234
        46.0004         32.5004
  -6240428.57049  -4847597.60548  20814343.7064                   20814340.4644
        48.7504         40.5004
 -11961926.87149  -9296700.98847  22337422.2064                   22337418.4524
        46.2504         30.5004
  -5768086.38749  -4477873.34548  20210040.5344                   20210037.2304
        50.7504         40.5004
  -9530866.51649  -7407770.75547  22256783.8084                   22256781.9014
        44.5004         28.7504
  -6925601.84049  -5379350.10747  22768121.9254                   22768117.4834
        40.5004         29.5004
   5162238.51649   4007538.73747  22608750.3864                   22608747.8554
        46.0004         29.2504
 03  1 17  2 22 59.9990000  0  9G 6G10G15G17G18G23G26G29G30
  -3771038.81249  -2928745.16548  19927148.3864                   19927144.7574
        51.5004         40.7504
   4974688.46949   3861772.72347  23152730.7064                   23152728.8194
        43.0004         26.0004
  -9325408.33249  -7263807.82947  22162248.7764                   22162245.4294
        47.0004         32.2504
  -6303618.84049  -4896836.75248  20802319.1054                   20802315.8234
        49.7504         39.7504
 -12091277.89549  -9397493.93447  22312808.3084                   22312803.9954
        46.2504         32.0004
  -5812153.90649  -4512211.64448  20201654.9174                   20201650.9994
        51.5004         41.0004
  -9626737.85549  -7482475.62047  22238540.8084                   22238536.7024
        45.7504         28.7504
  -6987938.34049  -5427923.96347  22756259.1674                   22756256.8514
        42.7504         29.7504
   5231116.94949   4061210.21947  22621857.8784                   22621855.0894
        45.7504         29.7504
 03  1 17  2 23 29.9990000  0  9G 6G10G15G17G18G23G26G29G30
  -3796501.24249  -2948586.00848  19922303.0034                   19922299.1944
        51.0004         41.2504
   5042677.84849   3914751.51247  23165669.5344                   23165665.7614
        43.5004         26.7504
  -9425207.45349  -7341573.33847  22143257.2064                   22143254.2334
        46.0004         33.0004
  -6366614.82049  -4945924.49648  20790331.6054                   20790328.0934
        50.7504         39.5004
 -12220366.41849  -9498082.35847  22288242.4564                   22288238.9054
        45.5004         31.7504
  -5855704.71949  -4546147.31748  20193367.2694                   20193363.5894
        51.0004         41.0004
  -9722186.03149  -7556850.79247  22220377.6514                   22220374.8124
        45.0004         30.2504
  -7049808.85549  -5476134.66747  22744485.4564                   22744483.2844
        45.5004         29.7504
   5300127.48049   4114984.64847  22634989.7924                   22634987.1084
        45.5004         29.7504
 03  1 17  2 23 59.9990000  0  9G 6G10G15G17G18G23G26G29G30
  -3821533.57049  -2968091.70348  19917539.1124                   19917536.2184
        51.0004         41.2504
   5110842.93849   3967867.14747  23178640.7924                   23178637.8124
        41.0004         26.0004
  -9524845.39149  -7419213.25847  22124296.6514                   22124294.1904
        47.5004         33.5004
  -6429418.34049  -4994862.26548  20778380.4254                   20778377.1834
        50.0004         40.0004
 -12349192.57849  -9598466.30147  22263727.8154                   22263724.1984
        46.5004         31.5004
  -5898741.15249  -4579682.17648  20185177.6444                   20185174.0774
        51.7504         40.5004
  -9817210.14849  -7630895.42547  22202294.8004                   22202293.3704
        42.0004         31.0004
  -7111213.40649  -5523982.29747  22732801.1834                   22732797.3904
        45.7504         29.2504
   5369265.23049   4168858.21047  22648146.3624                   22648143.3944
        44.0004         29.5004
 03  1 17  2 24 29.9990000  0  9G 6G10G15G17G18G23G26G29G30
  -3846134.51649  -2987261.25448  19912858.0034                   19912854.6874
        51.0004         41.0004
   5179181.69149   4021118.16447  23191645.2374                   23191642.1284
        40.5004         26.7504
  -9624321.68749  -7496727.20147  22105367.0194                   22105364.0344
        46.2504         33.0004
  -6492028.64849  -5043649.48448  20766466.1514                   20766462.7804
        49.0004         39.7504
 -12477753.61349  -9698643.69147  22239263.7844                   22239259.7964
        45.7504         31.7504
  -5941263.09849  -4612816.13248  20177086.0814                   20177082.5974
        51.0004         41.0004
  -9911806.35949  -7704606.69847  22184294.0504                   22184290.8784
        45.2504         30.2504
  -7172149.99249  -5571465.32547  22721205.3554                   22721200.5154
        40.5004         29.2504
   5438527.89849   4222829.10547  22661326.5264                   22661323.7264
        44.0004         29.0004
 03  1 17  2 24 59.9990000  0  9G 6G10G15G17G18G23G26G29G30
  -3870304.25449  -3006094.79948  19908258.7924                   19908255.3584
        51.2504         41.0004
   5247690.28149   4074501.50147  23204682.4334                   23204678.3434
        43.0004         27.2504
  -9723637.36749  -7574115.98447  22086467.8234                   22086464.8084
        46.5004         33.5004
  -6554447.86349  -5092287.79848  20754587.8944                   20754584.7334
        50.7504         40.2504
 -12606048.89549  -9798613.98447  22214850.3944                   22214845.7144
        46.7504         31.5004
  -5983272.18049  -4645550.46448  20169091.8394                   20169088.5424
        51.2504         41.5004
 -10005972.78549  -7777983.07947  22166374.6754                   22166371.7654
        44.5004         30.0004
  -7232617.89549  -5618583.09747  22709698.0734                   22709694.7224
        44.0004         28.5004
   5507911.26249   4276894.05447  22674529.5584                   22674527.1124
        46.0004         28.2504
 03  1 17  2 25 29.9990000  0  9G 6G10G15G17G18G23G26G29G30
  -3894035.62949  -3024586.75248  19903742.6444                   19903738.9444
        51.0004         41.0004
   5316372.58649   4128020.16147  23217752.0424                   23217749.4644
        43.7504         27.0004
  -9822785.87549  -7651374.52547  22067600.4014                   22067597.6364
        45.7504         33.2504
  -6616669.70349  -5140772.31848  20742747.7694                   20742744.2964
        48.7504         39.7504
 -12734070.10549  -9898370.70747  22190487.5194                   22190484.1014
        45.2504         31.0004
  -6024762.48449  -4677880.53448  20161196.6514                   20161193.0504
        50.2504         40.5004
 -10099699.95749  -7851017.17247  22148539.1054                   22148537.1754
        45.0004         30.2504
  -7292608.76249  -5665329.14847  22698282.5114                   22698279.5544
        41.5004         30.2504
   5577418.86349   4331055.81747  22687756.6444                   22687754.1444
        45.7504         29.0004
 03  1 17  2 25 59.9990000  0  9G 6G10G15G17G18G23G26G29G30
  -3917328.68449  -3042737.16648  19899310.2924                   19899306.5304
        50.5004         41.0004
   5385224.67649   4181671.20447  23230854.5894                   23230850.6834
        43.7504         27.0004
  -9921768.28949  -7728503.63347  22048765.0654                   22048761.8194
        47.0004         33.2504
  -6678695.39549  -5189103.99548  20730944.6054                   20730941.2884
        50.0004         40.0004
 -12861815.96149  -9997912.88247  22166179.1204                   22166174.9444
        47.2504         32.2504
  -6065735.45749  -4709807.50148  20153399.4724                   20153396.2414
        51.5004         41.5004
 -10192985.70749  -7923707.28347  22130787.0344                   22130784.8004
        42.5004         29.7504
  -7352122.19549  -5711703.19947  22686957.5114                   22686954.4564
        46.0004         29.0004
   5647046.81349   4385311.33247  22701006.3004                   22701003.7884
        45.0004         28.7504
 03  1 17  2 26 29.9990000  0  9G 6G10G15G17G18G23G26G29G30
  -3940189.59049  -3060550.84448  19894959.7764                   19894956.1244
        50.5004         40.2504
   5454237.32049   4235447.27046  23243986.6444                   23243983.2694
        41.0004         23.0004
 -10020591.41449  -7805508.61947  22029959.6444                   22029956.4914
        46.0004         33.2504
  -6740531.88349  -5237288.24448  20719177.3474                   20719173.6984
        50.5004         40.0004
 -12989291.60549 -10097244.52347  22141921.1364                   22141917.2764
        46.7504         31.5004
  -6106198.66449  -4741337.25148  20145699.8704                   20145696.4174
        50.2504         41.5004
 -10285833.96949  -7996056.52447  22113119.0584                   22113114.9994
        45.0004         30.2504
  -7411163.47749  -5757709.33747  22675721.1984                   22675717.8314
        45.2504         28.0004
   5716785.19949   4439652.92347  22714276.9644                   22714274.5304
        44.5004         29.0004
 03  1 17  2 26 59.9990000  0  9G 6G10G15G17G18G23G26G29G30
  -3962616.33649  -3078026.20448  19890691.9094                   19890688.4254
        51.0004         40.7504
   5523409.44849   4289347.62146  23257148.9014                   23257146.4644
        40.0004         22.7504
 -10119253.87149  -7882388.39547  22011185.0034                   22011181.0934
        46.2504         33.7504
  -6802178.26649  -5285324.35548  20707446.5654                   20707442.8974
        50.7504         40.0004
 -13116493.81249 -10196363.05247  22117714.7844                   22117710.9214
        45.0004         31.2504
  -6146151.38349  -4772469.20448  20138096.9954                   20138093.4994
        50.2504         40.7504
 -10378240.20749  -8068061.34547  22095534.4334                   22095531.7104
        45.2504         30.2504
  -7469729.61749  -5803345.24047  22664576.6984                   22664572.3974
        44.5004         27.7504
   5786632.50049   4494079.38347  22727568.6594                   22727566.1634
        44.2504         29.0004
 03  1 17  2 27 29.9990000  0  9G 6G10G15G17G18G23G26G29G30
  -3984606.42649  -3095161.33248  19886507.5654                   19886503.8394
        50.7504         41.0004
   5592739.76649   4343371.34246  23270343.1444                   23270338.9014
        41.2504         25.2504
 -10217753.98449  -7959141.67147  21992440.1124                   21992437.9684
        46.5004         33.7504
  -6863633.38349  -5333211.42848  20695751.7924                   20695748.8274
        50.7504         40.0004
 -13243418.99649 -10295265.76747  22093562.1444                   22093558.0464
        47.0004         32.0004
  -6185592.35249  -4803202.40348  20130591.4484                   20130587.7764
        50.2504         41.0004
 -10470199.91849  -8139718.15847  22078035.0734                   22078032.9684
        45.0004         31.5004
  -7527817.12549  -5848608.18847  22653523.3234                   22653519.8394
        44.0004         28.5004
   5856587.32849   4548589.62947  22740880.6124                   22740877.6084
        43.5004         27.7504
 03  1 17  2 27 59.9990000  0  9G 6G10G15G17G18G23G26G29G30
  -4006159.87549  -3111956.20848  19882406.0344                   19882402.0934
        50.2504         41.0004
   5662224.87149   4397515.57046  23283566.1364                   23283562.0074
        41.7504         25.5004
 -10316092.43049  -8035768.97847  21973726.9644                   21973724.3864
        45.0004         33.2504
  -6924897.57849  -5380949.72848  20684093.8394                   20684090.6084
        51.2504         40.5004
 -13370065.95349 -10393951.63747  22069461.7694                   22069457.8274
        45.2504         31.5004
  -6224522.90649  -4833537.87248  20123183.1754                   20123179.6474
        50.2504         41.0004
 -10561710.74249  -8211025.24647  22060621.1444                   22060617.6324
        46.5004         31.0004
  -7585425.35949  -5893497.64947  22642560.8004                   22642557.7414
        45.7504         29.7504
   5926645.96149   4603180.77047  22754212.3084                   22754209.7414
        43.2504         28.5004
 03  1 17  2 28 29.9980000  0  9G 6G10G15G17G18G23G26G29G30
  -4027274.94949  -3128409.50548  19878387.8974                   19878383.9794
        50.5004         40.2504
   5731859.93449   4451776.65247  23296816.9984                   23296814.0024
        41.0004         26.7504
 -10414266.03549  -8112267.82047  21955045.4594                   21955042.3694
        46.5004         34.0004
  -6985969.93049  -5428538.55448  20672471.8034                   20672468.5254
        50.5004         40.5004
 -13496428.53549 -10492415.96747  22045415.7014                   22045412.1154
        46.5004         31.7504
  -6262942.14149  -4863474.91048  20115872.4754                   20115868.9634
        50.7504         41.0004
 -10652766.60249  -8281977.83247  22043293.8814                   22043290.3504
        44.5004         30.2504
  -7642550.84449  -5938010.98247  22631690.6004                   22631687.2294
        46.5004         29.5004
   5996803.26649   4657848.78547  22767562.7484                   22767560.2324
        43.2504         27.7504
 03  1 17  2 28 59.9980000  0  9G 6G10G15G17G18G23G26G29G30
  -4047949.20749  -3144519.29248  19874453.5614                   19874449.9864
        50.0004         40.5004
   5801650.07449   4506158.59746  23310097.1474                   23310093.2874
        39.7504         22.7504
 -10512277.94549  -8188640.67647  21936394.9514                   21936391.6864
        46.5004         33.5004
  -7046851.12549  -5475978.41048  20660886.5534                   20660883.0104
        50.2504         40.5004
 -13622510.03949 -10590661.24747  22021423.8574                   22021419.6824
        47.0004         31.7504
  -6300850.24249  -4893013.65548  20108658.7644                   20108655.1974
        50.5004         41.0004
 -10743367.46549  -8352575.83947  22026052.7874                   22026050.9364
        44.7504         31.7504
  -7699192.59849  -5982147.37147  22620911.7724                   22620908.2054
        45.5004         29.7504
   6067064.23049   4712597.58447  22780933.1314                   22780930.5804
        42.5004         28.5004
 03  1 17  2 29 29.9980000  0  9G 6G10G15G17G18G23G26G29G30
  -4068182.84049  -3160285.75448  19870603.2094                   19870599.7604
        50.0004         40.7504
   5871588.93049   4560656.45046  23323406.4284                   23323402.5684
        40.0004         22.0004
 -10610126.65249  -8264886.36747  21917774.4434                   21917771.3344
        46.0004         33.7504
  -7107540.95749  -5523269.16248  20649337.9514                   20649334.2724
        50.7504         40.5004
 -13748305.92249 -10688683.98147  21997485.1394                   21997481.2294
        46.0004         31.7504
  -6338248.20349  -4922154.89048  20101542.2564                   20101538.3854
        49.7504         41.0004
 -10833508.77749  -8422815.75247  22008899.3974                   22008895.6784
        45.5004         30.2504
  -7755348.67649  -6025905.30247  22610224.8264                   22610221.4474
        43.7504         27.0004
   6137421.92649   4767421.73347  22794322.0844                   22794319.7954
        41.2504         28.5004
 03  1 17  2 29 59.9980000  0  9G 6G10G15G17G18G23G26G29G30
  -4087982.78549  -3175714.26048  19866835.7324                   19866832.3464
        50.5004         41.0004
   5941666.32049   4615262.22547  23336741.4514                   23336738.1074
        42.2504         25.7504
 -10707819.69949  -8341010.74247  21899183.6474                   21899181.0104
        45.5004         34.0004
  -7168047.40649  -5570417.02648  20637823.5614                   20637820.3614
        50.0004         40.5004
 -13873822.11749 -10786488.75147  21973599.9984                   21973595.9824
        46.7504         31.7504
  -6375144.41849  -4950905.17748  20094520.7564                   20094517.2404
        50.0004         41.2504
 -10923195.41849  -8492701.42247  21991832.7644                   21991828.3184
        44.0004         29.2504
  -7811025.16849  -6069289.51547  22599630.5224                   22599626.7214
        44.5004         28.2504
   6207865.90249   4822313.13347  22807726.6154                   22807723.9474
        42.2504         27.0004
 03  1 17  2 30 29.9980000  0  9G 6G10G15G17G18G23G26G29G30
  -4107343.37549  -3190800.41848  19863151.2484                   19863147.9124
        50.7504         40.7504
   6011884.60949   4669977.74846  23350103.5224                   23350100.0294
        39.2504         22.7504
 -10805351.87949  -8417009.78747  21880623.8734                   21880621.1234
        46.0004         34.0004
  -7228365.99249  -5617418.48548  20626345.4364                   20626341.8734
        50.7504         40.2504
 -13999051.76249 -10884070.22147  21949769.4284                   21949765.3854
        47.2504         31.0004
  -6411534.50849  -4979261.05548  20087596.1624                   20087592.7174
        50.2504         41.0004
 -11012419.50049  -8562226.63947  21974853.7954                   21974851.7014
        43.7504         31.5004
  -7866215.82849  -6112295.18347  22589128.7254                   22589124.7134
        46.0004         29.7504
   6278397.98449   4877273.17847  22821148.6394                   22821146.1744
        41.5004         27.7504
 03  1 17  2 30 59.9980000  0  9G 6G10G15G17G18G23G26G29G30
  -4126263.19949  -3205543.12848  19859551.0764                   19859547.5574
        50.7504         41.0004
   6082241.80549   4724801.57946  23363491.4044                   23363488.4674
        38.0004         22.7504
 -10902722.45749  -8492882.92247  21862094.9674                   21862091.8504
        47.0004         33.0004
  -7288495.96149  -5664272.99248  20614902.8814                   20614899.8424
        50.5004         40.0004
 -14123991.95349 -10981426.18447  21925993.6004                   21925990.1154
        46.0004         31.2504
  -6447418.41449  -5007222.51148  20080767.6154                   20080763.8424
        50.2504         40.5004
 -11101177.07849  -8631388.32147  21957963.7254                   21957961.5614
        44.0004         31.0004
  -7920918.26249  -6154920.42247  22578718.4904                   22578715.0764
        44.5004         28.2504
   6349016.17649   4932300.31647  22834586.4594                   22834584.8734
        42.2504         26.5004
 03  1 17  2 31 29.9980000  0  9G 6G10G15G17G18G23G26G29G30
  -4144740.30149  -3219940.85148  19856034.8424                   19856031.4674
        50.2504         41.0004
   6152736.76649   4779732.70246  23376906.6234                   23376902.8974
        39.0004         25.0004
 -10999929.99249  -8568629.00347  21843597.2324                   21843593.8504
        47.5004         33.5004
  -7348436.22349  -5710979.65048  20603496.8814                   20603493.1434
        51.5004         40.5004
 -14248639.68749 -11078554.24147  21902274.4594                   21902270.5414
        45.5004         31.0004
  -6482795.49249  -5034789.03448  20074035.5764                   20074031.9674
        50.0004         41.0004
 -11189464.12949  -8700183.36347  21941163.3734                   21941158.4244
        45.0004         29.7504
  -7975129.85949  -6197163.17847  22568401.7564                   22568399.2994
        45.0004         29.0004
   6419718.84849   4987393.27647  22848040.4364                   22848038.8114
        42.5004         28.0004
 03  1 17  2 31 59.9980000  0  9G 6G10G15G17G18G23G26G29G30
  -4162773.18749  -3233992.44448  19852603.3574                   19852599.6584
        50.5004         40.5004
   6223367.64849   4834769.75046  23390347.6934                   23390343.8034
        40.7504         22.7504
 -11096973.83649  -8644247.52447  21825130.4284                   21825127.1824
        48.5004         34.5004
  -7408186.54749  -5757538.31848  20592126.4674                   20592123.2724
        50.5004         40.5004
 -14372992.27049 -11175452.30347  21878611.0294                   21878606.7644
        47.0004         31.5004
  -6517665.78949  -5061960.67348  20067399.9984                   20067396.3304
        50.0004         41.2504
 -11277276.94949  -8768608.91347  21924453.1544                   21924449.4084
        45.5004         31.2504
  -8028848.37149  -6239021.69647  22558179.8654                   22558176.5104
        46.0004         30.0004
   6490503.92249   5042550.45747  22861511.1704                   22861508.8184
        41.7504         28.7504
 03  1 17  2 32 29.9980000  0  9G 6G10G15G17G18G23G26G29G30
  -4180363.49249  -3247699.15748  19849256.0614                   19849252.3384
        50.2504         40.5004
   6294129.91449   4889909.28546  23403813.2094                   23403808.8974
        41.0004         22.5004
 -11193856.09049  -8719740.14247  21806694.0684                   21806690.4794
        48.0004         33.5004
  -7467748.80149  -5803950.43448  20580792.3034                   20580788.8264
        50.2504         40.2504
 -14497050.27049 -11272120.81747  21855003.3894                   21854998.9754
        46.7504         31.7504
  -6552032.22749  -5088739.67948  20060860.0224                   20060856.5574
        50.0004         41.0004
 -11364614.81249  -8836664.32647  21907832.9984                   21907830.8384
        45.5004         30.5004
  -8082074.45349  -6280496.54047  22548052.2404                   22548047.8424
        46.5004         30.5004
   6561366.21149   5097767.81747  22874995.6314                   22874993.3184
        42.7504         29.0004
 03  1 17  2 32 59.9980000  0  9G 6G10G15G17G18G23G26G29G30
  -4197510.82849  -3261060.71048  19845993.2254                   19845989.5294
        50.7504         40.7504
   6365020.82049   4945148.93846  23417303.0224                   23417299.2134
        43.5004         24.7504
 -11290576.93049  -8795106.98047  21788288.7644                   21788285.3144
        49.0004         34.2504
  -7527123.79349  -5850216.63148  20569493.5764                   20569490.3184
        51.0004         40.0004
 -14620811.77049 -11368558.29847  21831452.3424                   21831448.4124
        46.0004         32.5004
  -6585895.85249  -5115126.90048  20054415.8654                   20054412.1474
        50.5004         40.7504
 -11451475.18749  -8904347.67147  21891304.3034                   21891300.4244
        46.5004         31.5004
  -8134807.05949  -6321586.86947  22538017.5684                   22538013.0294
        46.0004         29.5004
   6632302.57849   5153042.88947  22888494.1544                   22888492.2404
        44.2504         27.7504
 03  1 17  2 33 29.9980000  0  9G 6G10G15G17G18G23G26G29G30
  -4214216.57449  -3274078.16648  19842813.8424                   19842810.4044
        51.7504         40.0004
   6436035.69149   5000485.19646  23430816.6314                   23430813.0294
        41.2504         22.2504
 -11387138.32049  -8870349.56247  21769913.6004                   21769910.4634
        49.0004         34.5004
  -7586313.92249  -5896338.77248  20558230.3734                   20558226.7484
        51.0004         40.5004
 -14744277.30149 -11464765.14647  21807957.0844                   21807953.3734
        47.5004         32.2504
  -6619259.39549  -5141124.42948  20048067.4674                   20048063.7524
        50.5004         41.0004
 -11537857.18449  -8971658.29747  21874866.1234                   21874862.0964
        46.5004         30.2504
  -8187046.84849  -6362293.16247  22528075.2874                   22528072.4324
        44.5004         28.2504
   6703308.26249   5208371.95847  22902006.5064                   22902004.1934
        44.7504         28.0004
 03  1 17  2 33 59.9980000  0  9G 6G10G15G17G18G23G26G29G30
  -4230475.06649  -3286747.11248  19839719.7874                   19839716.1354
        51.5004         40.0004
   6507177.01649   5055919.99346  23444354.5454                   23444350.8074
        42.5004         22.7504
 -11483535.09849  -8945463.90547  21751569.9594                   21751566.6434
        48.5004         34.2504
  -7645314.46149  -5942313.18248  20547002.3894                   20546998.9364
        51.5004         40.5004
 -14867439.82849 -11560735.87147  21784519.9044                   21784516.5024
        47.0004         33.0004
  -6652118.58649  -5166728.97048  20041814.2874                   20041810.4824
        50.2504         41.2504
 -11623752.94549  -9038590.01147  21858520.6394                   21858518.3544
        46.5004         31.5004
  -8238787.34449  -6402610.37547  22518229.8734                   22518226.9824
        45.5004         29.7504
   6774385.27349   5263756.61647  22915532.0294                   22915529.6824
        45.0004         29.0004
 03  1 17  2 34 29.9980000  0  9G 6G10G15G17G18G23G26G29G30
  -4246286.22349  -3299067.47348  19836711.5294                   19836707.5534
        51.0004         40.0004
   6578441.66849   5111450.92147  23457915.6074                   23457912.3814
        43.0004         25.7504
 -11579767.80949  -9020450.37947  21733257.5764                   21733254.0684
        49.0004         34.5004
  -7704125.89149  -5988140.23648  20535811.3264                   20535807.6784
        50.5004         40.5004
 -14990297.83649 -11656469.33547  21761141.5064                   21761137.4714
        47.5004         33.0004
  -6684474.77349  -5191941.55748  20035657.0374                   20035653.7014
        50.2504         41.5004
 -11709160.14549  -9105141.00647  21842267.9824                   21842264.4794
        45.5004         31.0004
  -8290027.73049  -6442537.92447  22508479.4124                   22508476.6664
        46.5004         31.5004
   6845530.28549   5319194.27447  22929070.8574                   22929068.3894
        45.0004         28.7504
 03  1 17  2 34 59.9980000  0  9G 6G10G15G17G18G23G26G29G30
  -4261650.09849  -3311039.32748  19833787.6234                   19833784.0964
        51.0004         41.0004
   6649826.48849   5167075.45846  23471499.2644                   23471495.6114
        42.5004         22.0004
 -11675837.03949  -9095309.47347  21714975.9284                   21714973.1194
        48.5004         34.0004
  -7762749.16449  -6033820.66448  20524655.3734                   20524652.1044
        50.5004         41.0004
 -15112850.84449 -11751965.13347  21737820.7564                   21737816.2564
        45.7504         33.0004
  -6716329.60249  -5216763.47748  20029595.2014                   20029591.6824
        49.0004         41.0004
 -11794076.83249  -9171309.81147  21826109.1704                   21826104.6274
        47.2504         30.5004
  -8340767.56249  -6482075.41447  22498824.2174                   22498820.6864
        46.5004         31.5004
   6916739.67249   5374682.10247  22942621.4044                   22942618.9004
        44.5004         28.7504
 03  1 17  2 35 29.9980000  0  9G 6G10G15G17G18G23G26G29G30
  -4276570.12949  -3322665.31648  19830948.6074                   19830944.9284
        51.5004         40.5004
   6721324.79349   5222788.43047  23485105.3974                   23485102.2404
        42.0004         26.0004
 -11771747.01649  -9170044.46547  21696724.7484                   21696721.7094
        48.5004         34.0004
  -7821188.52749  -6079357.80848  20513534.8424                   20513531.5454
        50.0004         41.0004
 -15235100.55549 -11847224.59447  21714556.6784                   21714553.1784
        46.0004         33.2504
  -6747688.07449  -5241198.63348  20023628.0844                   20023624.4864
        49.5004         41.0004
 -11878504.12549  -9237097.26347  21810043.1154                   21810040.9004
        46.5004         32.2504
  -8391009.42249  -6521224.90347  22489263.0684                   22489258.7174
        45.5004         29.5004
   6988006.47349   5430214.61447  22956182.9904                   22956180.7364
        44.7504         29.0004
 03  1 17  2 35 59.9980000  0  9G 6G10G15G17G18G23G26G29G30
  -4291041.09049  -3333941.37148  19828194.6624                   19828190.9674
        51.5004         40.5004
   6792938.85249   5278591.62346  23498732.9204                   23498729.0724
        40.2504         22.0004
 -11867492.80149  -9244651.52647  21678504.8894                   21678501.5334
        48.7504         34.2504
  -7879439.67249  -6124748.26448  20502450.1474                   20502446.4754
        50.2504         41.0004
 -15357040.71949 -11942242.84747  21691352.4204                   21691348.5144
        47.0004         33.7504
  -6778546.34449  -5265244.01448  20017755.7324                   20017752.3544
        50.0004         40.5004
 -11962434.69949  -9302497.63847  21794071.7174                   21794068.8114
        46.5004         31.0004
  -8440747.44149  -6559981.76347  22479797.8504                   22479793.1394
        44.2504         27.2504
   7059332.67649   5485793.48247  22969755.6864                   22969753.6354
        44.5004         28.0004
 03  1 17  2 36 29.9980000  0  9G 6G10G15G17G18G23G26G29G30
  -4305062.60249  -3344867.22348  19825526.8574                   19825523.3224
        51.5004         41.0004
   6864666.29749   5334483.17046  23512382.9204                   23512378.4714
        42.7504         25.2504
 -11963074.27049  -9319130.52747  21660316.0534                   21660313.3974
        48.5004         35.0004
  -7937502.51249  -6169992.00448  20491401.0374                   20491397.3464
        50.5004         40.5004
 -15478669.58649 -12037018.53647  21668207.0294                   21668203.2954
        47.0004         34.0004
  -6808905.34849  -5288900.36648  20011978.6934                   20011975.3184
        50.0004         41.0004
 -12045865.74649  -9367508.79447  21778195.0454                   21778189.8854
        47.0004         30.5004
  -8489980.55949  -6598345.21747  22470429.4674                   22470425.0254
        45.0004         29.5004
   7130715.30549   5541416.28547  22983339.7954                   22983337.4754
        44.5004         29.0004
 03  1 17  2 36 59.9980000  0  9G 6G10G15G17G18G23G26G29G30
  -4318628.09449  -3355437.72248  19822945.1474                   19822941.6474
        51.2504         40.7504
   6936510.66449   5390465.80046  23526053.6474                   23526049.8854
        40.2504         21.7504
 -12058485.55549  -9393476.93347  21642160.1704                   21642157.2484
        48.5004         35.2504
  -7995371.64149  -6215084.79548  20480388.8344                   20480385.0964
        50.5004         41.0004
 -15599979.11349 -12131545.38047  21645122.8974                   21645118.6704
        46.5004         34.0004
  -6838759.94149  -5312163.66048  20006297.4824                   20006294.1704
        49.5004         40.5004
 -12128788.61749  -9432123.97847  21762415.3184                   21762411.9084
        46.2504         30.5004
  -8538701.15649  -6636309.27547  22461158.0534                   22461155.2014
        46.0004         31.0004
   7202157.50049   5597085.52347  22996934.3894                   22996932.1234
        45.0004         28.0004
 03  1 17  2 37 29.9980000  0  9G 6G10G15G17G18G23G26G29G30
  -4331748.52349  -3365661.42048  19820448.0764                   19820444.4394
        51.5004         40.5004
   7008457.88749   5446528.62746  23539744.9124                   23539741.5804
        43.5004         25.2504
 -12153738.02049  -9467699.57947  21624034.0224                   21624031.3034
        48.5004         34.7504
  -8053058.79349  -6260035.76748  20469411.3504                   20469407.9794
        49.5004         41.0004
 -15720979.23449 -12225831.12747  21622096.6784                   21622092.8224
        47.2504         34.0004
  -6868122.48049  -5335043.53748  20000710.1544                   20000706.2994
        47.7504         41.0004
 -12211211.99649  -9496349.89347  21746730.7794                   21746728.9124
        47.2504         32.2504
  -8586919.82849  -6673882.22447  22451982.1154                   22451979.6274
        45.5004         31.2504
   7273644.96149   5652790.02847  23010538.3574                   23010535.9904
        45.2504         28.0004
 03  1 17  2 37 59.9980000  0  9G 6G10G15G17G18G23G26G29G30
  -4344419.97349  -3375535.27248  19818037.0764                   19818033.6004
        51.7504         40.7504
   7080508.97349   5502672.29646  23553455.9594                   23553451.7874
        41.7504         23.0004
 -12248828.32849  -9541795.87247  21605938.7954                   21605936.4714
        48.5004         34.7504
  -8110560.20749  -6304842.03448  20458469.1074                   20458465.3464
        50.0004         40.7504
 -15841664.56649 -12319871.58347  21599131.4204                   21599127.5494
        47.2504         34.2504
  -6896990.42249  -5357538.01248  19995216.5764                   19995212.9004
        48.7504         40.5004
 -12293129.85949  -9560181.95347  21731142.4124                   21731137.4394
        47.5004         30.7504
  -8634631.89549  -6711060.39347  22442902.4204                   22442900.4394
        44.5004         31.0004
   7345178.12949   5708530.13347  23024150.5534                   23024148.2524
        44.5004         27.5004
 03  1 17  2 38 29.9980000  0  9G 6G10G15G17G18G23G26G29G30
  -4356640.30949  -3385057.59948  19815711.6544                   19815708.0924
        51.7504         40.2504
   7152662.86749   5558896.14147  23567186.2324                   23567183.0334
        41.0004         26.0004
 -12343754.76649  -9615764.45247  21587875.2254                   21587871.6544
        48.2504         35.2504
  -8167875.12549  -6349502.98348  20447562.2794                   20447558.7994
        49.5004         40.5004
 -15962032.12149 -12413664.43347  21576226.7644                   21576221.7054
        48.0004         34.5004
  -6925363.34849  -5379646.76748  19989817.3504                   19989813.8934
        49.2504         41.0004
 -12374537.98849  -9623616.81447  21715650.8344                   21715646.4244
        47.2504         30.7504
  -8681834.60249  -6747841.68047  22433920.4514                   22433917.1934
        44.7504         30.7504
   7416755.75849   5764304.87047  23037771.4124                   23037768.8934
        44.0004         25.7504
 03  1 17  2 38 59.9980000  0  9G 6G10G15G17G18G23G26G29G30
  -4368416.83249  -3394234.10648  19813470.8114                   19813466.9864
        51.7504         41.0004
   7224909.80949   5615192.44846  23580934.9514                   23580930.5804
        40.5004         22.7504
 -12438524.84049  -9689611.19047  21569840.6314                   21569837.9714
        49.2504         34.7504
  -8225011.23049  -6394024.59048  20436689.6704                   20436685.9904
        49.0004         40.7504
 -16082087.84049 -12507214.29547  21553380.4514                   21553376.2994
        48.0004         34.5004
  -6953249.86349  -5401376.49248  19984510.4594                   19984507.1314
        49.2504         40.7504
 -12455441.27749  -9686658.27247  21700255.4754                   21700253.2524
        47.5004         32.7504
  -8728534.38349  -6784231.07347  22425033.5924                   22425029.6354
        44.5004         30.2504
   7488367.53949   5820106.25847  23051398.3034                   23051395.8264
        42.5004         26.5004
 03  1 17  2 39 29.9980000  0  9G 6G10G15G17G18G23G26G29G30
  -4379739.28949  -3403056.79148  19811316.0924                   19811312.4514
        51.2504         41.2504
   7297257.23049   5671567.08146  23594701.6624                   23594698.1274
        40.0004         23.5004
 -12533128.68749  -9763328.41947  21551838.7794                   21551835.2724
        49.0004         34.5004
  -8281958.80549  -6438399.28448  20425852.9824                   20425849.4394
        50.7504         40.2504
 -16201819.93049 -12600511.97447  21530596.0374                   21530592.0844
        47.0004         34.2504
  -6980641.00049  -5422720.21648  19979298.5144                   19979294.7364
        50.0004         41.0004
 -12535827.30149  -9749296.67347  21684958.6004                   21684955.3614
        46.7504         30.7504
  -8774720.32449  -6820220.09547  22416245.0924                   22416240.2254
        45.2504         29.2504
   7560020.45349   5875939.66446  23065033.2014                   23065030.9204
        43.0004         23.7504
 03  1 17  2 39 59.9980000  0  9G 6G10G15G17G18G23G26G29G30
  -4390609.95749  -3411527.42948  19809247.5374                   19809243.5844
        51.5004         41.2504
   7369699.83249   5728015.85746  23608487.0064                   23608483.0224
        42.0004         23.0004
 -12627569.06649  -9836918.25247  21533866.7174                   21533863.3854
        49.0004         35.2504
  -8338720.75849  -6482629.33748  20415051.4984                   20415047.8614
        51.0004         40.5004
 -16321229.53949 -12693558.37247  21507873.4904                   21507868.7324
        48.5004         34.5004
  -7007540.77349  -5443681.05948  19974179.3654                   19974175.6074
        50.5004         41.0004
 -12615696.29349  -9811532.20047  21669759.8114                   21669754.0334
        47.2504         30.2504
  -8820394.04749  -6855809.97647  22407553.5374                   22407548.6664
        44.5004         29.5004
   7631708.83649   5931800.78046  23078674.9594                   23078672.7324
        43.0004         24.5004
 03  1 17  2 40 29.9980000  0  9G 6G10G15G17G18G23G26G29G30
  -4401023.72749  -3419642.05148  19807265.7644                   19807262.2484
        51.2504         41.0004
   7442239.80549   5784540.58646  23622290.7324                   23622287.0144
        39.0004         21.5004
 -12721840.91849  -9910376.77347  21515927.1474                   21515924.6434
        48.7504         36.5004
  -8395292.48849  -6526711.18448  20404286.1704                   20404282.4714
        50.0004         40.5004
 -16440310.33649 -12786348.54447  21485212.6394                   21485208.4754
        48.0004         34.0004
  -7033945.40249  -5464256.07948  19969154.4984                   19969151.2834
        50.2504         41.0004
 -12695040.71949  -9873359.01347  21654661.3114                   21654658.2754
        47.0004         33.2504
  -8865549.93049  -6890996.35147  22398960.2484                   22398956.5024
        44.5004         29.5004
   7703434.44949   5987690.81746  23092324.1784                   23092321.9124
        42.2504         24.5004
 03  1 17  2 40 59.9980000  0  9G 6G10G15G17G18G23G26G29G30
  -4410983.41849  -3427402.82948  19805370.5684                   19805366.6744
        50.5004         41.0004
   7514871.44149   5841136.64247  23636111.7724                   23636108.4754
        42.5004         26.0004
 -12815947.84849  -9983706.78047  21498019.2954                   21498016.6544
        49.0004         34.7504
  -8451677.59449  -6570647.59048  20393556.3264                   20393552.8854
        49.2504         41.0004
 -16559063.64849 -12878883.53947  21462614.7564                   21462610.7644
        49.0004         34.7504
  -7059859.21949  -5484448.62748  19964223.4984                   19964219.7524
        48.7504         41.0004
 -12773861.60249  -9934777.79047  21639661.9204                   21639659.5964
        46.2504         31.2504
  -8910190.22349  -6925780.94347  22390465.4984                   22390462.6194
        44.5004         30.0004
   7775191.37549   6043605.28346  23105979.1934                   23105976.6114
        43.0004         22.2504
 03  1 17  2 41 29.9980000  0  9G 6G10G15G17G18G23G26G29G30
  -4420493.28149  -3434813.10948  19803560.7014                   19803556.8574
        51.0004         40.5004
   7587587.94149   5897798.85246  23649949.3814                   23649946.3384
        36.0004         20.2504
 -12909894.32049 -10056911.75247  21480141.6234                   21480138.5144
        48.7504         35.5004
  -8507880.96149  -6614442.39848  20382861.2484                   20382857.5804
        49.2504         40.5004
 -16677492.56649 -12971165.74747  21440078.3894                   21440074.3854
        48.0004         34.0004
  -7085287.87149  -5504263.14848  19959384.5454                   19959380.8034
        49.0004         41.0004
 -12852160.85249  -9995790.13647  21624762.1784                   21624757.4244
        48.0004         32.0004
  -8954318.37949  -6960166.47847  22382068.1784                   22382066.0764
        44.7504         31.2504
   7846972.16049   6099538.33546  23119638.7644                   23119636.1664
        42.5004         22.7504
 03  1 17  2 41 59.9980000  0  9G 6G10G15G17G18G23G26G29G30
  -4429549.88749  -3441870.18848  19801837.7014                   19801833.5844
        51.5004         40.5004
   7660389.87949   5954527.69146  23663803.2254                   23663799.6664
        40.0004         22.5004
 -13003677.29349 -10129989.34547  21462295.0844                   21462292.3934
        48.0004         35.7504
  -8563899.67249  -6658093.31048  20372201.1934                   20372197.3544
        49.2504         40.0004
 -16795592.49249 -13063191.61147  21417605.2484                   21417600.0644
        49.7504         34.7504
  -7110229.45349  -5523698.12148  19954638.5224                   19954634.8734
        49.5004         41.2504
 -12929933.02749 -10056391.83347  21609962.6074                   21609958.4004
        46.5004         32.7504
  -8997930.54749  -6994149.93847  22373769.1864                   22373767.5064
        46.0004         31.5004
   7918776.87949   6155490.06146  23133302.6234                   23133300.3034
        42.0004         25.0004
 03  1 17  2 42 29.9980000  0  9G 6G10G15G17G18G23G26G29G30
  -4438149.84449  -3448571.43448  19800200.6704                   19800197.2294
        51.0004         41.0004
   7733277.51649   6011323.28946  23677673.4824                   23677670.1274
        40.7504         23.7504
 -13097293.61749 -10202937.07247  21444480.9364                   21444477.5614
        48.7504         35.7504
  -8619730.55149  -6701597.87148  20361577.0144                   20361573.2484
        49.7504         40.0004
 -16913358.84049 -13154957.55647  21395194.3184                   21395190.0334
        48.0004         35.0004
  -7134682.14149  -5542752.13948  19949985.2794                   19949981.4794
        50.2504         41.2504
 -13007172.53549 -10116578.37147  21595264.1074                   21595261.5254
        46.2504         32.0004
  -9041022.41049  -7027727.96547  22365569.2174                   22365567.1504
        46.5004         31.5004
   7990605.84849   6211460.66146  23146971.1704                   23146968.5644
        42.0004         24.5004
 03  1 17  2 42 59.9980000  0  9G 6G10G15G17G18G23G26G29G30
  -4446296.34049  -3454919.34948  19798650.3424                   19798646.6544
        50.7504         40.7504
   7806245.46949   6068181.30946  23691558.5924                   23691554.8774
        38.0004         19.7504
 -13190746.83649 -10275757.69447  21426697.1154                   21426694.1824
        49.0004         35.0004
  -8675377.73849  -6744959.28848  20350987.7954                   20350983.9864
        49.0004         41.0004
 -17030793.41849 -13246464.96447  21372847.2174                   21372843.1624
        47.0004         34.5004
  -7158650.48849  -5561428.74948  19945424.5614                   19945420.7134
        50.5004         40.5004
 -13083880.30149 -10176350.61947  21580667.4364                   21580663.3734
        48.2504         32.2504
  -9083596.75449  -7060902.75647  22357467.4904                   22357464.9204
        45.2504         30.7504
   8062452.89149   6267445.33746  23160643.1934                   23160640.5254
        42.0004         22.5004
 03  1 17  2 43 29.9980000  0  9G 6G10G15G17G18G23G26G29G30
  -4453988.88749  -3460913.53448  19797186.9124                   19797183.0924
        51.0004         41.0004
   7879291.22349   6125100.17046  23705458.3184                   23705454.9474
        42.5004         22.0004
 -13284036.68049 -10348451.03847  21408945.1154                   21408941.5964
        48.5004         35.7504
  -8730841.32049  -6788177.63148  20340433.1624                   20340429.7684
        48.7504         40.2504
 -17147894.24649 -13337712.32247  21350564.2954                   21350559.5024
        47.0004         35.2504
  -7182135.71149  -5579728.89248  19940955.0614                   19940951.5184
        50.0004         41.0004
 -13160053.99249 -10235706.71847  21566171.5064                   21566167.1704
        45.5004         30.0004
  -9125652.62549  -7093673.53447  22349464.4984                   22349461.6154
        46.0004         31.0004
   8134315.02049   6323441.74846  23174318.1704                   23174315.9794
        42.5004         24.2504
 03  1 17  2 43 59.9980000  0  9G 6G10G15G17G18G23G26G29G30
  -4461223.66449  -3466551.00648  19795810.1474                   19795806.3694
        51.0004         40.7504
   7952416.14949   6182080.69646  23719374.2874                   23719370.9474
        38.5004         22.5004
 -13377159.49649 -10421014.20847  21391223.7644                   21391220.6474
        48.5004         35.2504
  -8786117.89849  -6831250.26948  20329914.5454                   20329910.8694
        50.0004         40.7504
 -17264656.37549 -13428695.73147  21328344.5764                   21328340.3114
        47.5004         35.0004
  -7205135.19949  -5597650.55048  19936578.3504                   19936574.5804
        51.0004         40.7504
 -13235687.25449 -10294641.65447  21551779.1544                   21551775.5924
        47.2504         32.2504
  -9167185.21149  -7126036.56947  22341561.2174                   22341557.7524
        45.2504         30.0004
   8206193.22349   6379450.75446  23187996.2724                   23187994.0614
        42.2504         25.5004
 03  1 17  2 44 29.9980000  0  8G 6G15G17G18G23G26G29G30
  -4468005.70349  -3471835.70748  19794519.6474                   19794515.4554
        50.7504         40.7504
 -13470120.64849 -10493451.43047  21373533.8504                   21373530.9324
        48.5004         35.0004
  -8841212.55149  -6874181.12648  20319430.3034                   20319426.7564
        50.2504         41.0004
 -17381083.14549 -13519417.84847  21306189.6314                   21306185.0064
        47.5004         35.5004
  -7227655.42249  -5615198.74748  19932292.9124                   19932288.9674
        51.0004         40.7504
 -13310783.21949 -10353157.98347  21537489.0684                   21537485.8974
        47.5004         32.5004
  -9208199.23049  -7157995.51847  22333756.3504                   22333753.1044
        46.0004         30.7504
   8278079.46149   6435465.95947  23201676.0534                   23201673.3734
        44.2504         26.2504
 03  1 17  2 44 59.9980000  0  9G 6G10G15G17G18G23G26G29G30
  -4474328.17249  -3476762.29948  19793316.3184                   19793312.6934
        51.0004         41.0004
     54717.19159   6255715.32356  23747245.9754                   23747242.5064
        42.0004         25.2504
 -13562913.41449 -10565757.42647  21355876.1394                   21355873.0374
        47.5004         35.5004
  -8896119.04349  -6916965.38248  20308981.7014                   20308978.1864
        49.7504         41.0004
 -17497166.63349 -13609872.45647  21284100.0144                   21284094.9324
        47.5004         35.7504
  -7249691.05949  -5632369.34748  19928099.4044                   19928096.1784
        50.7504         40.5004
 -13385332.75849 -10411248.47947  21523302.3034                   21523298.7094
        46.5004         32.5004
  -9248687.01249  -7189544.39347  22326051.6704                   22326047.9244
        45.2504         29.5004
   8349977.54749   6491490.43047  23215357.1474                   23215355.4794
        43.5004         27.0004
 03  1 17  2 45 29.9980000  0  9G 6G10G15G17G18G23G26G29G30
  -4480193.95749  -3481333.03348  19792200.1234                   19792196.5294
        51.0004         40.5004
    128059.84049   6312865.50846  23761202.8034                   23761199.2994
        43.0004         22.7504
 -13655540.68749 -10637934.48347  21338249.7644                   21338246.4204
        48.0004         36.0004
  -8950840.74249  -6959605.63848  20298568.6314                   20298565.0844
        50.0004         40.7504
 -17612908.65649 -13700061.01147  21262074.0614                   21262069.9474
        47.7504         35.5004
  -7271246.35549  -5649165.65948  19923997.9124                   19923994.0224
        50.7504         40.7504
 -13459336.71549 -10468913.85147  21509220.2874                   21509215.5724
        48.0004         32.5004
  -9288650.88749  -7220685.06347  22318446.9044                   22318443.3304
        46.0004         30.7504
   8421881.57449   6547519.50047  23229040.7324                   23229038.0024
        44.2504         27.0004
 03  1 17  2 45 59.9980000  0  9G 6G10G15G17G18G23G26G29G30
  -4485602.63349  -3485547.57648  19791170.8424                   19791167.6154
        51.5004         41.2504
    201470.50849   6370068.70246  23775172.5454                   23775168.4004
        39.5004         20.0004
 -13748002.35249 -10709982.45747  21320654.4514                   21320651.7564
        48.2504         35.5004
  -9005377.60949  -7002101.88448  20288190.5924                   20288187.1544
        50.5004         41.0004
 -17728306.90649 -13789981.66847  21240114.2564                   21240110.5804
        48.2504         35.0004
  -7292322.42649  -5665588.54148  19919987.2014                   19919983.4004
        50.7504         40.7504
 -13532792.55949 -10526152.16247  21495242.1314                   21495238.3224
        47.7504         33.5004
  -9328089.89149  -7251416.71347  22310941.5614                   22310938.2954
        45.2504         29.5004
   8493788.76249   6603551.03847  23242723.7874                   23242721.7404
        44.7504         27.2504
 03  1 17  2 46 29.9980000  0  9G 6G10G15G17G18G23G26G29G30
  -4490554.62549  -3489406.25848  19790228.3974                   19790224.6974
        50.7504         41.0004
    274946.22749   6427322.49846  23789153.5534                   23789150.5224
        38.2504         19.2504
 -13840299.22349 -10781902.06347  21303090.9044                   21303088.3654
        47.7504         35.7504
  -9059730.65249  -7044454.86648  20277847.3734                   20277844.1004
        51.0004         41.0004
 -17843360.78549 -13879633.98947  21218220.5374                   21218216.0574
        48.5004         34.5004
  -7312921.40249  -5681639.66448  19916067.1154                   19916063.6894
        50.5004         40.5004
 -13605698.88349 -10582962.21647  21481367.6154                   21481365.3854
        45.5004         32.2504
  -9367004.17249  -7281739.49547  22303536.6934                   22303533.0494
        45.7504         29.0004
   8565695.57449   6659582.31547  23256407.6234                   23256404.9944
        44.2504         27.5004
 03  1 17  2 46 59.9980000  0  9G 6G10G15G17G18G23G26G29G30
  -4495050.87949  -3492909.82848  19789372.9434                   19789368.9944
        50.2504         40.7504
    348483.59849   6484624.27746  23803147.8424                   23803144.1704
        39.7504         24.7504
 -13932432.56249 -10853694.23547  21285559.3114                   21285555.4794
        48.5004         36.0004
  -9113901.11749  -7086665.60648  20267539.3184                   20267535.4674
        50.7504         40.7504
 -17958070.20749 -13969017.92447  21196392.0294                   21196387.9004
        48.2504         35.0004
  -7333045.58649  -5697320.82348  19912237.7324                   19912233.8694
        50.7504         41.0004
 -13678054.47749 -10639343.15847  21467600.1154                   21467595.1934
        48.2504         33.0004
  -9405393.87949  -7311653.51947  22296230.8344                   22296227.3344
        45.2504         30.0004
   8637598.16049   6715610.26347  23270089.7724                   23270087.9714
        43.0004         27.5004
 03  1 17  2 47 29.9980000  0  9G 6G10G15G17G18G23G26G29G30
  -4499091.02049  -3496057.97048  19788604.0294                   19788600.3614
        51.0004         40.2504
    422080.19949   6541972.33546  23817152.7954                   23817149.3544
        41.0004         25.2504
 -14024401.89149 -10925358.58547  21268057.1474                   21268053.9984
        47.7504         35.0004
  -9167888.93049  -7128734.00448  20257265.6934                   20257261.8504
        50.5004         41.0004
 -18072433.14149 -14058131.84447  21174629.2724                   21174625.2604
        48.5004         35.0004
  -7352696.07449  -5712632.86148  19908498.2484                   19908494.5574
        50.5004         40.5004
 -13749856.84449 -10695293.05947  21453935.3814                   21453931.3774
        46.5004         32.5004
  -9443258.34849  -7341158.26847  22289026.0294                   22289021.8774
        46.0004         29.0004
   8709493.93449   6771632.92247  23283771.5224                   23283768.9984
        41.5004         26.2504
 03  1 17  2 47 59.9980000  0  9G 6G10G15G17G18G23G26G29G30
  -4502676.84449  -3498852.11148  19787921.4674                   19787917.7794
        49.7504         41.0004
    495732.18049   6599363.47546  23831168.5764                   23831164.8894
        43.5004         24.5004
 -14116209.12549 -10996896.65947  21250587.2014                   21250583.7724
        47.7504         36.2504
  -9221696.21549  -7170661.74248  20247026.3734                   20247022.9634
        50.2504         40.5004
 -18186449.86349 -14146976.00847  21152932.7724                   21152928.3464
        49.0004         35.0004
  -7371876.07449  -5727578.30248  19904848.3974                   19904844.3694
        50.2504         41.0004
 -13821105.59449 -10750811.48147  21440377.0064                   21440374.5064
        46.7504         32.7504
  -9480598.51649  -7370254.48847  22281920.7094                   22281915.4284
        45.2504         29.7504
   8781378.44549   6827646.79946  23297450.1234                   23297448.2874
        41.5004         25.2504
 03  1 17  2 48 29.9980000  0  9G 6G10G15G17G18G23G26G29G30
  -4505801.29749  -3501286.72648  19787327.1474                   19787323.4594
        50.7504         41.0004
    569444.19149   6656801.45446  23845195.2324                   23845191.5414
        40.5004         22.7504
 -14207847.10949 -11068302.83247  21233148.2724                   21233145.9474
        47.7504         35.5004
  -9275316.15649  -7212443.48748  20236822.5294                   20236819.2874
        50.0004         40.7504
 -18300112.05149 -14235543.89647  21131303.7954                   21131299.4124
        49.0004         35.5004
  -7390579.91449  -5742152.69348  19901289.2794                   19901285.4984
        50.5004         41.0004
 -13891791.44149 -10805891.33947  21426926.8974                   21426923.3734
        48.7504         34.2504
  -9517406.83649  -7398936.25847  22274915.7724                   22274911.0224
        45.0004         29.2504
   8853255.73849   6883655.07547  23311127.9824                   23311125.4984
        40.0004         25.7504
 03  1 17  2 48 59.9980000  0  9G 6G10G15G17G18G23G26G29G30
  -4508467.03949  -3503363.93148  19786819.9754                   19786816.1274
        50.2504         41.0004
    643210.91449   6714282.02546  23859232.3424                   23859229.1584
        40.2504         21.0004
 -14299318.48449 -11139579.18147  21215742.8114                   21215739.4364
        47.2504         35.5004
  -9328751.40649  -7254081.32148  20226654.2564                   20226650.7094
        50.5004         40.7504
 -18413420.90649 -14323836.48247  21109741.4124                   21109737.3614
        49.2504         36.2504
  -7408811.75849  -5756359.30048  19897819.5924                   19897816.0144
        50.0004         40.7504
 -13961915.16449 -10860533.16947  21413581.7484                   21413578.5144
        46.0004         32.5004
  -9553685.36749  -7427205.22347  22268012.3424                   22268007.6864
        46.2504         29.7504
   8925120.33649   6939653.41646  23324804.1544                   23324801.5534
        40.5004         23.5004
 03  1 17  2 49 29.9980000  0  9G 6G10G15G17G18G23G26G29G30
  -4510673.28549  -3505083.06948  19786399.9594                   19786396.1274
        50.7504         40.0004
    717030.78149   6771803.94646  23873280.0454                   23873276.8114
        39.0004         19.0004
 -14390622.83249 -11210725.36947  21198366.8114                   21198364.5494
        47.5004         36.0004
  -9382001.76649  -7295575.09048  20216521.1544                   20216517.6744
        50.2504         41.2504
 -18526374.39549 -14411852.13447  21088247.4594                   21088242.8774
        49.5004         36.0004
  -7426572.34849  -5770198.70448  19894440.2564                   19894436.3144
        51.2504         40.5004
 -14031474.11349 -10914734.88147  21400345.5144                   21400341.4824
        47.5004         32.0004
  -9589432.98849  -7455060.50147  22261209.8034                   22261204.4164
        45.2504         28.5004
   8996969.91449   6995640.06246  23338477.0764                   23338473.7444
        40.7504         22.5004
 03  1 17  2 49 59.9980000  0  9G 6G10G15G17G18G23G26G29G30
  -4512418.46549  -3506442.94748  19786068.0144                   19786064.0964
        50.5004         40.5004
    790903.22348   6829366.94546  23887337.6624                   23887333.9004
        35.5004         14.7504
 -14481758.45349 -11281740.09347  21181025.7094                   21181022.0804
        48.2504         36.0004
  -9435066.25049  -7336924.00248  20206423.7724                   20206419.9164
        50.5004         40.5004
 -18638969.60549 -14499588.62747  21066821.3184                   21066817.0024
        48.5004         36.0004
  -7443861.61349  -5783670.82648  19891150.0614                   19891146.5254
        50.7504         41.0004
 -14100464.33649 -10968493.49747  21387217.2404                   21387214.3854
        47.5004         33.5004
  -9624647.62549  -7482500.42347  22254508.6544                   22254503.3504
        45.5004         28.0004
   9068803.42649   7051614.20946  23352146.1624                   23352143.1274
        40.7504         22.5004
 03  1 17  2 50 29.9980000  0  9G 6G10G15G17G18G23G26G29G30
  -4513707.99249  -3507447.76148  19785822.3424                   19785818.9394
        50.5004         40.7504
    864820.35248   6886964.73046  23901403.1394                   23901399.3974
        34.0004         13.7504
 -14572730.73849 -11352627.53147  21163713.8814                   21163710.7014
        48.7504         35.7504
  -9487950.12149  -7378132.19148  20196359.8424                   20196356.4044
        50.7504         40.5004
 -18751210.62949 -14587049.12947  21045462.1234                   21045457.9554
        49.0004         36.0004
  -7460686.34849  -5796781.00048  19887948.3974                   19887944.8264
        50.7504         40.5004
 -14168889.39549 -11021811.65047  21374195.9124                   21374193.2604
        47.0004         33.0004
  -9659334.06249  -7509528.79347  22247907.5924                   22247901.5494
        45.5004         28.2504
   9140612.44949   7107569.26246  23365811.2174                   23365808.2794
        39.7504         21.2504
 03  1 17  2 50 59.9980000  0  9G 6G10G15G17G18G23G26G29G30
  -4514542.70349  -3508098.18948  19785663.7014                   19785659.8114
        51.2504         40.2504
                                  23915477.982
        31.000
 -14663540.66449 -11423388.46647  21146433.4514                   21146429.7054
        48.5004         35.5004
  -9540654.40649  -7419200.44148  20186330.6934                   20186326.9084
        49.5004         41.0004
 -18863096.94549 -14674233.22347  21024171.1544                   21024166.6664
        48.5004         36.0004
  -7477049.07449  -5809531.15748  19884834.6704                   19884830.7794
        51.0004         40.0004
 -14236748.16049 -11074688.56947  21361282.9674                   21361277.8184
        46.7504         31.7504
  -9693492.63749  -7536145.82247  22241407.5684                   22241401.0884
        45.5004         27.5004
   9212393.51649   7163502.54546  23379470.2254                   23379467.5414
        40.2504         21.0004
 03  1 17  2 51 29.9980000  0  9G 6G10G15G17G18G23G26G29G30
  -4514923.48049  -3508394.88348  19785591.1394                   19785587.4554
        50.2504         40.2504
   1012776.23018                  23929557.951
        29.500
 -14754189.17249 -11494023.62447  21129183.3574                   21129180.3074
        49.2504         35.7504
  -9593180.00449  -7460129.45648  20176335.3264                   20176331.7214
        49.0004         40.5004
 -18974627.82449 -14761140.36947  21002947.7564                   21002943.0024
        47.2504         35.7504
  -7492951.85949  -5821922.92048  19881808.2954                   19881804.4824
        51.0004         40.5004
 -14304039.29349 -11127123.20847  21348478.0614                   21348474.6354
        47.7504         34.2504
  -9727123.77349  -7562351.91347  22235008.0534                   22235000.7644
        45.5004         26.7504
   9284143.07449   7219411.22246  23393123.8114                   23393121.4904
        41.2504         21.0004
 03  1 17  2 51 59.9980000  0  9G 6G10G15G17G18G23G26G29G30
  -4514839.62549  -3508329.53648  19785607.1004                   19785603.3424
        50.2504         40.0004
                                  23943649.217
        28.000
 -14844665.31649 -11564524.46247  21111966.2874                   21111963.1044
        48.5004         36.5004
  -9645516.28949  -7500910.93848  20166375.9984                   20166372.3304
        49.2504         40.7504
 -19085791.10249 -14847761.04647  20981793.6004                   20981789.6154
        48.2504         36.5004
  -7508385.31649  -5833948.97148  19878871.4514                   19878868.1744
        51.5004         41.0004
 -14370750.02749 -11179105.54747  21335782.8574                   21335781.8074
        46.0004         33.2504
  -9760216.05149  -7588138.04947  22228710.2014                   22228703.7604
        44.2504         27.0004
   9355868.98849   7275301.48646  23406772.5534                   23406770.4714
        41.5004         21.0004
 03  1 17  2 52 29.9970000  0  8G 6G15G17G18G23G26G29G30
  -4514295.39549  -3507905.45048  19785710.5094                   19785706.8844
        49.5004         40.7504
 -14934970.45349 -11634892.04247  21094782.7354                   21094778.1734
        48.0004         36.2504
  -9697665.96149  -7541547.02748  20156452.1654                   20156448.6694
        48.5004         41.0004
 -19196586.17249 -14934094.83547  20960710.5244                   20960705.5954
        47.5004         36.5004
  -7523354.78549  -5845613.47348  19876022.8454                   19876019.1534
        51.2504         40.5004
 -14436880.60949 -11230635.78647  21323198.7744                   21323194.8374
        47.2504         33.0004
  -9792772.33649  -7613506.57747  22222514.9384                   22222508.5754
        43.7504         27.0004
   9427561.96549   7331166.15646  23420415.7434                   23420412.4664
        42.5004         21.0004
 03  1 17  2 52 59.9970000  0  8G 6G15G17G18G23G26G29G30
  -4513293.21149  -3507124.52548  19785901.4234                   19785897.4744
        49.0004         40.5004
 -15025112.92249 -11705132.88747  21077627.6814                   21077624.7984
        47.0004         37.0004
  -9749635.33649  -7582042.62048  20146562.6574                   20146559.4504
        50.7504         40.7504
 -19307021.32049 -15020148.15547  20939695.1964                   20939690.4814
        49.2504         36.2504
  -7537865.29749  -5856920.34748  19873261.8294                   19873257.8804
        51.0004         40.5004
 -14502435.84049 -11281717.78647  21310724.7124                   21310718.9584
        49.0004         32.7504
  -9824796.92649  -7638460.79947  22216420.5324                   22216414.3254
        43.7504         27.5004
   9499221.34849   7387004.59246  23434052.1884                   23434048.8844
        42.2504         22.0004
 03  1 17  2 53 29.9970000  0  9G 2G 6G15G17G18G23G26G29G30
   -112201.16859    -81269.26656  24464288.2204                   24464286.0244
        41.5004         22.5004
  -4511830.00049  -3505984.34648  19786179.7434                   19786176.0994
        49.7504         40.0004
 -15115086.48849 -11775242.09647  21060506.8454                   21060503.3884
        47.0004         37.0004
  -9801419.79349  -7622394.11548  20136708.3214                   20136704.7474
        49.5004         41.2504
 -19417088.44549 -15105914.70047  20918750.1424                   20918745.3334
        48.5004         36.2504
  -7551914.62949  -5867867.86548  19870588.0014                   19870584.2824
        51.0004         40.5004
 -14567408.32049 -11332345.65147  21298360.2434                   21298358.4194
        45.0004         33.5004
  -9856285.09449  -7662996.98747  22210429.0874                   22210422.7284
        43.0004         27.2504
   9570845.35549   7442815.51446  23447681.4234                   23447678.9234
        42.0004         22.7504
 03  1 17  2 53 59.9970000  0  9G 2G 6G15G17G18G23G26G29G30
   -204182.71549   -152943.14046  24446784.6184                   24446782.2554
        42.0004         22.0004
  -4509911.30149  -3504489.24848  19786545.2124                   19786541.4034
        50.5004         40.5004
 -15204896.57049 -11845223.93547  21043415.6104                   21043413.3214
        47.0004         36.2504
  -9853024.88349  -7662605.84048  20126888.4704                   20126884.5914
        50.7504         41.0004
 -19526791.84849 -15191397.81747  20897873.8924                   20897869.3374
        49.0004         36.5004
  -7565509.92649  -5878461.59348  19868001.0174                   19867997.0564
        50.7504         40.5004
 -14631801.89549 -11382522.36047  21286106.6884                   21286104.5444
        48.2504         34.2504
  -9887241.99249  -7687119.25047  22204538.0244                   22204531.3494
        42.5004         27.0004
   9642425.69949   7498592.37646  23461302.9314                   23461299.9314
        43.0004         22.5004
 03  1 17  2 54 29.9970000  0  9G 2G 6G15G17G18G23G26G29G30
   -295804.62549   -224336.77146  24429349.2354                   24429346.7164
        41.7504         22.7504
  -4507536.80149  -3502638.98048  19786996.5484                   19786992.9664
        51.0004         40.5004
 -15294542.75849 -11915078.05247  21026357.8924                   21026353.9464
        48.0004         37.2504
  -9904450.37949  -7702677.62548  20117102.3374                   20117098.7864
        50.7504         41.0004
 -19636129.85249 -15276596.21347  20877067.1494                   20877063.0754
        49.0004         36.7504
  -7578652.31649  -5888702.39848  19865500.3994                   19865496.2514
        51.5004         40.5004
 -14695614.25049 -11432246.26547  21273964.1184                   21273958.2044
        48.5004         33.0004
  -9917666.84449  -7710826.88347  22198748.2044                   22198742.7594
        44.2504         27.0004
   9713960.03549   7554333.43046  23474915.3214                   23474912.4934
        43.0004         23.7504
 03  1 17  2 54 59.9970000  0  9G 2G 6G15G17G18G23G26G29G30
   -387061.28149   -295445.73946  24411983.8534                   24411981.4624
        38.7504         22.0004
  -4504702.42249  -3500430.37748  19787536.2354                   19787532.5244
        51.0004         40.5004
 -15384020.79749 -11984801.14847  21009329.7354                   21009326.9034
        48.7504         37.0004
  -9955692.11349  -7742606.22548  20107351.1884                   20107347.8414
        51.0004         41.2504
 -19745096.63349 -15361505.34847  20856331.9704                   20856327.1064
        49.0004         36.2504
  -7591338.99249  -5898588.10848  19863086.0324                   19863082.5714
        51.5004         40.7504
 -14758839.16049 -11481512.41847  21261931.6654                   21261928.1854
        46.2504         32.7504
  -9947554.97349  -7734116.34847  22193060.6964                   22193055.7434
        43.7504         27.7504
   9785449.89849   7610039.79846  23488519.7514                   23488516.9744
        43.0004         23.0004
 03  1 17  2 55 29.9970000  0  9G 2G 6G15G17G18G23G26G29G30
   -477950.59849   -366268.51346  24394688.0324                   24394685.5054
        42.0004         21.7504
  -4501407.60549  -3497862.97348  19788163.3454                   19788159.3174
        51.5004         41.2504
 -15473329.87949 -12054392.59347  20992334.6964                   20992331.4894
        50.0004         37.0004
 -10006749.42249  -7782391.11048  20097635.4854                   20097631.7314
        51.2504         41.0004
 -19853690.28549 -15446123.73947  20835667.4314                   20835662.5524
        49.7504         36.7504
  -7603571.00449  -5908119.53548  19860758.3994                   19860754.5994
        50.2504         40.2504
 -14821474.12149 -11530318.81347  21250013.5014                   21250011.3804
        47.0004         34.2504
  -9976905.46149  -7756986.81947  22187475.2514                   22187470.4424
        44.0004         28.5004
   9856893.37949   7665710.01346  23502115.1344                   23502112.0834
        42.2504         24.7504
 03  1 17  2 55 59.9970000  0  9G 2G 6G15G17G18G23G26G29G30
   -568470.89849   -436803.75746  24377462.6184                   24377459.7004
        42.0004         20.0004
  -4497652.18749  -3494936.68148  19788877.8064                   19788874.2864
        51.5004         40.2504
 -15562469.67649 -12123852.13047  20975372.9934                   20975369.1424
        49.5004         37.0004
 -10057622.22349  -7822032.22648  20087954.7514                   20087951.1574
        51.0004         41.5004
 -19961909.30549 -15530450.20747  20815073.6264                   20815069.6694
        49.2504         37.0004
  -7615349.44549  -5917297.51748  19858516.8454                   19858512.7554
        51.0004         40.7504
 -14883517.07449 -11578663.92647  21238206.6034                   21238203.5444
        47.0004         33.5004
 -10005717.72349  -7779437.93247  22181992.8214                   22181988.0364
        43.7504         29.0004
   9928288.00049   7721342.17446  23515700.3214                   23515697.6574
        42.0004         24.7504
 03  1 17  2 56 29.9970000  0  9G 2G 6G15G17G18G23G26G29G30
   -658623.16849   -507052.22646  24360307.3064                   24360304.2944
        41.5004         20.0004
  -4493438.78949  -3491653.50148  19789679.5174                   19789675.8294
        51.0004         41.0004
 -15651442.92649 -12193181.88547  20958441.2354                   20958437.8884
        49.0004         37.7504
 -10108313.18049  -7861531.64748  20078308.8294                   20078305.0324
        50.7504         40.7504
 -20069754.99249 -15614485.74947  20794550.3604                   20794546.6924
        49.0004         36.2504
  -7626678.56649  -5926125.38848  19856360.9544                   19856357.1464
        50.7504         40.7504
 -14944968.81649 -11626548.37647  21226512.8294                   21226507.3374
        46.5004         32.0004
 -10033994.00849  -7801471.36047  22176612.4464                   22176607.5564
        43.7504         29.5004
   9999628.51249   7776932.15646  23529276.0634                   23529273.6884
        41.2504         25.5004
 03  1 17  2 56 59.9970000  0  9G 2G 6G15G17G18G23G26G29G30
   -748406.01249   -577012.87446  24343222.5954                   24343219.5444
        41.2504         20.5004
  -4488767.59049  -3488013.59948  19790568.3844                   19790564.7004
        50.0004         40.7504
 -15740249.61349 -12262381.84947  20941542.0564                   20941538.6574
        47.2504         37.0004
 -10158822.27749  -7900889.35848  20068697.1264                   20068693.4784
        51.5004         41.0004
 -20177225.78549 -15698229.18047  20774100.9704                   20774095.7714
        49.7504         37.2504
  -7637559.94149  -5934604.36848  19854290.3684                   19854286.2394
        50.7504         40.7504
 -15005827.60949 -11673970.79047  21214931.7434                   21214928.2634
        44.7504         33.7504
 -10061733.89149  -7823086.84047  22171333.7434                   22171329.2784
        43.0004         28.2504
  10070912.32449   7832477.94946  23542841.6344                   23542838.6694
        40.5004         25.2504
 03  1 17  2 57 29.9970000  0  9G 2G 6G15G17G18G23G26G29G30
   -837819.95349   -646685.99546  24326207.4314                   24326204.0914
        41.5004         19.7504
  -4483640.90649  -3484018.78048  19791544.1034                   19791540.3134
        50.5004         40.5004
 -15828891.55549 -12331453.45147  20924674.2744                   20924670.3494
        48.0004         37.2504
 -10209151.62549  -7940107.01148  20059119.6494                   20059116.0134
        51.0004         41.2504
 -20284322.78149 -15781681.35447  20753719.8994                   20753715.9784
        49.5004         37.2504
  -7647997.19549  -5942737.27448  19852304.1964                   19852300.3104
        51.0004         40.2504
 -15066093.61749 -11720931.26747  21203463.4544                   21203461.2394
        46.7504         34.7504
 -10088939.40249  -7844285.92347  22166156.8924                   22166152.8174
        44.5004         30.0004
  10142134.63349   7887975.82146  23556394.6034                   23556391.2944
        41.2504         25.5004
 03  1 17  2 57 59.9970000  0  9G 2G 6G15G17G18G23G26G29G30
   -926863.80549   -716070.71746  24309262.4934                   24309259.2554
        41.7504         20.2504
  -4478058.81249  -3479669.09748  19792606.3994                   19792602.4314
        50.5004         40.7504
 -15917368.65249 -12400396.58947  20907836.7594                   20907833.6964
        47.5004         37.2504
 -10259301.57049  -7979184.86448  20049576.5714                   20049572.2514
        51.0004         40.7504
 -20391044.49249 -15864841.07047  20733412.1494                   20733407.2824
        50.0004         37.2504
  -7657992.01249  -5950525.42848  19850402.0634                   19850398.2904
        50.5004         40.7504
 -15125765.35249 -11767428.69247  21192108.0714                   21192104.7744
        44.5004         34.0004
 -10115610.31249  -7865068.43147  22161081.1034                   22161077.8604
        43.5004         29.5004
  10213292.65649   7943423.63546  23569934.7824                   23569932.6034
        40.5004         25.5004
 03  1 17  2 58 29.9970000  0  9G 2G 6G15G17G18G23G26G29G30
  -1015529.04749   -785160.43246  24292389.8684                   24292387.1694
        40.5004         20.2504
  -4472014.63749  -3474959.33848  19793756.3994                   19793752.9894
        50.5004         40.5004
 -16005673.94149 -12469205.85547  20891033.0014                   20891029.6344
        48.5004         36.5004
 -10309265.21149  -8018117.54948  20040068.5094                   20040064.6424
        50.7504         41.2504
 -20497382.95349 -15947702.16147  20713176.0874                   20713171.8334
        49.5004         37.7504
  -7667539.05149  -5957964.64648  19848585.4074                   19848581.5364
        50.7504         40.2504
 -15184834.11349 -11813456.27047  21180867.8454                   21180862.7984
        47.0004         34.0004
 -10141739.55949  -7885428.85247  22156108.8134                   22156105.5324
        45.2504         30.5004
  10284390.87549   7998824.73246  23583463.9854                   23583462.5174
        39.7504         22.7504
 03  1 17  2 58 59.9970000  0  9G 2G 6G15G17G18G23G26G29G30
  -1103814.41049   -853954.15146  24275589.7744                   24275586.9314
        39.2504         19.7504
  -4465508.53149  -3469889.63948  19794994.4074                   19794990.6534
        51.5004         40.7504
 -16093807.06649 -12537880.97947  20874261.9624                   20874258.5484
        49.2504         36.5004
 -10359042.71149  -8056905.18148  20030596.2674                   20030592.1384
        51.0004         41.0004
 -20603337.05149 -16030263.75947  20693014.2124                   20693009.0324
        50.0004         37.5004
  -7676639.96149  -5965056.24648  19846853.6654                   19846849.7244
        51.0004         39.7504
 -15243298.11349 -11859012.62847  21169742.2824                   21169738.2044
        47.0004         32.7504
 -10167326.93749  -7905367.06247  22151239.5174                   22151236.5444
        45.0004         29.2504
  10355426.48449   8054177.11546  23596981.8994                   23596979.7714
        38.5004         23.2504
 03  1 17  2 59 29.9970000  0  9G 2G 6G15G17G18G23G26G29G30
  -1191721.99649   -922453.50646  24258861.9854                   24258858.6654
        40.2504         21.0004
  -4458544.38749  -3464463.02848  19796319.9314                   19796315.9464
        51.2504         40.5004
 -16181771.69149 -12606424.80147  20857522.7824                   20857519.3414
        49.5004         36.5004
 -10408637.60249  -8095550.53448  20021158.3604                   20021154.5134
        50.5004         41.0004
 -20708908.99649 -16112527.55647  20672923.7904                   20672919.5284
        50.2504         37.5004
  -7685299.79749  -5971804.15248  19845205.5174                   19845201.6494
        50.5004         40.2504
 -15301159.30149 -11904099.22947  21158732.1104                   21158729.5994
        47.0004         34.0004
 -10192375.60249  -7924885.49247  22146472.9314                   22146469.7594
        45.0004         28.5004
  10426393.54749   8109476.11646  23610487.6654                   23610485.2354
        40.0004         22.7504
 03  1 17  2 59 59.9970000  0  9G 2G 6G15G17G18G23G26G29G30
  -1279248.76649   -990656.10846  24242205.5794                   24242202.7084
        40.5004         21.7504
  -4451120.50849  -3458678.17848  19797732.2434                   19797728.9464
        51.0004         40.7504
 -16269565.94149 -12674835.85947  20840816.5954                   20840812.9154
        48.7504         37.2504
 -10458047.78949  -8134051.96248  20011756.0714                   20011752.0794
        50.5004         40.7504
 -20814095.44549 -16194490.98647  20652907.5634                   20652903.3024
        49.5004         37.5004
  -7693518.50849  -5978208.31848  19843641.9544                   19843637.7944
        51.2504         41.0004
 -15358414.05149 -11948713.30447  21147836.4314                   21147834.1494
        45.2504         34.5004
 -10216883.71149  -7943982.71947  22141809.0014                   22141805.5634
        43.0004         29.5004
  10497291.21949   8164721.00046  23623978.5094                   23623976.6884
        39.0004         22.7504
 03  1 17  3  0 29.9970000  0  9G 2G 6G15G17G18G23G26G29G30
  -1366394.18449  -1058561.55046  24225622.5014                   24225619.5604
        40.0004         21.0004
  -4443238.16449  -3452536.08448  19799232.4624                   19799228.6064
        51.2504         40.5004
 -16357190.58649 -12743114.75947  20824141.9384                   20824138.0054
        48.7504         36.7504
 -10507274.81649  -8172410.67248  20002388.6264                   20002384.6734
        51.2504         40.5004
 -20918896.14849 -16276153.83147  20632965.1814                   20632960.0284
        50.2504         37.2504
  -7701298.48849  -5984270.62548  19842161.0874                   19842157.0134
        51.2504         40.0004
 -15415062.02749 -11992854.53647  21137057.1184                   21137052.1964
        46.0004         33.0004
 -10240852.09449  -7962659.35647  22137248.0244                   22137243.9784
        42.5004         28.0004
  10568115.93049   8219909.01846  23637456.7204                   23637453.8334
        38.0004         22.7504
 03  1 17  3  0 59.9970000  0  9G 2G 6G15G17G18G23G26G29G30
  -1453155.30149  -1126167.57146  24209112.0874                   24209109.0874
        40.7504         20.7504
  -4434896.04749  -3446035.73848  19800819.6734                   19800815.8924
        51.0004         40.5004
 -16444643.95749 -12811260.20647  20807500.2434                   20807496.1884
        48.5004         37.0004
 -10556317.12949  -8210625.44048  19993056.0404                   19993052.2164
        50.7504         41.0004
 -21023308.61349 -16357514.15147  20613095.8454                   20613091.2714
        50.5004         38.2504
  -7708639.94549  -5989991.20848  19840763.9384                   19840759.9314
        51.0004         40.5004
 -15471099.90249 -12036520.42447  21126393.3214                   21126388.7004
        46.2504         33.5004
 -10264279.18049  -7980914.21747  22132789.9784                   22132785.5444
        42.5004         27.5004
  10638866.62549   8275039.37746  23650919.5484                   23650916.4934
        36.5004         21.2504
 03  1 17  3  1 29.9970000  0  9G 2G 6G15G17G18G23G26G29G30
  -1539534.44149  -1193475.85446  24192674.0634                   24192671.4274
        39.2504         21.7504
  -4426098.12949  -3439180.21048  19802493.9074                   19802490.2514
        50.0004         40.5004
 -16531929.57449 -12879274.91947  20790889.9624                   20790886.5404
        49.0004         36.7504
 -10605178.25849  -8248699.02148  19983758.2044                   19983754.5174
        50.2504         41.5004
 -21127335.21549 -16438573.79247  20593299.9624                   20593295.8684
        50.0004         38.0004
  -7715548.10549  -5995374.17048  19839449.2824                   19839445.6814
        51.0004         39.7504
 -15526529.82449 -12079712.54447  21115845.3064                   21115842.7554
        46.0004         34.0004
 -10287168.39549  -7998749.93947  22128434.6104                   22128428.6184
        43.0004         27.7504
  10709537.13748   8330107.26046  23664367.6574                   23664365.0174
        35.7504         20.5004
 03  1 17  3  1 59.9970000  0  9G 2G 6G15G17G18G23G26G29G30
  -1625535.19549  -1260489.41346  24176309.8214                   24176306.1574
        41.0004         22.0004
  -4416849.44149  -3431973.45148  19804254.4154                   19804250.2164
        49.0004         40.5004
 -16619052.14549 -12947162.59047  20774311.0324                   20774307.4074
        49.7504         37.0004
 -10653862.72749  -8286634.95748  19974493.7984                   19974490.0244
        50.2504         40.5004
 -21230979.54749 -16519335.56947  20573577.1104                   20573572.5214
        49.5004         38.7504
  -7722029.44549  -6000424.54948  19838216.1344                   19838212.1574
        50.5004         40.0004
 -15581355.16049 -12122433.53547  21105412.2594                   21105409.8604
        47.2504         34.2504
 -10309524.50049  -8016170.26347  22124180.7674                   22124174.5484
        41.5004         28.5004
  10780120.04748   8385106.85746  23677798.8534                   23677796.5364
        35.0004         21.5004
 03  1 17  3  2 29.9970000  0  9G 2G 6G15G17G18G23G26G29G30
  -1711150.55949  -1327202.61146  24160017.8134                   24160014.3764
        42.5004         22.2504
  -4407144.83249  -3424411.40648  19806100.8294                   19806096.6964
        49.7504         40.0004
 -16706006.11749 -13014918.89147  20757764.1574                   20757760.4974
        50.2504         36.5004
 -10702365.28149  -8324429.13148  19965263.7044                   19965260.2634
        50.2504         41.0004
 -21334235.01249 -16599794.32947  20553928.3684                   20553924.0404
        50.0004         39.0004
  -7728080.39549  -6005139.56248  19837064.7674                   19837060.6814
        51.2504         39.7504
 -15635568.91449 -12164678.00547  21095095.7124                   21095091.1464
        46.7504         33.2504
 -10331342.24649  -8033171.05847  22120028.5794                   22120023.4584
        44.5004         29.0004
  10850618.09049   8440040.35746  23691214.6264                   23691212.3804
        37.7504         21.7504
 03  1 17  3  2 59.9970000  0  9G 2G 6G15G17G18G23G26G29G30
  -1796378.35549  -1393613.79246  24143798.4854                   24143795.7474
        40.2504         21.7504
  -4396983.59049  -3416493.55148  19808034.5564                   19808030.4504
        48.0004         39.5004
 -16792790.28549 -13082542.87747  20741249.7824                   20741246.2164
        49.2504         37.5004
 -10750685.23449  -8362081.03148  19956068.8294                   19956065.0284
        49.0004         41.0004
 -21437099.62949 -16679948.53747  20534353.5404                   20534349.2864
        49.7504         38.0004
  -7733701.58649  -6009519.70348  19835994.9074                   19835990.9784
        50.7504         39.7504
 -15689168.66449 -12206444.02847  21084895.5954                   21084890.9464
        45.7504         32.7504
 -10352620.39849  -8049751.43547  22115980.0014                   22115975.4274
        45.0004         30.5004
  10921029.86349   8494906.66046  23704613.7204                   23704610.4384
        37.0004         20.5004
 03  1 17  3  3 29.9970000  0  9G 2G 6G15G17G18G23G26G29G30
  -1881213.37549  -1459718.97346  24127655.2204                   24127652.1184
        40.2504         23.2504
  -4386362.22749  -3408217.17048  19810055.3994                   19810051.8214
        48.2504         39.7504
 -16879400.62949 -13150031.41447  20724768.2674                   20724764.5484
        49.5004         37.2504
 -10798818.58649  -8399587.53348  19946909.6654                   19946905.6574
        48.7504         40.2504
 -21539568.10249 -16759794.06147  20514854.3134                   20514849.8174
        49.7504         37.7504
  -7738890.79349  -6013563.22948  19835007.4624                   19835003.8454
        50.5004         40.2504
 -15742148.94149 -12247727.35347  21074814.3844                   21074811.2714
        48.0004         34.7504
 -10373355.19149  -8065908.38747  22112034.0954                   22112030.4744
        44.0004         30.0004
  10991356.72349   8549706.71746  23717996.1654                   23717994.2744
        39.5004         20.5004
 03  1 17  3  3 59.9970000  0  9G 2G 6G15G17G18G23G26G29G30
  -1965661.28949  -1525522.46346  24111585.1964                   24111582.2354
        41.5004         21.5004
  -4375287.99649  -3399587.89948  19812162.7674                   19812159.2124
        49.0004         40.0004
 -16965844.03549 -13217389.88047  20708318.8134                   20708315.2594
        50.5004         37.5004
 -10846771.96549  -8436953.78148  19937784.2284                   19937780.6064
        49.0004         41.5004
 -21641646.26249 -16839335.43747  20495429.8844                   20495425.3604
        50.2504         38.2504
  -7743656.61749  -6017276.85048  19834100.4854                   19834096.7354
        51.0004         40.0004
 -15794515.23449 -12288532.24847  21064849.5954                   21064847.6064
        45.5004         35.0004
 -10393553.49249  -8081647.32147  22108190.1734                   22108187.7474
        43.2504         30.5004
  11061589.19549   8604433.25446  23731361.2674                   23731359.0054
        40.5004         21.7504
 03  1 17  3  4 29.9970000  0  9G 2G 6G15G17G18G23G26G29G30
  -2049718.96149  -1591021.89546  24095589.7674                   24095586.7474
        40.7504         22.0004
  -4363759.45749  -3390604.60848  19814356.5634                   19814352.8214
        49.7504         39.5004
 -17052118.63749 -13284616.80047  20691901.3294                   20691897.3964
        50.0004         38.0004
 -10894543.74249  -8474178.53048  19928693.7904                   19928689.7394
        49.7504         40.7504
 -21743331.25849 -16918570.46547  20476079.7284                   20476075.2634
        50.2504         38.2504
  -7747999.13349  -6020660.61748  19833274.2514                   19833270.2244
        50.5004         40.0004
 -15846264.60549 -12328856.37447  21055001.4624                   21054998.6304
        44.5004         32.5004
 -10413213.52349  -8096966.82347  22104448.8064                   22104446.2314
        43.5004         30.5004
  11131726.58249   8659085.79346  23744707.9934                   23744705.8134
        42.0004         21.0004
 03  1 17  3  4 59.9970000  0  9G 2G 6G15G17G18G23G26G29G30
  -2133385.36749  -1656216.42946  24079668.9234                   24079665.6034
        42.0004         22.5004
  -4351777.29349  -3381267.85848  19816636.6734                   19816632.7634
        49.7504         40.0004
 -17138224.43449 -13351712.18547  20675515.4464                   20675512.0604
        50.2504         37.5004
 -10942134.16049  -8511261.96248  19919637.1184                   19919633.3684
        49.5004         41.0004
 -21844622.25849 -16997498.48047  20456804.9314                   20456800.0214
        50.5004         38.7504
  -7751920.15249  -6023715.94948  19832527.8844                   19832524.3494
        50.5004         40.5004
 -15897395.74649 -12368698.78547  21045271.8294                   21045265.9354
        45.7504         32.5004
 -10432335.66449  -8111867.20647  22100810.0954                   22100807.3064
        42.5004         30.2504
  11201766.14149   8713662.06146  23758036.0174                   23758033.3334
        42.0004         20.0004
 03  1 17  3  5 29.9970000  0  8G 2G 6G15G17G18G23G26G29
  -2216652.37149  -1721099.75646  24063822.5174                   24063819.7824
        39.7504         22.0004
  -4339334.96149  -3371572.52948  19819004.6034                   19819000.9464
        50.0004         40.2504
 -17224154.37949 -13418670.53947  20659163.6814                   20659160.0284
        50.2504         37.5004
 -10989536.58249  -8548198.90348  19910616.8374                   19910612.9704
        50.5004         40.5004
 -21945511.28949 -17076113.26147  20437606.2124                   20437601.7674
        50.0004         39.0004
  -7755414.48849  -6026438.79248  19831863.0324                   19831859.5364
        50.7504         40.0004
 -15947900.41049 -12408053.07447  21035661.5244                   21035656.3884
        45.7504         33.2504
 -10450913.09449  -8126343.10747  22097275.4154                   22097271.6464
        40.7504         30.7504
 03  1 17  3  5 59.9970000  0  8G 2G 6G15G17G18G23G26G29
  -2299525.57449  -1785676.16246  24048052.6884                   24048049.8884
        41.7504         22.0004
  -4326439.79749  -3361524.36348  19821458.3534                   19821454.7634
        50.7504         40.5004
 -17309915.37549 -13485497.24647  20642843.8064                   20642840.2204
        50.5004         37.5004
 -11036757.51649  -8584994.42048  19901631.1184                   19901627.1304
        50.0004         41.0004
 -22046004.08649 -17154419.31347  20418482.8374                   20418478.2944
        50.7504         38.2504
  -7758490.91849  -6028835.99948  19831277.6264                   19831273.8644
        50.7504         40.0004
 -15997784.25849 -12446923.59747  21026168.4544                   21026166.4234
        45.2504         34.5004
 -10468953.03549  -8140400.18847  22093842.5484                   22093837.9974
        44.0004         29.2504
 03  1 17  3  6 29.9970000  0  8G 2G 6G15G17G18G23G26G29
  -2381995.10249  -1849938.13346  24032360.2044                   24032356.3214
        43.0004         21.5004
  -4313083.42249  -3351116.79148  19824000.1494                   19823996.4194
        48.7504         40.0004
 -17395498.29349 -13552185.20247  20626558.1654                   20626554.2944
        50.5004         37.5004
 -11083788.50449  -8621641.94448  19892681.5874                   19892677.4544
        48.0004         41.0004
 -22146090.69549 -17232408.83547  20399437.3134                   20399432.3254
        50.2504         38.0004
  -7761142.25449  -6030901.97448  19830773.0954                   19830769.1344
        50.5004         40.0004
 -16047037.26649 -12485302.49747  21016795.3994                   21016794.0174
        41.5004         33.7504
 -10486446.53149  -8154031.46347  22090514.4854                   22090508.7164
        43.7504         30.0004
 03  1 17  3  6 59.9970000  0  8G 2G 6G15G17G18G23G26G29
  -2464060.98849  -1913885.52046  24016742.4074                   24016740.2314
        39.2504         22.0004
  -4299267.39549  -3340351.05948  19826629.2514                   19826625.3104
        48.5004         40.2504
 -17480904.04749 -13618735.11247  20610306.0564                   20610301.9314
        50.7504         37.5004
 -11130630.41449  -8658142.11948  19883767.6654                   19883763.6534
        48.5004         40.7504
 -22245771.34849 -17310082.04048  20380468.4624                   20380464.1304
        50.7504         39.5004
  -7763371.55549  -6032639.07248  19830348.8604                   19830344.9194
        51.0004         40.2504
 -16095659.27049 -12523189.73047  21007543.6184                   21007540.3564
        46.5004         34.7504
 -10503395.14849  -8167238.14247  22087288.7204                   22087284.1924
        44.2504         31.7504
 03  1 17  3  7 29.9970000  0  8G 2G 6G15G17G18G23G26G29
  -2545718.53549  -1977514.69346  24001204.1964                   24001200.8414
        39.7504         22.0004
  -4284988.75849  -3329224.85248  19829346.2124                   19829342.5714
        47.7504         39.7504
 -17566128.99249 -13685144.11947  20594088.2354                   20594084.6734
        50.5004         37.7504
 -11177279.30149  -8694491.88648  19874890.8534                   19874886.6494
        48.2504         41.0004
 -22345041.46549 -17387435.34547  20361577.7354                   20361573.3844
        50.5004         39.0004
  -7765177.02049  -6034045.92648  19830005.1424                   19830001.4894
        51.0004         39.7504
 -16143645.43449 -12560581.55147  20998411.7594                   20998406.7824
        45.5004         34.0004
 -10519795.59049  -8180017.68547  22084167.4314                   22084163.4234
        42.5004         31.0004
 03  1 17  3  7 59.9970000  0  8G 2G 6G15G17G18G23G26G29
  -2626969.42649  -2040826.99746  23985742.3764                   23985739.2434
        40.7504         21.0004
  -4270250.73849  -3317740.67148  19832150.9314                   19832147.2434
        47.5004         40.2504
 -17651175.84449 -13751414.36247  20577904.2594                   20577900.8534
        50.2504         38.0004
 -11223738.80549  -8730694.09248  19866049.2204                   19866046.0524
        46.5004         41.2504
 -22443902.84449 -17464470.15147  20342765.6814                   20342760.7164
        50.7504         38.2504
  -7766563.18449  -6035126.03248  19829741.4624                   19829737.7864
        50.5004         40.2504
 -16190997.61749 -12597479.37347  20989401.0564                   20989396.4894
        42.5004         33.5004
 -10535650.76249  -8192372.34947  22081149.8924                   22081147.1494
        41.5004         31.0004
 03  1 17  3  8 29.9970000  0  8G 2G 6G15G17G18G23G26G29
  -2707816.69549  -2103824.82146  23970358.8924                   23970354.8604
        42.5004         21.2504
  -4255057.93449  -3305902.11948  19835041.6344                   19835037.9664
        47.5004         39.7504
 -17736048.62949 -13817548.94347  20561753.0174                   20561749.5214
        50.5004         37.7504
 -11270012.45749  -8766751.47248  19857243.7124                   19857240.3414
        46.7504         41.2504
 -22542358.81249 -17541189.05647  20324029.6734                   20324024.6534
        50.2504         39.0004
  -7767536.18049  -6035884.20548  19829556.6184                   19829552.6224
        50.7504         40.2504
 -16237718.84449 -12633885.46447  20980509.7904                   20980507.3644
        42.0004         34.2504
 -10550965.19149  -8204305.68147  22078235.6184                   22078233.5564
        42.0004         31.5004
 03  1 17  3  8 59.9970000  0  8G 2G 6G15G17G18G23G26G29
  -2788258.90649  -2166507.01346  23955049.2984                   23955046.7554
        40.5004         21.7504
  -4239410.86349  -3293709.59648  19838019.5874                   19838015.7394
        48.5004         40.2504
 -17820747.09849 -13883547.71647  20545635.6034                   20545632.0634
        50.2504         38.2504
 -11316100.47349  -8802664.20948  19848473.9314                   19848470.2354
        47.0004         40.7504
 -22640408.26249 -17617591.18047  20305371.4154                   20305367.0524
        50.7504         38.5004
  -7768097.59049  -6036321.65748  19829449.5404                   19829445.7714
        51.0004         39.7504
 -16283807.85949 -12669798.93147  20971739.6104                   20971737.1224
        43.2504         35.0004
 -10565738.83649  -8215817.62147  22075423.8924                   22075421.9544
        42.5004         30.0004
 03  1 17  3  9 29.9970000  0  8G 2G 6G15G17G18G23G26G29
  -2868294.84849  -2228872.66146  23939820.3374                   23939816.2784
        40.7504         22.0004
  -4223309.83649  -3281163.35348  19841083.6344                   19841079.7354
        48.5004         40.2504
 -17905270.99249 -13949410.43847  20529551.3684                   20529547.8414
        50.0004         38.0004
 -11362002.44949  -8838431.96648  19839739.0014                   19839735.4154
        48.2504         41.2504
 -22738049.80149 -17693675.46647  20286790.7044                   20286786.1424
        50.5004         38.5004
  -7768249.22349  -6036439.80748  19829420.5484                   19829416.7084
        50.5004         39.7504
 -16329263.31249 -12705218.75947  20963090.2204                   20963086.8494
        44.0004         35.0004
 -10579971.96949  -8226908.36747  22072715.7284                   22072712.4194
        41.7504         29.7504
 03  1 17  3  9 59.9970000  0  8G 2G 6G15G17G18G23G26G29
  -2947924.83649  -2290921.86946  23924665.9234                   23924663.3494
        40.2504         22.2504
  -4206756.71949  -3268264.81248  19844233.4934                   19844229.4664
        49.7504         40.2504
 -17989621.52049 -14015138.07947  20513499.0714                   20513496.0404
        50.0004         37.7504
 -11407719.77349  -8874055.84248  19831039.3924                   19831035.5524
        50.7504         41.0004
 -22835283.93449 -17769442.29147  20268287.6424                   20268283.2744
        50.5004         39.0004
  -7767994.23449  -6036241.10948  19829468.7594                   19829465.1574
        50.5004         39.7504
 -16374085.55949 -12740145.18747  20954560.9544                   20954556.1104
        46.5004         34.0004
 -10593666.25449  -8237579.22947  22070109.8454                   22070104.5094
        42.5004         28.2504
 03  1 17  3 10 29.9970000  0  8G 2G 6G15G17G18G23G26G29
  -3027148.91449  -2352654.95246  23909590.3214                   23909587.1034
        40.2504         22.0004
  -4189753.59849  -3255015.63848  19847469.1964                   19847464.9854
        50.0004         40.2504
 -18073799.73049 -14080731.45447  20497481.6884                   20497477.4784
        49.7504         37.7504
 -11453253.85249  -8909536.92948  19822374.2044                   19822370.5324
        51.5004         40.7504
 -22932111.16449 -17844892.05647  20249862.3134                   20249857.5564
        51.0004         38.5004
  -7767335.79349  -6035728.02548  19829594.6034                   19829590.8644
        50.2504         40.0004
 -16418274.92649 -12774578.45847  20946151.3994                   20946146.6614
        45.2504         32.0004
 -10606823.46549  -8247831.55947  22067605.9314                   22067599.0954
        42.5004         28.5004
 03  1 17  3 10 59.9970000  0  8G 2G 6G15G17G18G23G26G29
  -3105959.97749  -2414066.03046  23894592.6654                   23894590.1224
        41.2504         22.0004
  -4172294.88749  -3241411.44948  19850791.1964                   19850787.2714
        50.7504         39.7504
 -18157799.19949 -14146185.54747  20481496.3604                   20481493.1734
        50.2504         38.0004
 -11498597.80549  -8944869.87448  19813746.1034                   19813741.9464
        50.0004         41.0004
 -23028524.43449 -17920019.24447  20231515.2204                   20231510.5674
        51.0004         39.0004
  -7766269.70349  -6034897.29448  19829797.5014                   19829793.2744
        51.0004         40.5004
 -16461824.13749 -12808512.89047  20937864.3294                   20937859.8134
        41.0004         33.2504
 -10619437.68749  -8257660.77547  22065206.2124                   22065199.1464
        44.0004         28.5004
 03  1 17  3 11 29.9970000  0  8G 2G 6G15G17G18G23G26G29
  -3184360.68749  -2475157.46646  23879674.0794                   23879670.9154
        41.2504         22.7504
  -4154385.04749  -3227455.73748  19854199.2984                   19854195.3214
        50.0004         39.7504
 -18241623.62549 -14211503.25547  20465545.8134                   20465541.6964
        50.5004         38.0004
 -11543755.93749  -8980058.03348  19805152.6104                   19805148.8064
        50.0004         40.7504
 -23124526.44549 -17994825.98947  20213246.8214                   20213241.8454
        50.7504         39.2504
  -7764801.53149  -6033753.26348  19830076.7204                   19830072.7554
        50.5004         40.0004
 -16504736.20349 -12841950.84547  20929698.4624                   20929694.9504
        44.2504         33.5004
 -10631513.20349  -8267070.27247  22062908.0794                   22062903.8294
        43.5004         29.7504
 03  1 17  3 11 59.9970000  0  8G 2G 6G15G17G18G23G26G29
  -3262353.72349  -2535931.20346  23864831.5324                   23864829.7284
        39.7504         22.7504
  -4136028.61749  -3213152.00847  19857692.0094                   19857688.5014
        50.5004         39.2504
 -18325276.59849 -14276687.35347  20449626.4854                   20449622.8294
        50.7504         38.0004
 -11588732.01249  -9015104.31348  19796593.9384                   19796590.1964
        50.5004         41.5004
 -23220120.28549 -18069314.65648  20195055.5404                   20195051.1534
        51.7504         39.5004
  -7762936.86349  -6032300.26248  19830431.3994                   19830427.5014
        50.5004         39.7504
 -16547013.84449 -12874894.44947  20921653.3134                   20921650.7434
        45.7504         35.0004
 -10643054.25849  -8276063.28147  22060711.8764                   22060709.2124
        45.5004         32.7504
 03  1 17  3 12 29.9970000  0  8G 2G 6G15G17G18G23G26G29
  -3339935.77349  -2596384.69146  23850068.3374                   23850066.0794
        38.7504         24.2504
  -4117223.86349  -3198498.96748  19861270.6574                   19861266.9464
        49.5004         39.5004
 -18408755.48849 -14341735.80447  20433741.2674                   20433736.9584
        50.5004         38.0004
 -11633523.56249  -9050006.81048  19788070.2744                   19788066.5174
        50.5004         41.2504
 -23315302.64849 -18143482.71648  20176943.3924                   20176938.3964
        50.5004         39.7504
  -7760675.30149  -6030538.00548  19830861.8994                   19830858.0134
        50.7504         39.7504
 -16588653.93449 -12907341.25147  20913729.5404                   20913727.2554
        46.7504         34.7504
 -10654058.90649  -8284638.31747  22058618.3684                   22058615.0094
        46.5004         32.5004
 03  1 17  3 12 59.9970000  0  8G 2G 6G15G17G18G23G26G29
  -3417106.31649  -2656517.51246  23835384.2124                   23835380.3964
        42.0004         22.7504
  -4097971.94549  -3183497.47848  19864934.4704                   19864930.7204
        50.0004         39.7504
 -18492060.75849 -14406648.96847  20417888.7594                   20417884.6534
        50.5004         38.0004
 -11678131.16449  -9084765.96248  19779581.5954                   19779578.1614
        51.0004         41.0004
 -23410073.34449 -18217329.98848  20158909.0874                   20158904.4814
        51.7504         39.7504
  -7758019.29349  -6028468.38248  19831367.3134                   19831363.2554
        51.2504         39.7504
 -16629656.12149 -12939290.98047  20905927.2434                   20905924.5484
        47.7504         34.7504
 -10664528.04749  -8292796.06547  22056625.9704                   22056623.0754
        44.5004         32.5004
 03  1 17  3 13 29.9970000  0  8G 2G 6G15G17G18G23G26G29
  -3493862.62949  -2716327.60446  23820777.2744                   23820774.9154
        39.0004         24.7504
  -4078271.42649  -3168146.42048  19868683.3214                   19868679.3294
        50.0004         39.5004
 -18575190.34849 -14471425.24847  20402069.5484                   20402066.0874
        50.5004         37.7504
 -11722552.80949  -9119380.22648  19771128.2284                   19771124.6774
        49.7504         41.0004
 -23504429.48849 -18290854.23148  20140953.6884                   20140948.7864
        51.0004         40.5004
  -7754968.76249  -6026091.33248  19831947.9154                   19831943.9624
        50.7504         40.0004
 -16670017.75049 -12970741.57547  20898246.2594                   20898243.3064
        45.7504         33.7504
 -10674460.29749  -8300535.47347  22054734.9544                   22054732.3454
        42.7504         31.5004
 03  1 17  3 13 59.9970000  0  8G 2G 6G15G17G18G23G26G29
  -3570201.93749  -2775812.68146  23806250.8994                   23806247.1884
        39.0004         23.0004
  -4058121.22349  -3152444.97947  19872517.8534                   19872513.7004
        50.0004         39.0004
 -18658142.28949 -14536063.08547  20386284.4314                   20386280.5834
        50.5004         37.7504
 -11766786.39549  -9153847.93848  19762711.2984                   19762707.2474
        51.5004         40.7504
 -23598368.10549 -18364053.12648  20123077.3604                   20123072.7044
        51.2504         39.7504
  -7751523.88349  -6023407.00048  19832603.3534                   19832599.3884
        50.7504         40.5004
 -16709735.93749 -13001690.78247  20890688.1184                   20890684.3414
        45.7504         32.5004
 -10683854.42249  -8307855.58747  22052946.6884                   22052944.1814
        40.7504         29.7504
 03  1 17  3 14 29.9970000  0  8G 2G 6G15G17G18G23G26G29
  -3646129.74649  -2834977.15946  23791801.3994                   23791798.7594
        40.2504         22.5004
  -4037528.77049  -3136398.91947  19876436.7354                   19876432.4074
        50.0004         38.7504
 -18740923.09449 -14600567.58347  20370531.8534                   20370528.1224
        51.0004         38.2504
 -11810838.18449  -9188173.98548  19754327.9934                   19754324.5524
        50.7504         41.0004
 -23691895.41449 -18436931.52448  20105279.9314                   20105275.3454
        51.0004         40.0004
  -7747693.18749  -6020422.03348  19833332.3374                   19833328.3024
        50.7504         39.7504
 -16748816.67249 -13032143.27547  20883250.9854                   20883246.2784
        47.0004         32.5004
 -10692717.43449  -8314761.84447  22051260.9854                   22051256.8534
        41.2504         29.2504
 03  1 17  3 14 59.9970000  0  8G 2G 6G15G17G18G23G26G29
  -3721637.13749  -2893814.08446  23777432.9784                   23777430.6884
        38.2504         22.2504
  -4016486.93749  -3120002.68848  19880440.4314                   19880436.9234
        49.7504         39.5004
 -18823524.52049 -14664932.30447  20354813.7434                   20354809.5444
        50.2504         38.5004
 -11854700.66049  -9222352.52948  19745981.4854                   19745978.1224
        50.5004         40.7504
 -23785002.60249 -18509482.55848  20087562.1964                   20087557.2904
        51.0004         40.0004
  -7743470.60249  -6017131.68448  19834135.7434                   19834132.1344
        51.5004         40.0004
 -16787251.35249 -13062092.35347  20875937.2284                   20875932.4424
        46.0004         32.5004
 -10701042.27749  -8321248.72647  22049677.6264                   22049672.1854
        44.7504         30.5004
 03  1 17  3 15 29.9970000  0  8G 2G 6G15G17G18G23G26G29
  -3796726.09449  -2952324.88446  23763144.2434                   23763141.5994
        40.7504         22.7504
  -3994999.12549  -3103258.95047  19884529.5324                   19884525.4354
        50.0004         38.7504
 -18905949.02349 -14729159.16747  20339128.2824                   20339124.3994
        50.2504         38.0004
 -11898376.48849  -9256385.62748  19737670.4154                   19737666.4354
        50.7504         41.5004
 -23877691.81249 -18581707.88748  20069924.0404                   20069919.2984
        51.5004         39.5004
  -7738860.77049  -6013539.60748  19835013.3684                   19835009.1494
        51.0004         40.0004
 -16825041.98049 -13091539.58247  20868746.0324                   20868740.7714
        46.5004         32.2504
 -10708831.94949  -8327318.55347  22048195.3684                   22048189.9894
        45.5004         30.7504
 03  1 17  3 15 59.9960000  0  8G 2G 6G15G17G18G23G26G29
  -3871398.43049  -3010511.08946  23748934.7704                   23748931.8564
        41.5004         25.0004
  -3973072.04749  -3086172.92647  19888702.2934                   19888698.2704
        49.0004         39.0004
 -18988199.09849 -14793250.10847  20323476.7624                   20323472.8524
        50.2504         38.5004
 -11941869.44949  -9290276.24448  19729393.8874                   19729389.9924
        50.7504         40.7504
 -23969964.08649 -18653608.33748  20052365.2384                   20052360.1644
        51.2504         39.5004
  -7733871.25449  -6009651.65448  19835962.4494                   19835958.4454
        50.7504         40.5004
 -16862191.91849 -13120487.57547  20861676.2384                   20861671.0274
        45.0004         33.0004
 -10716092.34449  -8332975.97547  22046812.8324                   22046808.4734
        44.0004         31.0004
 03  1 17  3 16 29.9960000  0  8G 2G 6G15G17G18G23G26G29
  -3945656.31249  -3068374.33146  23734804.0354                   23734800.8284
        40.5004         22.2504
  -3950703.03149  -3068742.52647  19892958.9494                   19892955.0314
        49.5004         39.2504
 -19070277.97749 -14857207.65047  20307857.4734                   20307853.6994
        50.5004         38.0004
 -11985179.86749  -9324024.60448  19721152.1994                   19721148.1804
        50.7504         41.2504
 -24061822.85949 -18725186.57548  20034885.2314                   20034880.2194
        51.5004         40.0004
  -7728501.65249  -6005467.54248  19836984.3244                   19836980.5904
        51.0004         40.2504
 -16898700.87949 -13148936.10647  20854728.7154                   20854723.6254
        45.7504         33.2504
 -10722822.34049  -8338220.14347  22045531.5744                   22045527.6684
        43.0004         28.7504
 03  1 17  3 16 59.9960000  0  8G 2G 6G15G17G18G23G26G29
  -4019491.35549  -3125908.07446  23720753.2464                   23720750.4574
        41.5004         24.5004
  -3927888.85549  -3050965.25347  19897300.2464                   19897296.2584
        49.7504         39.0004
 -19152177.93049 -14921025.78147  20292272.5204                   20292268.7034
        50.2504         38.5004
 -12028301.54749  -9357625.89548  19712946.4574                   19712942.3324
        51.2504         41.0004
 -24153259.72349 -18796436.07048  20017485.1134                   20017480.2504
        51.0004         39.5004
  -7722749.18749  -6000985.08248  19838078.9654                   19838075.2704
        50.0004         40.2504
 -16934562.23849 -13176880.01947  20847905.0744                   20847899.9144
        46.2504         32.5004
 -10729017.67649  -8343047.66247  22044353.7074                   22044348.5084
        44.0004         29.7504
 03  1 17  3 17 29.9960000  0  8G 2G 6G15G17G18G23G26G29
  -4092904.04749  -3183112.72546  23706783.3014                   23706780.2384
        40.2504         24.0004
  -3904631.77049  -3032842.86047  19901725.8794                   19901722.3164
        49.5004         38.5004
 -19233900.15649 -14984705.41647  20276721.3794                   20276717.6374
        49.7504         38.0004
 -12071236.03149  -9391081.32648  19704776.3404                   19704772.2854
        51.2504         41.2504
 -24244275.15649 -18867357.16448  20000165.2314                   20000160.3954
        51.2504         39.5004
  -7716617.21949  -5996206.91548  19839246.0124                   19839242.1064
        50.2504         40.0004
 -16969776.76249 -13204319.91047  20841203.6374                   20841198.6914
        45.7504         32.5004
 -10734680.25849  -8347460.03547  22043276.7544                   22043271.5704
        45.5004         31.2504
 03  1 17  3 17 59.9960000  0  8G 2G 6G15G17G18G23G26G29
  -4165892.49249  -3239986.80746  23692893.6844                   23692890.5514
        41.5004         25.0004
  -3880931.45749  -3014375.09447  19906235.7854                   19906232.5394
        49.5004         38.5004
 -19315443.26249 -15048245.46147  20261204.2464                   20261200.1724
        49.0004         38.2504
 -12113981.80549  -9424389.70948  19696641.9184                   19696638.0394
        51.5004         41.5004
 -24334867.56649 -18937948.62148  19982926.2464                   19982921.2464
        51.0004         39.7504
  -7710106.50849  -5991133.62548  19840484.9574                   19840481.0354
        49.5004         39.5004
 -17004342.91049 -13231254.56747  20834626.1994                   20834621.0664
        46.5004         33.2504
 -10739810.04349  -8351457.24047  22042300.0354                   22042295.9884
        45.5004         31.5004
 03  1 17  3 18 29.9960000  0  8G 2G 6G15G17G18G23G26G29
  -4238458.19549  -3296531.47946  23679085.1994                   23679082.3244
        42.0004         24.0004
  -3856791.25449  -2995564.54847  19910829.1604                   19910825.7314
        50.0004         39.0004
 -19396809.25049 -15111647.51647  20245720.6524                   20245717.0744
        49.7504         38.0004
 -12156541.36349  -9457552.99248  19688543.3164                   19688539.2344
        51.5004         41.0004
 -24425038.45349 -19008211.62648  19965767.5664                   19965762.1134
        51.5004         40.2504
  -7703221.53949  -5985768.70148  19841794.8874                   19841790.6804
        49.2504         40.0004
 -17038262.47349 -13257685.38147  20828171.6064                   20828166.6524
        46.5004         32.7504
 -10744409.77049  -8355041.42947  22041423.9494                   22041420.3484
        43.0004         30.2504
 03  1 17  3 18 59.9960000  0  8G 2G 6G15G17G18G23G26G29
  -4310600.27049  -3352746.00846  23665357.3564                   23665353.4454
        41.5004         24.0004
  -3832211.75049  -2976411.70547  19915506.8324                   19915503.4184
        49.7504         38.7504
 -19477997.90249 -15174911.38847  20230270.9184                   20230266.9814
        48.7504         39.0004
 -12198913.97349  -9490570.60448  19680480.2074                   19680475.9344
        51.7504         41.2504
 -24514786.94549 -19078145.50748  19948688.9024                   19948684.0314
        51.0004         40.5004
  -7695964.02749  -5980113.49248  19843175.8164                   19843171.7314
        48.0004         40.2504
 -17071534.73449 -13283611.80547  20821840.1994                   20821834.9884
        47.2504         33.5004
 -10748479.98049  -8358213.05347  22040649.1524                   22040645.5704
        41.7504         28.7504
 03  1 17  3 19 29.9960000  0  8G 2G 6G15G17G18G23G26G29
  -4382315.52749  -3408627.99946  23651710.3634                   23651706.9184
        42.2504         24.2504
  -3807191.52749  -2956915.42447  19920268.1764                   19920264.1724
        49.7504         38.7504
 -19559006.44149 -15238034.90247  20214855.4884                   20214851.1024
        49.7504         38.5004
 -12241097.36349  -9523440.76948  19672452.9964                   19672448.9304
        51.0004         41.7504
 -24604110.00849 -19147747.86348  19931690.9964                   19931686.2544
        51.0004         40.2504
  -7688333.47749  -5974167.60548  19844627.9654                   19844623.8404
        48.7504         39.7504
 -17104156.80549 -13309031.59047  20815632.0744                   20815627.1024
        47.0004         32.5004
 -10752019.19149  -8360970.86047  22039976.2544                   22039972.1024
        43.5004         30.5004
 03  1 17  3 19 59.9960000  0  8G 2G 6G15G17G18G23G26G29
  -4453611.26249  -3464183.08246  23638142.8874                   23638140.2034
        39.5004         22.5004
  -3781739.67249  -2937082.81347  19925111.4264                   19925107.3714
        49.7504         38.5004
 -19639842.78549 -15301024.23947  20199472.6994                   20199468.8134
        48.0004         37.7504
 -12283099.87549  -9556169.98248  19664459.7934                   19664456.1564
        50.7504         41.0004
 -24693015.10949 -19217024.55248  19914773.2154                   19914768.1174
        51.0004         40.0004
  -7680340.20749  -5967939.07348  19846149.0594                   19846145.0704
        47.2504         40.0004
 -17136136.49249 -13333950.79247  20809546.3244                   20809541.6174
        47.7504         33.7504
 -10755036.28549  -8363321.84347  22039402.6374                   22039399.1334
        45.0004         32.2504
 03  1 17  3 20 29.9960000  0  8G 2G 6G15G17G18G23G26G29
  -4524479.68449  -3519405.20546  23624656.8164                   23624653.6724
        40.5004         25.0004
  -3755850.06649  -2916909.10347  19930037.7624                   19930034.2154
        50.0004         38.2504
 -19720499.70749 -15363873.77547  20184124.2154                   20184120.1994
        47.7504         38.7504
 -12324914.02049  -9588752.42848  19656503.1764                   19656499.1764
        50.7504         41.5004
 -24781494.56649 -19285969.57348  19897935.5984                   19897931.1684
        51.2504         39.7504
  -7671979.19549  -5961423.98648  19847740.0904                   19847736.1174
        47.7504         40.0004
 -17167466.27749 -13358363.60347  20803585.1294                   20803579.4304
        46.2504         33.2504
 -10757525.04749  -8365261.14147  22038929.5124                   22038926.6454
        44.5004         34.2504
 03  1 17  3 20 59.9960000  0  8G 2G 6G15G17G18G23G26G29
  -4594919.77049  -3574293.55746  23611252.5124                   23611249.6254
        39.7504         24.2504
  -3729523.33649  -2896394.76947  19935047.8714                   19935044.0904
        49.7504         38.0004
 -19800976.96149 -15426583.29447  20168809.8164                   20168806.2854
        48.2504         39.0004
 -12366539.69149  -9621187.99748  19648581.8954                   19648577.9964
        51.0004         42.0004
 -24869547.77749 -19354582.43548  19881180.3954                   19881175.2704
        51.5004         39.5004
  -7663252.17649  -5954623.70648  19849400.8094                   19849396.7234
        49.0004         40.0004
 -17198145.72349 -13382269.66747  20797746.8794                   20797741.5004
        46.7504         33.7504
 -10759486.14849  -8366789.26547  22038555.6684                   22038552.2854
        43.2504         30.2504
 03  1 17  3 21 29.9960000  0  8G 2G 6G15G17G18G23G26G29
  -4664931.30149  -3628847.94046  23597929.7544                   23597927.0904
        41.2504         24.5004
  -3702760.92649  -2875540.94847  19940140.4344                   19940136.6484
        51.0004         38.2504
 -19881274.57849 -15489152.84747  20153529.8014                   20153526.2114
        49.0004         39.0004
 -12407976.71949  -9653476.59148  19640696.6064                   19640692.5634
        51.0004         41.7504
 -24957174.30549 -19422862.84048  19864505.0274                   19864500.2074
        51.0004         40.0004
  -7654161.57449  -5947540.11748  19851130.7704                   19851126.6214
        49.5004         40.2504
 -17228174.89149 -13405669.00547  20792032.3164                   20792027.7344
        48.0004         34.0004
 -10760920.86749  -8367907.17946  22038281.1764                   22038275.0004
        42.2504         25.5004
 03  1 17  3 21 59.9960000  0  8G 2G 6G15G17G18G23G26G29
  -4734518.94949  -3683072.05146  23584687.9964                   23584684.5124
        40.7504         24.0004
  -3675569.10949  -2854352.52247  19945314.8094                   19945310.8874
        50.2504         38.0004
 -19961397.75849 -15551586.47047  20138282.9814                   20138279.1994
        49.5004         38.7504
 -12449230.56249  -9685622.43548  19632846.2464                   19632842.5434
        51.0004         41.5004
 -25044379.02749 -19490814.54748  19847910.7934                   19847905.8484
        51.0004         40.2504
  -7644714.89549  -5940179.06948  19852928.2234                   19852924.3164
        49.5004         39.7504
 -17257558.92649 -13428565.62547  20786440.5124                   20786436.4814
        46.5004         34.2504
 -10761835.45349  -8368619.78547  22038107.8484                   22038101.6994
        44.2504         28.2504
 03  1 17  3 22 29.9960000  0  8G 2G 6G15G17G18G23G26G29
  -4803678.59049  -3736962.65846  23571526.9654                   23571524.1684
        42.0004         22.7504
  -3647945.44949  -2832827.60547  19950571.3874                   19950567.6524
        49.7504         38.5004
 -20041342.71549 -15613881.22547  20123069.6604                   20123065.6884
        50.5004         38.5004
 -12490297.68449  -9717622.79048  19625031.6214                   19625028.0474
        51.5004         41.2504
 -25131157.82049 -19558434.37148  19831397.2314                   19831392.1884
        50.0004         40.2504
  -7634910.69149  -5932539.43048  19854794.0124                   19854790.0864
        49.7504         40.5004
 -17286293.99649 -13450956.56847  20780972.1764                   20780968.0314
        45.7504         33.2504
 -10762227.37549  -8368925.19347  22038034.6914                   22038030.9654
        45.0004         33.0004
 03  1 17  3 22 59.9960000  0  8G 2G 6G15G17G18G23G26G29
  -4872407.02749  -3790517.26346  23558449.0044                   23558444.9964
        40.5004         24.0004
  -3619888.38349  -2810964.96247  19955910.6684                   19955906.9654
        50.0004         38.0004
 -20121106.95749 -15676035.15447  20107891.4414                   20107887.2194
        51.0004         38.2504
 -12531175.45749  -9749475.58348  19617252.8324                   19617248.8284
        51.5004         41.5004
 -25217507.98849 -19625720.19248  19814965.4734                   19814960.5744
        50.2504         40.5004
  -7624748.55549  -5924620.87648  19856727.8014                   19856723.8794
        50.2504         40.5004
 -17314377.32049 -13472839.66847  20775628.3324                   20775624.0744
        44.2504         33.2504
 -10762095.00049  -8368822.05647  22038059.8714                   22038057.6374
        46.7504         34.0004
 03  1 17  3 23 29.9960000  0  8G 2G 6G15G17G18G23G26G29
  -4940705.32449  -3843736.65046  23545451.8484                   23545448.5124
        42.5004         22.7504
  -3591400.63749  -2788766.72647  19961331.6994                   19961327.9574
        50.2504         38.2504
 -20200691.62949 -15738049.16947  20092746.7234                   20092743.1994
        50.7504         39.0004
 -12571865.39849  -9781182.02748  19609509.6214                   19609505.4454
        51.7504         41.2504
 -25303430.37149 -19692672.69248  19798614.7544                   19798609.7584
        50.5004         40.2504
  -7614232.03949  -5916426.18448  19858728.8874                   19858725.1374
        50.2504         39.7504
 -17341810.45349 -13494216.13247  20770407.9414                   20770403.4454
        45.0004         32.0004
 -10761440.87949  -8368312.36047  22038182.8564                   22038181.6374
        44.5004         32.2504
 03  1 17  3 23 59.9960000  0  8G 2G 6G15G17G18G23G26G29
  -5008571.24649  -3896619.18646  23532537.6134                   23532534.3564
        42.5004         24.0004
  -3562481.58249  -2766232.39847  19966835.0594                   19966831.3714
        50.7504         38.5004
 -20280095.07049 -15799921.96747  20077636.8164                   20077632.6684
        50.5004         39.0004
 -12612365.59049  -9812740.62348  19601802.8404                   19601798.7814
        51.0004         41.0004
 -25388922.94149 -19759290.25648  19782345.7934                   19782341.2154
        49.5004         40.0004
  -7603361.67249  -5907955.77448  19860797.6764                   19860793.8594
        49.5004         40.5004
 -17368591.63349 -13515084.56347  20765311.7624                   20765307.2664
        43.0004         33.5004
 -10760264.39849  -8367395.67247  22038406.4264                   22038403.7894
        42.5004         27.7504
 03  1 17  3 24 29.9960000  0  8G 2G 6G15G17G18G23G26G29
  -5076004.25849  -3949164.35246  23519705.1914                   23519702.1604
        43.5004         22.2504
  -3533132.63749  -2743363.09147  19972419.7934                   19972416.2734
        50.7504         38.2504
 -20359316.96549 -15861653.30347  20062561.0044                   20062557.7664
        49.7504         39.2504
 -12652676.29749  -9844151.55248  19594131.7154                   19594127.8714
        51.0004         40.5004
 -25473985.56249 -19825572.80548  19766159.0124                   19766153.9924
        50.5004         40.5004
  -7592139.77349  -5899211.43548  19862933.1214                   19862929.2464
        49.0004         40.0004
 -17394720.82449 -13535444.96847  20760339.6524                   20760335.9734
        45.2504         34.0004
 -10758566.97349  -8366072.96747  22038731.3404                   22038721.3874
        45.0004         25.7504
 03  1 17  3 24 59.9960000  0  8G 2G 6G15G17G18G23G26G29
  -5143000.59449  -4001369.25246  23506955.9734                   23506953.1294
        43.7504         25.2504
  -3503351.50849  -2720157.03247  19978087.0984                   19978083.1174
        51.0004         37.5004
 -20438353.79749 -15923240.41047  20047520.9184                   20047517.1214
        49.0004         39.0004
 -12692793.41449  -9875411.64948  19586497.8094                   19586493.8164
        51.5004         41.0004
 -25558614.04749 -19891517.06248  19750054.6524                   19750050.0004
        50.0004         40.7504
  -7580564.93449  -5890192.07648  19865135.4264                   19865131.8164
        47.5004         40.0004
 -17420194.64149 -13555294.67647  20755491.9964                   20755489.0984
        45.0004         33.7504
 -10756345.90649  -8364342.15647  22039154.0744                   22039147.9064
        47.0004         30.5004
 03  1 17  3 25 29.9960000  0  8G 2G 6G15G17G18G23G26G29
  -5209561.60949  -4053234.94646  23494290.1294                   23494286.8564
        43.0004         22.7504
  -3473141.41049  -2696616.70747  19983835.8094                   19983832.0354
        51.0004         38.2504
 -20517207.64849 -15984684.94747  20032515.6294                   20032511.7974
        47.2504         38.7504
 -12732719.32849  -9906522.73848  19578900.1684                   19578896.3204
        51.2504         41.0004
 -25642810.16849 -19957124.40148  19734032.8634                   19734028.0944
        51.2504         40.5004
  -7568641.21149  -5880900.85848  19867404.7624                   19867400.7734
        47.5004         40.0004
 -17445015.09049 -13574635.28347  20750769.0044                   20750766.0904
        46.5004         34.0004
 -10753604.60549  -8362206.06847  22039674.5124                   22039672.5784
        45.5004         31.7504
 03  1 17  3 25 59.9960000  0  8G 2G 6G15G17G18G23G26G29
  -5275690.79749  -4104764.14146  23481706.4654                   23481703.1214
        43.5004         23.5004
  -3442507.43449  -2672746.08547  19989665.2934                   19989661.4964
        50.5004         37.7504
 -20595882.17649 -16045989.75647  20017544.4884                   20017540.4184
        47.5004         39.2504
 -12772457.78549  -9937487.77348  19571338.2234                   19571334.3594
        51.2504         41.5004
 -25726577.47749 -20022397.61348  19718092.2074                   19718087.7974
        50.5004         40.5004
  -7556374.72749  -5871342.55848  19869738.7154                   19869735.0474
        47.7504         40.2504
 -17469186.09849 -13593469.82747  20746169.6844                   20746166.1334
        47.5004         33.7504
 -10750347.96949  -8359668.50947  22040294.0354                   22040292.8134
        44.0004         30.7504
 03  1 17  3 26 29.9960000  0  8G 2G 6G15G17G18G23G26G29
  -5341386.41849  -4155955.51946  23469204.3714                   23469201.1954
        43.0004         23.5004
  -3411449.57449  -2648545.15747  19995575.3794                   19995571.4414
        50.7504         38.0004
 -20674376.00849 -16107153.76447  20002607.5274                   20002603.8244
        47.0004         39.2504
 -12812007.74249  -9968305.92448  19563811.8484                   19563808.2854
        51.2504         41.7504
 -25809914.44549 -20087335.49648  19702234.4814                   19702229.3164
        51.7504         40.5004
  -7543766.46949  -5861517.93548  19872138.0824                   19872134.0594
        47.0004         39.5004
 -17492706.69949 -13611797.54347  20741693.5824                   20741689.6804
        48.2504         33.5004
 -10746576.14549  -8356729.44147  22041012.4344                   22041008.4884
        44.7504         28.5004
 03  1 17  3 26 59.9960000  0  8G 2G 6G15G17G18G23G26G29
  -5406648.80149  -4206809.27746  23456785.9964                   23456782.6524
        43.5004         22.7504
  -3379969.72749  -2624015.41547  20001565.6454                   20001561.8954
        50.5004         38.0004
 -20752689.53549 -16168177.27847  19987704.8874                   19987701.0784
        48.7504         38.5004
 -12851369.34049  -9998977.29048  19556321.5354                   19556318.0084
        50.5004         41.0004
 -25892821.21549 -20151938.15448  19686457.3164                   19686452.0634
        51.0004         40.7504
  -7530819.56649  -5851429.43948  19874601.9884                   19874598.0314
        48.5004         39.5004
 -17515577.68749 -13629619.07147  20737341.3324                   20737336.7854
        47.5004         33.5004
 -10742290.91449  -8353390.23547  22041827.2624                   22041819.9654
        45.5004         26.0004
 03  1 17  3 27 29.9960000  0  8G 2G 6G15G17G18G23G26G29
  -5471474.37949  -4257322.66346  23444449.3404                   23444446.5234
        42.2504         22.7504
  -3348065.98449  -2599155.36547  20007636.7704                   20007633.2774
        50.5004         38.2504
 -20830819.29349 -16229057.57947  19972837.3404                   19972833.7074
        49.2504         39.0004
 -12890539.72349 -10029499.65548  19548867.6604                   19548864.0664
        50.7504         41.7504
 -25975294.41849 -20216202.96948  19670762.9184                   19670758.3524
        51.2504         41.0004
  -7517532.71549  -5841076.03448  19877130.1844                   19877126.2894
        48.7504         39.7504
 -17537795.86749 -13646931.92447  20733113.3484                   20733108.3714
        47.2504         33.5004
 -10737490.29749  -8349649.46847  22042740.4104                   22042735.4614
        43.2504         27.5004
 03  1 17  3 27 59.9960000  0  8G 2G 6G15G17G18G23G26G29
  -5535863.30549  -4307495.84246  23432196.8324                   23432193.2344
        42.7504         23.0004
  -3315740.19949  -2573966.44747  20013788.1134                   20013784.5664
        50.5004         38.0004
 -20908765.86349 -16289795.14947  19958004.6374                   19958000.4884
        50.5004         39.0004
 -12929519.06249 -10059873.16048  19541450.1914                   19541446.4024
        51.2504         41.0004
 -26057334.37149 -20280130.18248  19655151.5594                   19655146.5004
        50.5004         40.7504
  -7503908.73849  -5830459.94548  19879722.7464                   19879718.7424
        49.7504         39.7504
 -17559362.02349 -13663736.70247  20729009.5664                   20729005.1524
        47.0004         34.0004
 -10732176.06649  -8345508.54247  22043752.1214                   22043749.3834
        43.0004         30.7504
 03  1 17  3 28 29.9960000  0  8G 2G 6G15G17G18G23G26G29
  -5599813.55949  -4357327.17146  23420027.0744                   23420024.5824
        42.2504         23.7504
  -3282992.15249  -2548448.49847  20020020.0204                   20020016.4064
        50.7504         37.7504
 -20986527.60549 -16350388.68547  19943206.8714                   19943203.0044
        50.0004         39.2504
 -12968305.72749 -10090096.53348  19534069.6134                   19534065.5904
        51.0004         40.5004
 -26138939.44149 -20343718.53448  19639622.7464                   19639617.4384
        50.2504         41.0004
  -7489948.35249  -5819581.70748  19882379.3164                   19882375.3954
        48.5004         39.5004
 -17580275.02049 -13680032.53847  20725029.7464                   20725026.0314
        45.0004         34.0004
 -10726348.01249  -8340967.20847  22044861.9414                   22044857.4614
        45.2504         31.0004
 03  1 17  3 28 59.9960000  0  8G 2G 6G15G17G18G23G26G29
  -5663327.64149  -4406818.66346  23407940.8794                   23407937.5004
        42.2504         22.2504
  -3249825.77749  -2522604.56747  20026331.6454                   20026327.6724
        50.5004         38.5004
 -21064106.84849 -16410840.03048  19928444.3484                   19928440.2314
        50.2504         39.5004
 -13006902.48849 -10120171.92548  19526724.7384                   19526720.7544
        51.0004         41.5004
 -26220111.98449 -20406969.85448  19624175.9884                   19624170.9614
        49.2504         40.5004
  -7475656.55949  -5808445.24548  19885098.9024                   19885095.2034
        49.0004         39.7504
 -17600537.60549 -13695821.55847  20721174.2314                   20721170.4104
        43.7504         34.0004
 -10720010.14849  -8336028.56747  22046067.1214                   22046062.2814
        45.0004         28.5004
 03  1 17  3 29 29.9960000  0  8G 2G 6G15G17G18G23G26G29
  -5726401.90249  -4455967.37346  23395937.9104                   23395935.2814
        42.2504         22.7504
  -3216239.11749  -2496433.15747  20032722.7774                   20032718.9414
        50.5004         38.5004
 -21141500.20349 -16471146.52448  19913716.9734                   19913712.6724
        50.5004         39.5004
 -13045305.98449 -10150096.72348  19519416.8324                   19519413.1764
        51.0004         40.5004
 -26300848.71149 -20469881.58348  19608812.1684                   19608807.2934
        49.7504         40.7504
  -7461032.23849  -5797049.65348  19887881.5904                   19887877.9064
        49.7504         39.5004
 -17620146.88749 -13711101.50847  20717442.3404                   20717439.0944
        44.5004         33.5004
 -10713160.50449  -8330691.14047  22047369.2384                   22047365.5004
        42.0004         28.2504
 03  1 17  3 29 59.9960000  0  8G 2G 6G15G17G18G23G26G29
  -5789040.09049  -4504776.30946  23384018.7544                   23384015.5984
        42.5004         23.5004
  -3182237.68049  -2469938.54247  20039192.9734                   20039189.1334
        51.0004         38.0004
 -21218711.48049 -16531311.13848  19899023.7774                   19899019.7544
        50.7504         39.5004
 -13083519.86749 -10179873.76048  19512144.8714                   19512140.9344
        50.7504         40.7504
 -26381152.89549 -20532456.23548  19593530.4264                   19593525.8014
        50.0004         40.5004
  -7446081.59449  -5785399.78548  19890726.7544                   19890722.9184
        50.5004         40.0004
 -17639107.30549 -13725875.85347  20713834.2074                   20713830.4264
        44.2504         33.0004
 -10705804.25849  -8324959.06047  22048770.6764                   22048766.6414
        43.5004         29.0004
 03  1 17  3 30 29.9960000  0  8G 2G 6G15G17G18G23G26G29
  -5851237.71949  -4553241.97246  23372182.5274                   23372179.5664
        42.0004         25.0004
  -3147818.74649  -2443118.59947  20045743.1524                   20045738.9264
        50.2504         37.5004
 -21295736.33649 -16591330.49248  19884366.1604                   19884362.6564
        50.0004         39.5004
 -13121540.46549 -10209500.19448  19504909.8014                   19504906.0864
        50.7504         41.0004
 -26461020.52349 -20594690.74248  19578332.6134                   19578327.2584
        49.0004         41.0004
  -7430802.73449  -5773494.16848  19893634.1064                   19893630.5084
        50.2504         40.2504
 -17657415.01649 -13740141.59847  20710350.5984                   20710346.4104
        43.5004         34.0004
 -10697939.06649  -8318830.32847  22050268.2544                   22050263.5394
        46.5004         30.5004
 03  1 17  3 30 59.9960000  0  8G 2G 6G15G17G18G23G26G29
  -5912994.04349  -4601363.75746  23360430.6914                   23360428.0824
        42.5004         22.7504
  -3112983.13749  -2415973.98147  20052371.6844                   20052367.8284
        50.5004         37.5004
 -21372574.01249 -16651204.00048  19869744.6064                   19869740.8954
        49.5004         39.5004
 -13159366.43049 -10238974.96548  19497711.8324                   19497707.7344
        51.0004         41.0004
 -26540451.05949 -20656584.65648  19563217.2774                   19563212.2664
        50.7504         41.0004
  -7415197.24249  -5761334.05348  19896603.9264                   19896600.1484
        50.2504         40.0004
 -17675069.86349 -13753898.61847  20706991.2854                   20706986.4774
        45.0004         33.0004
 -10689565.45749  -8312305.36947  22051860.6914                   22051855.4414
        44.5004         28.2504
 03  1 17  3 31 29.9960000  0  8G 2G 6G15G17G18G23G26G29
  -5974309.77049  -4649142.20446  23348762.3014                   23348759.6524
        41.7504         22.5004
  -3077733.10249  -2388506.42347  20059079.3484                   20059075.7854
        50.5004         37.5004
 -21449225.59449 -16710932.49448  19855158.1604                   19855154.4024
        50.5004         39.5004
 -13196999.27049 -10268299.24648  19490550.5204                   19490546.7034
        51.5004         41.0004
 -26619445.22349 -20718138.53248  19548185.1764                   19548180.1064
        49.7504         40.0004
  -7399268.48049  -5748922.00848  19899635.0594                   19899631.1804
        49.7504         39.5004
 -17692073.31249 -13767148.03347  20703755.6064                   20703750.5124
        46.7504         34.0004
 -10680685.82449  -8305386.17247  22053549.5984                   22053544.5044
        43.0004         26.0004
 03  1 17  3 31 59.9960000  0  8G 2G 6G15G17G18G23G26G29
  -6035183.63749  -4696576.36146  23337178.3954                   23337175.8484
        41.7504         22.5004
  -3042069.00449  -2360716.22847  20065866.1604                   20065862.4304
        50.2504         37.2504
 -21525689.61749 -16770514.82647  19840607.4494                   19840603.8834
        51.0004         39.2504
 -13234437.45749 -10297471.85448  19483426.3014                   19483422.2274
        51.0004         40.7504
 -26698001.43749 -20779351.15048  19533236.0904                   19533231.1724
        50.5004         40.2504
  -7383017.53149  -5736258.92648  19902727.5984                   19902723.9654
        50.2504         39.5004
 -17708424.64849 -13779889.33047  20700643.9654                   20700638.8324
        47.5004         32.5004
 -10671300.63749  -8298073.06747  22055336.5044                   22055333.1884
        43.0004         28.5004
 03  1 17  3 32 29.9960000  0  8G 2G 6G15G17G18G23G26G29
  -6095615.08249  -4743665.74946  23325679.7074                   23325675.7774
        42.7504         23.0004
  -3005991.78149  -2332604.11347  20072731.3954                   20072727.6254
        50.0004         37.7504
 -21601965.34849 -16829950.44448  19826093.1214                   19826088.9264
        49.5004         40.0004
 -13271680.36349 -10326492.28248  19476339.1764                   19476335.3524
        51.5004         40.7504
 -26776119.46949 -20840222.31948  19518371.1914                   19518365.9884
        50.0004         40.7504
  -7366446.02349  -5723346.05848  19905881.1914                   19905877.0164
        50.5004         40.0004
 -17724123.96149 -13792122.52647  20697656.1064                   20697652.4694
        45.0004         34.0004
 -10661410.72349  -8290366.65547  22057218.8714                   22057215.8204
        45.0004         30.5004
 03  1 17  3 32 59.9960000  0  8G 2G 6G15G17G18G23G26G29
  -6155606.90649  -4790412.60046  23314263.7384                   23314259.4614
        42.7504         24.0004
  -2969505.96549  -2304173.62147  20079674.8714                   20079670.8134
        50.7504         37.2504
 -21678055.77349 -16889241.66548  19811613.6524                   19811609.3134
        49.7504         39.5004
 -13308730.94549 -10355362.86648  19469288.5124                   19469284.6334
        51.0004         40.5004
 -26853802.21149 -20900754.32648  19503588.3714                   19503583.6334
        50.5004         40.2504
  -7349559.56249  -5710187.75847  19909094.6374                   19909090.2544
        49.2504         39.2504
 -17739174.79749 -13803850.43947  20694791.8164                   20694788.9654
        42.0004         33.0004
 -10651020.79749  -8282270.61447  22059195.2544                   22059191.1414
        43.2504         26.5004
 03  1 17  3 33 29.9960000  0  8G 2G 6G15G17G18G23G26G29
  -6215157.52349  -4836815.69046  23302931.0274                   23302928.2234
        42.5004         22.5004
  -2932611.64849  -2275424.81147  20086695.3634                   20086691.8244
        50.2504         37.7504
 -21753959.43449 -16948387.36748  19797169.6914                   19797165.3984
        51.2504         40.2504
 -13345588.01649 -10384082.64248  19462274.8014                   19462270.8874
        51.0004         41.0004
 -26931048.28949 -20960946.05348  19488889.1524                   19488884.2424
        50.2504         40.7504
  -7332358.86749  -5696784.63047  19912367.4494                   19912363.4534
        49.2504         39.2504
 -17753576.39149 -13815072.48947  20692051.5824                   20692048.7274
        43.2504         33.5004
 -10640130.80149  -8273784.84646  22061267.6064                   22061260.0664
        42.0004         25.0004
 03  1 17  3 33 59.9960000  0  8G 2G 6G15G17G18G23G26G29
  -6274267.95749  -4882875.74146  23291682.9264                   23291679.3874
        42.0004         22.7504
  -2895311.10549  -2246359.45847  20093793.6064                   20093789.7704
        50.2504         37.7504
 -21829676.67649 -17007387.80048  19782761.0434                   19782757.1334
        50.2504         40.0004
 -13382251.58649 -10412651.65548  19455298.1374                   19455294.0434
        50.7504         40.7504
 -27007858.30949 -21020798.00548  19474272.1064                   19474267.7034
        50.0004         40.7504
  -7314846.95749  -5683138.96947  19915700.0744                   19915695.7314
        49.0004         39.2504
 -17767330.18749 -13825789.74047  20689435.0664                   20689430.6214
        45.2504         34.5004
 -10628743.10249  -8264911.30347  22063434.1604                   22063430.8754
        43.0004         27.0004
 03  1 17  3 34 29.9960000  0  8G 2G 6G15G17G18G23G26G29
  -6332934.95749  -4928590.27146  23280518.4344                   23280515.4774
        43.5004         22.7504
  -2857603.20349  -2216976.67947  20100969.3164                   20100965.3914
        50.5004         37.0004
 -21905204.68749 -17066240.78948  19768388.2624                   19768384.4024
        51.2504         39.7504
 -13418719.48849 -10441068.19748  19448358.4734                   19448354.3794
        51.2504         40.5004
 -27084229.41449 -21080307.93848  19459739.6214                   19459734.5354
        50.0004         40.7504
  -7297023.30949  -5669250.40648  19919091.6134                   19919087.7734
        50.0004         39.5004
 -17780434.07449 -13836000.51347  20686941.2464                   20686935.6174
        48.2504         33.5004
 -10616856.51649  -8255649.06347  22065697.2384                   22065694.9304
        43.5004         31.7504
 03  1 17  3 34 59.9960000  0  8G 2G 6G15G17G18G23G26G29
  -6391159.18449  -4973959.76446  23269439.2624                   23269435.6724
        42.7504         25.5004
  -2819490.16849  -2187278.22447  20108221.6914                   20108218.0634
        50.2504         37.5004
 -21980543.96949 -17124946.70248  19754051.8484                   19754047.9024
        51.5004         39.5004
 -13454991.81249 -10469332.33548  19441456.1844                   19441452.1294
        51.7504         40.7504
 -27160162.17649 -21139476.30448  19445290.0514                   19445284.8794
        50.2504         41.0004
  -7278891.00449  -5655121.33848  19922542.2464                   19922538.2894
        50.2504         39.5004
 -17792889.32049 -13845705.86847  20684570.1134                   20684565.0904
        47.2504         33.0004
 -10604473.45749  -8245999.93747  22068052.7934                   22068050.7504
        41.7504         30.0004
 03  1 17  3 35 29.9960000  0  8G 2G 6G15G17G18G23G26G29
  -6448940.93049  -5018984.49346  23258443.4184                   23258440.2974
        42.5004         24.7504
  -2780973.87149  -2157265.54047  20115551.1064                   20115547.3284
        50.5004         38.0004
 -22055694.77749 -17183505.76548  19739751.4104                   19739747.1024
        50.7504         39.5004
 -13491069.09849 -10497444.49548  19434590.8404                   19434586.7814
        51.0004         40.7504
 -27235657.34449 -21198303.69848  19430923.7854                   19430919.0634
        50.5004         41.0004
  -7260452.63749  -5640753.76647  19926050.8484                   19926047.0634
        50.5004         39.2504
 -17804697.11749 -13854906.76147  20682323.6294                   20682320.0274
        45.5004         33.0004
 -10591595.54749  -8235965.24246  22070503.4494                   22070497.7704
        40.7504         22.7504
 03  1 17  3 35 59.9960000  0  8G 2G 6G15G17G18G23G26G29
  -6506280.48449  -5063664.67446  23247533.0664                   23247528.7154
        43.0004         22.5004
  -2742056.23049  -2126940.11647  20122956.8794                   20122953.1374
        50.0004         37.0004
 -22130657.31649 -17241918.11948  19725486.1294                   19725481.9654
        51.2504         40.0004
 -13526951.65249 -10525404.91548  19427762.6374                   19427758.3794
        50.2504         40.2504
 -27310715.00049 -21256790.15348  19416640.9574                   19416635.8054
        50.2504         41.0004
  -7241710.73849  -5626149.68748  19929617.3874                   19929613.6414
        50.2504         39.5004
 -17815858.44149 -13863603.90547  20680200.0824                   20680196.9574
        47.0004         34.7504
 -10578225.03149  -8225546.55347  22073048.7544                   22073043.3714
        42.7504         29.0004
 03  1 17  3 36 29.9960000  0  8G 2G 6G15G17G18G23G26G29
  -6563182.85949  -5108004.14146  23236703.0514                   23236700.6524
        41.7504         25.2504
  -2702743.84449  -2096307.09647  20130437.9184                   20130434.0984
        49.7504         37.2504
 -22205436.30549 -17300187.45148  19711256.4734                   19711252.3634
        51.5004         40.2504
 -13562644.09049 -10553217.19148  19420970.6214                   19420966.6294
        50.0004         41.0004
 -27385340.28549 -21314939.71948  19402439.9414                   19402435.0634
        50.7504         41.0004
  -7222672.77049  -5611314.90247  19933239.8164                   19933235.9734
        49.2504         39.0004
 -17826379.20349 -13871801.89247  20678198.0124                   20678194.9884
        47.2504         34.7504
 -10564368.52749  -8214749.30947  22075684.5984                   22075681.5904
        41.0004         28.5004
 03  1 17  3 36 59.9960000  0  8G 2G 6G15G17G18G23G26G29
  -6619641.77349  -5151998.05046  23225960.7384                   23225957.0634
        44.0004         25.0004
  -2663031.96149  -2065362.78447  20137994.4884                   20137990.9734
        50.0004         37.5004
 -22280025.33249 -17358308.74348  19697062.3634                   19697058.3364
        51.2504         39.7504
 -13598140.23049 -10580876.50948  19414215.8324                   19414211.6954
        50.5004         40.5004
 -27459527.04749 -21372747.56548  19388322.9184                   19388317.9414
        51.2504         40.2504
  -7203334.68449  -5596246.26548  19936919.7624                   19936916.1134
        49.5004         39.5004
 -17836253.88749 -13879496.40947  20676318.4024                   20676314.3954
        47.2504         33.2504
 -10550021.18449  -8203569.57547  22078414.7704                   22078410.6764
        41.5004         26.0004
 03  1 17  3 37 29.9960000  0  8G 2G 6G15G17G18G23G26G29
  -6675654.59449  -5195644.40446  23215302.2384                   23215297.8674
        43.2504         22.2504
  -2622919.77349  -2034106.53647  20145627.8714                   20145624.3984
        50.0004         37.5004
 -22354421.57049 -17416279.82047  19682904.9494                   19682900.9884
        50.5004         39.2504
 -13633437.49649 -10608380.86948  19407498.9024                   19407495.0124
        50.5004         40.7504
 -27533272.70749 -21430211.70548  19374289.3244                   19374284.1994
        50.5004         40.7504
  -7183696.15649  -5580943.50447  19940657.0204                   19940653.2114
        49.2504         39.0004
 -17845480.63349 -13886686.08047  20674562.2234                   20674556.6994
        44.2504         32.2504
 -10535182.40249  -8192006.85447  22081238.9574                   22081234.2504
        42.0004         29.5004
 03  1 17  3 37 59.9960000  0  8G 2G 6G15G17G18G23G26G29
  -6731220.64849  -5238942.60846  23204727.0124                   23204723.3404
        43.0004         22.5004
  -2582408.11749  -2002539.03947  20153336.8094                   20153333.4734
        49.2504         37.2504
 -22428624.09849 -17474099.95548  19668784.7934                   19668781.0474
        50.0004         39.7504
 -13668534.99249 -10635729.56748  19400820.0354                   19400815.9964
        50.7504         41.0004
 -27606576.63349 -21487331.64048  19360340.2464                   19360335.1174
        51.0004         40.7504
  -7163758.75449  -5565407.86348  19944451.0594                   19944446.9964
        49.2504         39.5004
 -17854059.77049 -13893371.11647  20672930.4024                   20672925.1254
        44.7504         31.7504
 -10519852.89549  -8180061.82447  22084155.1294                   22084152.2424
        40.0004         27.7504
 03  1 17  3 38 29.9960000  0  8G 2G 6G15G17G18G23G26G29
  -6786345.34449  -5281896.88646  23194237.1294                   23194233.7464
        42.0004         24.0004
  -2541503.90249  -1970665.64147  20161120.5354                   20161117.0434
        48.7504         36.7504
 -22502637.89549 -17531773.02648  19654700.3244                   19654696.3484
        51.0004         40.5004
 -13703437.43049 -10662926.25648  19394178.3954                   19394174.4844
        49.7504         41.0004
 -27679444.14849 -21544111.50948  19346473.8714                   19346468.9224
        50.5004         40.7504
  -7143529.96949  -5549645.16848  19948300.7624                   19948296.6374
        49.5004         39.5004
 -17861997.37949 -13899556.24047  20671420.2154                   20671417.3594
        47.0004         34.5004
 -10504039.94949  -8167740.03847  22087165.0044                   22087160.4454
        41.0004         27.7504
 03  1 17  3 38 59.9960000  0  8G 2G 6G15G17G18G23G26G29
  -6841028.00049  -5324506.70546  23183830.6214                   23183827.9384
        41.0004         22.7504
  -2500208.00449  -1938487.02847  20168978.9734                   20168975.4104
        49.5004         37.0004
 -22576462.21549 -17589298.46848  19640652.2544                   19640648.3014
        50.2504         40.0004
 -13738144.07849 -10689970.39748  19387573.7234                   19387569.7274
        50.0004         41.0004
 -27751874.63349 -21600550.83448  19332690.9814                   19332686.0084
        50.5004         41.0004
  -7123011.33249  -5533656.61947  19952205.0354                   19952201.3594
        50.0004         39.2504
 -17869293.56249 -13905241.57947  20670031.0824                   20670029.1024
        46.0004         34.0004
 -10487744.18449  -8155041.98747  22090265.6524                   22090261.6884
        40.2504         27.2504
 03  1 17  3 39 29.9950000  0  8G 2G 6G15G17G18G23G26G29
  -6895264.28949  -5366768.73146  23173511.8984                   23173507.0304
        44.5004         22.7504
  -2458520.87549  -1906003.57747  20176911.9444                   20176908.2764
        48.7504         36.5004
 -22650091.51649 -17646671.93148  19626641.0544                   19626636.9134
        50.5004         40.0004
 -13772651.35549 -10716859.18548  19381007.4054                   19381003.3084
        49.5004         41.0004
 -27823863.21549 -21656645.81948  19318991.9054                   19318987.0504
        50.2504         41.0004
  -7102203.36349  -5517442.61047  19956164.6794                   19956160.9214
        49.5004         39.0004
 -17875946.54749 -13910425.74547  20668764.9374                   20668761.1364
        43.7504         32.5004
 -10470965.34049  -8141967.62747  22093458.5154                   22093455.0654
        39.5004         27.7504
 03  1 17  3 39 59.9950000  0  8G 2G 6G15G17G18G23G26G29
  -6949055.71949  -5408684.10446  23163274.2494                   23163271.0584
        42.0004         22.2504
  -2416439.37149  -1873212.80547  20184919.6244                   20184915.7844
        49.7504         36.5004
 -22723528.40649 -17703895.47348  19612666.4764                   19612662.4644
        50.7504         40.5004
 -13806958.75049 -10743592.21348  19374479.0234                   19374475.0384
        49.5004         41.0004
 -27895412.77349 -21712398.70648  19305376.2804                   19305371.6834
        50.0004         41.0004
  -7081104.82049  -5501002.18847  19960179.5384                   19960175.7654
        50.5004         39.2504
 -17881955.53949 -13915108.05547  20667621.8434                   20667616.1714
        45.5004         32.0004
 -10453702.16849  -8128515.80147  22096744.3434                   22096739.5934
        41.2504         26.7504
 03  1 17  3 40 29.9950000  0  9G 2G 6G 3G15G17G18G23G26G29
  -7002404.87149  -5450254.78046  23153121.8904                   23153118.7454
        40.5004         22.0004
  -2373970.56249  -1840120.24547  20193001.2884                   20192997.3314
        49.5004         36.7504
   -203426.52759   -139223.42956  23197369.3044                   23197366.1324
        41.0004         22.2504
 -22796774.44149 -17760970.28548  19598728.4374                   19598724.2454
        51.0004         40.5004
 -13841069.54749 -10770172.04648  19367987.8664                   19367984.0894
        50.5004         41.0004
 -27966524.98849 -21767810.81648  19291844.2494                   19291839.4914
        50.5004         40.5004
  -7059722.87949  -5484340.92447  19964248.5074                   19964244.4914
        49.5004         39.0004
 -17887325.49649 -13919292.41747  20666599.8274                   20666594.9294
        46.7504         32.7504
 -10435960.92649  -8114691.42147  22100119.9054                   22100113.9524
        43.2504         25.7504
 03  1 17  3 40 59.9950000  0  9G 2G 6G 3G15G17G18G23G26G29
  -7055315.72349  -5491484.05046  23143054.0774                   23143050.5694
        43.0004         22.7504
  -2331120.03149  -1806730.21847  20201155.5544                   20201151.8044
        50.0004         37.2504
   -338036.28149   -244114.06346  23171754.3584                   23171750.1554
        41.7504         21.0004
 -22869833.17649 -17817899.15748  19584825.5464                   19584821.3554
        51.2504         40.0004
 -13874987.34049 -10796601.47648  19361533.4444                   19361529.7884
        50.0004         41.0004
 -28037203.90649 -21822885.26548  19278394.4374                   19278389.5934
        49.5004         41.0004
  -7038063.56249  -5467463.52947  19968369.9524                   19968365.9914
        49.7504         39.0004
 -17892061.30549 -13922982.64147  20665698.4444                   20665695.2494
        45.7504         33.5004
 -10417747.08249  -8100498.78647  22103585.5934                   22103582.8744
        40.5004         29.0004
 03  1 17  3 41 29.9950000  0  9G 2G 6G 3G15G17G18G23G26G29
  -7107788.78149  -5532372.13246  23133069.1084                   23133065.1554
        44.2504         22.7504
  -2287889.98449  -1773044.48547  20209381.6794                   20209377.8984
        48.7504         36.2504
   -472534.62949   -348917.91346  23146160.0934                   23146155.9484
        41.0004         20.2504
 -22942705.05149 -17874682.41448  19570958.5304                   19570954.5854
        51.0004         40.5004
 -13908712.42649 -10822880.75848  19355115.9604                   19355112.0854
        51.2504         41.5004
 -28107450.31649 -21877622.71948  19265027.2024                   19265021.9524
        49.2504         41.2504
  -7016129.82849  -5450372.30548  19972544.0464                   19972540.1404
        48.7504         39.5004
 -17896164.53149 -13926179.97647  20664917.5694                   20664914.7184
        46.5004         33.2504
 -10399063.23049  -8085940.03547  22107140.9134                   22107138.2494
        41.0004         27.5004
 03  1 17  3 41 59.9950000  0  9G 2G 6G 3G15G17G18G23G26G29
  -7159818.69149  -5572914.86046  23123167.8664                   23123163.0974
        43.5004         22.2504
  -2244276.53949  -1739060.00047  20217681.3194                   20217677.6124
        49.0004         36.5004
   -606913.66049   -453628.82346  23120588.5854                   23120584.3554
        41.2504         20.0004
 -23015383.91049 -17931315.27348  19557128.3904                   19557123.9914
        51.5004         40.0004
 -13942238.66049 -10849005.08348  19348735.7184                   19348732.0774
        50.2504         41.0004
 -28177258.57449 -21932018.75448  19251742.9914                   19251737.9874
        48.5004         41.0004
  -6993918.12549  -5433064.47847  19976770.8194                   19976766.6594
        48.0004         39.2504
 -17899630.43749 -13928880.67547  20664258.8274                   20664254.0114
        45.2504         32.0004
 -10379905.32049  -8071011.72247  22110787.5384                   22110780.4524
        44.7504         26.0004
 03  1 17  3 42 29.9950000  0  9G 2G 6G 3G15G17G18G23G26G29
  -7211407.59049  -5613113.98246  23113351.1404                   23113347.1514
        42.2504         22.2504
  -2200283.46549  -1704779.68947  20226052.7494                   20226049.1714
        49.7504         35.5004
   -741173.71549   -558246.98846  23095039.3514                   23095035.9294
        40.5004         20.2504
 -23087871.71949 -17987799.27248  19543334.1484                   19543329.9334
        51.0004         40.0004
 -13975568.39549 -10874976.30948  19342393.2334                   19342389.5584
        49.7504         41.2504
 -28246631.29349 -21986075.40148  19238541.7734                   19238536.6084
        48.0004         41.7504
  -6971432.89149  -5415543.50047  19981049.5934                   19981045.2654
        48.5004         38.2504
 -17902462.48449 -13931087.44847  20663719.5464                   20663714.5934
        45.2504         32.0004
 -10360277.37549  -8055717.14247  22114522.1404                   22114518.3124
        40.2504         28.5004
 03  1 17  3 42 59.9950000  0  9G 2G 6G 3G15G17G18G23G26G29
  -7262558.68049  -5652971.92946  23103616.8664                   23103613.1164
        43.5004         22.7504
  -2155915.49649  -1670207.25947  20234496.0074                   20234492.5194
        50.0004         36.7504
   -875315.40249   -662772.91146  23069513.5854                   23069509.4294
        40.5004         20.5004
 -23160170.94149 -18044136.31548  19529575.9524                   19529572.0154
        51.2504         39.7504
 -14008703.90249 -10900796.18248  19336088.0464                   19336084.2924
        50.0004         40.5004
 -28315571.27349 -22039794.85148  19225422.8354                   19225418.2144
        49.2504         41.5004
  -6948679.21149  -5397813.36347  19985379.2184                   19985375.3154
        48.7504         39.0004
 -17904664.66849 -13932803.41947  20663300.0694                   20663295.3154
        45.7504         32.0004
 -10340184.08249  -8040060.13347  22118344.7734                   22118343.3084
        39.5004         27.0004
 03  1 17  3 43 29.9950000  0  9G 2G 6G 3G15G17G18G23G26G29
  -7313266.75049  -5692484.73246  23093967.5854                   23093964.0584
        42.5004         22.0004
  -2111169.03149  -1635339.89847  20243010.7024                   20243007.3274
        49.2504         36.2504
  -1009331.57049   -767201.09546  23044010.9834                   23044006.6014
        39.2504         20.5004
 -23232276.03549 -18100322.09448  19515854.9054                   19515851.0504
        51.5004         40.5004
 -14041639.74649 -10926460.46848  19329820.4914                   19329816.6324
        50.2504         41.0004
 -28384073.62949 -22093173.30448  19212387.4444                   19212382.4724
        48.7504         41.0004
  -6925654.08249  -5379871.70248  19989760.9834                   19989756.9334
        49.0004         39.5004
 -17906232.71149 -13934025.27647  20663001.7494                   20662998.2414
        44.5004         33.0004
 -10319622.09849  -8024037.81447  22122259.6404                   22122254.5234
        43.0004         27.7504
 03  1 17  3 43 59.9950000  0  9G 2G 6G 3G15G17G18G23G26G29
  -7363530.28949  -5731651.06646  23084402.5854                   23084399.0304
        42.0004         22.5004
  -2066044.00849  -1600177.55347  20251597.9294                   20251593.9254
        49.5004         36.0004
  -1143218.12149   -871528.20946  23018533.0234                   23018529.1834
        39.5004         20.5004
 -23304184.94949 -18156355.00148  19502171.0624                   19502167.0464
        51.7504         40.0004
 -14074374.35949 -10951967.95948  19323591.3904                   19323587.7144
        50.5004         40.7504
 -28452136.61349 -22146209.38048  19199435.2964                   19199430.2414
        48.2504         41.5004
  -6902357.97749  -5361718.89747  19994194.0774                   19994189.5974
        48.7504         38.5004
 -17907165.93449 -13934752.47547  20662824.3514                   20662821.2734
        44.2504         33.2504
 -10298591.45749  -8007650.20346  22126260.2964                   22126253.7654
        42.2504         25.5004
 03  1 17  3 44 29.9950000  0  9G 2G 6G 3G15G17G18G23G26G29
  -7413351.89549  -5770473.05046  23074921.4914                   23074918.2264
        41.0004         23.0004
  -2020544.39549  -1564723.32547  20260255.8824                   20260252.3154
        49.2504         35.7504
  -1276975.48449   -975754.67046  22993080.3124                   22993075.9334
        38.5004         21.7504
 -23375899.54749 -18212236.50048  19488524.2264                   19488520.1674
        52.0004         40.0004
 -14106909.34449 -10977319.88148  19317400.1714                   19317396.2334
        50.7504         41.2504
 -28519762.63749 -22198904.97748  19186566.8194                   19186561.8584
        48.5004         41.5004
  -6878795.41449  -5343358.44247  19998677.8514                   19998673.7694
        48.0004         38.7504
 -17907468.09449 -13934987.90247  20662767.0694                   20662762.7844
        47.0004         32.5004
 -10277095.96549  -7990900.52047  22130350.3744                   22130347.7574
        40.0004         27.5004
 03  1 17  3 44 59.9950000  0  9G 2G 6G 3G15G17G18G23G26G29
  -7462726.28949  -5808946.60446  23065525.2414                   23065522.7614
        40.7504         22.7504
  -1974666.58249  -1528974.38747  20268986.2184                   20268982.3004
        48.2504         36.0004
  -1410595.54749  -1079874.13046  22967652.0774                   22967648.7104
        38.0004         20.0004
 -23447414.00449 -18267962.03548  19474915.5624                   19474911.4014
        52.0004         40.0004
 -14139238.65249 -11002511.54548  19311247.9914                   19311244.5814
        51.0004         41.5004
 -28586946.67649 -22251256.16648  19173781.9444                   19173777.0654
        47.5004         41.0004
  -6854963.01249  -5324787.73147  20003212.8984                   20003208.8234
        47.2504         38.2504
 -17907134.51249 -13934727.93047  20662830.3124                   20662825.1634
        45.5004         32.2504
 -10255132.26249  -7973785.98647  22134530.2654                   22134527.8784
        39.5004         29.0004
 03  1 17  3 45 29.9950000  0  9G 2G 6G 3G15G17G18G23G26G29
  -7511659.79749  -5847076.59646  23056213.9134                   23056210.8514
        41.2504         22.0004
  -1928418.69949  -1492937.07647  20277786.9444                   20277783.2614
        48.0004         36.0004
  -1544082.56249  -1183889.95046  22942251.1014                   22942247.0194
        37.0004         21.0004
 -23518734.36749 -18323536.33448  19461344.1084                   19461339.4484
        51.5004         40.2504
 -14171368.66049 -11027547.90448  19305134.0934                   19305130.1754
        50.5004         41.2504
 -28653695.05149 -22303267.87648  19161079.8904                   19161075.1054
        49.2504         41.2504
  -6830869.20349  -5306013.33447  20007797.9914                   20007793.7264
        49.0004         38.5004
 -17906172.84049 -13933978.56947  20663013.0624                   20663009.1634
        46.5004         33.0004
 -10232708.31649  -7956312.77346  22138797.8744                   22138792.6364
        43.0004         25.0004
 03  1 17  3 45 59.9950000  0  9G 2G 6G 3G15G17G18G23G26G29
  -7560148.22749  -5884859.72346  23046987.1014                   23046983.8434
        42.0004         21.5004
  -1881797.75049  -1456609.07347  20286659.0624                   20286655.2804
        48.5004         35.2504
  -1677429.91849  -1287796.90146  22916876.6084                   22916872.3664
        39.2504         22.0004
 -23589855.58249 -18378955.45848  19447810.0464                   19447805.8704
        51.7504         40.7504
 -14203294.71549 -11052425.34348  19299058.7654                   19299054.8474
        50.7504         41.2504
 -28720003.24249 -22354936.58648  19148461.9374                   19148456.7924
        49.5004         41.5004
  -6806511.64849  -5287033.41947  20012432.9834                   20012429.0734
        49.7504         38.5004
 -17904579.76249 -13932737.22147  20663316.2264                   20663313.4724
        47.0004         32.2504
 -10209821.62149  -7938478.93947  22143153.1084                   22143147.5694
        42.0004         25.7504
 03  1 17  3 46 29.9950000  0  9G 2G 6G 3G15G17G18G23G26G29
  -7608193.79749  -5922297.85146  23037844.0154                   23037841.6324
        42.0004         22.0004
  -1834807.36749  -1419993.21347  20295600.8904                   20295597.0034
        47.7504         35.2504
  -1810637.31249  -1391594.81546  22891527.4134                   22891523.4054
        38.2504         22.0004
 -23660779.11349 -18434220.53148  19434313.3584                   19434309.3984
        50.7504         41.0004
 -14235018.02349 -11077144.80948  19293021.9994                   19293018.0814
        50.7504         41.0004
 -28785873.84849 -22406264.31848  19135926.9914                   19135922.4254
        48.0004         40.5004
  -6781894.50049  -5267851.21247  20017117.6164                   20017113.4914
        47.5004         39.0004
 -17902358.57449 -13931006.43847  20663739.4134                   20663735.5034
        46.0004         32.0004
 -10186475.72749  -7920287.35347  22147594.7104                   22147591.4874
        36.5004         26.0004
 03  1 17  3 46 59.9950000  0  9G 2G 6G 3G15G17G18G23G26G29
  -7655795.18749  -5959389.79546  23028786.7184                   23028782.8944
        42.7504         22.5004
  -1787447.85549  -1383089.70547  20304613.3124                   20304609.3394
        47.5004         35.5004
  -1943701.12949  -1495280.88046  22866205.2494                   22866202.1404
        37.7504         22.7504
 -23731503.15249 -18489330.16948  19420854.7964                   19420851.2104
        50.2504         40.5004
 -14266536.98049 -11101705.02448  19287024.0304                   19287019.9954
        51.5004         41.0004
 -28851305.20349 -22457249.78248  19123476.1404                   19123471.3624
        48.5004         40.7504
  -6757018.42249  -5248467.26547  20021851.0384                   20021846.8664
        49.2504         38.5004
 -17899508.94549 -13928785.90347  20664280.8664                   20664276.2844
        46.5004         31.7504
 -10162671.07449  -7901738.27147  22152125.8194                   22152121.3004
        40.5004         28.0004
 03  1 17  3 47 29.9950000  0  9G 2G 6G 3G15G17G18G23G26G29
  -7702951.45749  -5996134.98646  23019813.3904                   23019809.5974
        42.5004         22.7504
  -1739719.62149  -1345898.88347  20313695.2414                   20313691.5694
        46.5004         35.0004
  -2076617.81649  -1598852.22046  22840912.9834                   22840909.2374
        39.7504         24.2504
 -23802026.15249 -18544283.14748  19407435.0934                   19407430.9954
        50.5004         40.2504
 -14297849.67249 -11126104.53248  19281065.5544                   19281061.6714
        51.5004         41.0004
 -28916296.84849 -22507892.60648  19111108.2804                   19111103.4874
        50.0004         40.7504
  -6731884.46549  -5228882.35647  20026633.9914                   20026629.8004
        50.0004         38.5004
 -17896030.91049 -13926075.74947  20664943.5694                   20664939.2064
        46.5004         31.7504
 -10138408.64149  -7882832.47747  22156742.0544                   22156737.9604
        40.5004         26.5004
 03  1 17  3 47 59.9950000  0  9G 2G 6G 3G15G17G18G23G26G29
  -7749669.60249  -6032538.68346  23010922.4914                   23010919.0344
        42.0004         22.0004
  -1691631.15249  -1308427.36347  20322846.2334                   20322842.7654
        46.0004         35.5004
  -2209391.85949  -1702312.49246  22815646.5384                   22815642.9644
        39.0004         22.5004
 -23872353.99249 -18599084.05548  19394052.1714                   19394047.9484
        50.0004         40.0004
 -14328962.93049 -11150348.61848  19275144.9294                   19275140.7414
        51.2504         41.2504
 -28980855.44549 -22558197.99748  19098823.3274                   19098818.5584
        50.0004         40.5004
  -6706501.29349  -5209103.25347  20031464.2574                   20031460.0584
        49.7504         38.5004
 -17891932.43049 -13922882.12747  20665723.4914                   20665719.8664
        47.7504         33.5004
 -10113696.50449  -7863576.26946  22161444.7264                   22161440.6404
        38.0004         24.7504
 03  1 17  3 48 29.9950000  0  9G 2G 6G 3G15G17G18G23G26G29
  -7795944.46149  -6068596.99546  23002116.1944                   23002113.2064
        42.0004         22.5004
  -1643178.71549  -1270672.22347  20332066.2184                   20332062.8664
        46.7504         34.7504
  -2342015.36749  -1805655.41246  22790409.0624                   22790405.7654
        39.7504         24.0004
 -23942480.91849 -18653728.40248  19380707.4604                   19380703.0504
        50.7504         40.0004
 -14359870.84849 -11174432.70148  19269263.2414                   19269259.3434
        51.5004         41.0004
 -29044975.41849 -22608161.60048  19086621.5854                   19086616.8824
        49.0004         41.0004
  -6680865.55949  -5189127.34247  20036342.4764                   20036338.5774
        47.7504         39.0004
 -17887209.45749 -13919201.88247  20666621.6554                   20666618.1754
        46.7504         33.0004
 -10088531.33349  -7843967.05747  22166234.5234                   22166229.6164
        39.5004         27.0004
 03  1 17  3 48 59.9950000  0  9G 2G 6G 3G15G17G18G23G26G29
  -7841773.55149  -6104308.02146  22993395.2414                   22993392.3704
        41.0004         22.7504
  -1594361.48049  -1232632.82947  20341355.8274                   20341352.2964
        47.0004         34.7504
  -2474483.51649  -1908877.28246  22765201.2334                   22765198.1944
        41.0004         25.0004
 -24012403.81649 -18708213.76048  19367401.5694                   19367397.1984
        50.2504         40.5004
 -14390570.24249 -11198354.30848  19263421.5384                   19263417.4834
        51.5004         41.2504
 -29108654.40649 -22657781.56948  19074504.0544                   19074499.0194
        49.0004         40.7504
  -6654976.92249  -5168954.39347  20041268.9994                   20041265.1164
        48.5004         38.5004
 -17881860.63349 -13915033.95547  20667639.1164                   20667634.5934
        45.5004         30.7504
 -10062912.37949  -7824004.22047  22171108.2104                   22171104.7064
        38.0004         26.0004
 03  1 17  3 49 29.9950000  0  9G 2G 6G 3G15G17G18G23G26G29
  -7887161.02749  -6139674.87446  22984758.6554                   22984754.9254
        41.2504         23.0004
  -1545185.02349  -1194313.52147  20350714.0304                   20350710.2694
        46.5004         34.5004
  -2606797.89149  -2011979.33147  22740022.6164                   22740019.1014
        42.0004         26.5004
 -24082126.14149 -18762542.83148  19354133.4994                   19354129.5464
        50.7504         39.7504
 -14421064.23049 -11222115.85248  19257618.3514                   19257614.4294
        51.2504         41.5004
 -29171896.86749 -22707061.39648  19062469.3044                   19062464.4604
        48.7504         40.7504
  -6628841.16049  -5148588.85547  20046242.5234                   20046238.4014
        48.0004         39.0004
 -17875890.98849 -13910382.29247  20668775.6874                   20668772.1594
        47.5004         33.5004
 -10036845.20349  -7803692.13947  22176069.6324                   22176064.3864
        39.2504         26.0004
 03  1 17  3 49 59.9950000  0  9G 2G 6G 3G15G17G18G23G26G29
  -7932106.39149  -6174697.20046  22976205.4524                   22976202.6754
        41.5004         22.5004
  -1495650.43049  -1155715.16147  20360140.0854                   20360136.4914
        46.7504         34.5004
  -2738955.50849  -2114959.22146  22714874.3434                   22714870.4604
        43.0004         25.5004
 -24151646.76249 -18816714.72948  19340904.0544                   19340899.9954
        50.5004         40.0004
 -14451351.86349 -11245716.61548  19251854.8354                   19251851.0154
        50.7504         41.0004
 -29234702.30949 -22756000.69148  19050517.9374                   19050512.8084
        48.5004         40.7504
  -6602459.70749  -5128031.87347  20051262.7264                   20051258.6904
        47.0004         38.7504
 -17869301.42649 -13905247.55047  20670029.9914                   20670026.1164
        47.7504         33.5004
 -10010331.12949  -7783031.75147  22181114.4994                   22181110.5934
        39.2504         28.0004
 03  1 17  3 50 29.9950000  0  9G 2G 6G 3G15G17G18G23G26G29
  -7976610.58249  -6209375.82346  22967738.0234                   22967733.6164
        42.2504         22.5004
  -1445759.88749  -1116839.41147  20369634.2104                   20369630.5774
        47.0004         35.5004
  -2870954.46949  -2217815.50847  22689754.3434                   22689751.3194
        42.0004         26.0004
 -24220965.58249 -18870729.38548  19327713.2884                   19327709.0734
        50.5004         40.5004
 -14481433.45749 -11269156.81248  19246130.3584                   19246126.5854
        50.7504         41.0004
 -29297071.38749 -22804599.96048  19038649.3824                   19038644.5384
        47.5004         41.0004
  -6575835.10949  -5107285.42847  20056328.9444                   20056324.9484
        46.5004         38.0004
 -17862093.72749 -13899631.16047  20671401.2264                   20671396.4914
        47.0004         31.7504
  -9983372.59449  -7762025.20647  22186243.7884                   22186241.4374
        37.5004         25.7504
 03  1 17  3 50 59.9950000  0  9G 2G 6G 3G15G17G18G23G26G29
  -8020671.35249  -6243708.83946  22959352.7024                   22959349.2414
        41.5004         22.0004
  -1395512.48049  -1077685.60547  20379195.9134                   20379191.7104
        47.2504         35.5004
  -3002789.73449  -2320544.27046  22664667.6554                   22664663.9874
        42.5004         24.2504
 -24290079.39849 -18924584.28948  19314561.4444                   19314557.6444
        51.2504         40.5004
 -14511305.85549 -11292433.99948  19240445.9604                   19240442.1794
        49.7504         41.2504
 -29359001.55549 -22852857.22148  19026864.7734                   19026859.4214
        47.7504         41.0004
  -6548966.71949  -5086349.01847  20061441.8664                   20061438.2414
        48.0004         38.5004
 -17854266.52749 -13893532.03447  20672891.0774                   20672886.7454
        48.0004         33.0004
  -9955968.63749  -7740671.38947  22191460.1944                   22191454.5424
        41.2504         26.5004
 03  1 17  3 51 29.9950000  0  9G 2G 6G 3G15G17G18G23G26G29
  -8064289.09449  -6277696.71946  22951052.7574                   22951049.2964
        42.0004         23.2504
  -1344909.94549  -1038255.05047  20388824.8664                   20388821.4524
        47.0004         35.0004
  -3134459.13349  -2423143.74446  22639612.2334                   22639607.9374
        43.5004         24.5004
 -24358987.73049 -18978279.08248  19301448.6634                   19301444.5584
        51.0004         40.2504
 -14540968.44549 -11315547.70248  19234801.2334                   19234797.6404
        50.5004         41.2504
 -29420493.44549 -22900772.96048  19015162.9764                   19015157.8124
        47.5004         41.0004
  -6521856.72749  -5065224.34747  20066600.7494                   20066597.0544
        48.7504         38.7504
 -17845821.42249 -13886951.41747  20674497.6484                   20674494.4094
        46.2504         32.7504
  -9928121.15249  -7718972.03146  22196758.3664                   22196754.5304
        41.0004         25.5004
 03  1 17  3 51 59.9950000  0  9G 2G 6G 3G15G17G18G23G26G29
  -8107464.91849  -6311340.19346  22942835.4524                   22942832.9294
        40.7504         22.7504
  -1293955.04749   -998549.96547  20398521.8434                   20398517.9804
        47.7504         34.7504
  -3265960.95349  -2525612.63246  22614587.8664                   22614584.1324
        41.7504         22.5004
 -24427690.84849 -19031813.95948  19288374.8044                   19288370.6324
        51.5004         40.5004
 -14570421.85249 -11338498.40448  19229196.4524                   19229192.9214
        48.2504         41.0004
 -29481548.12549 -22948348.03148  19003544.5854                   19003539.7574
        46.5004         41.0004
  -6494507.95749  -5043913.61747  20071805.1794                   20071801.6054
        48.7504         38.7504
 -17836760.69149 -13879891.11647  20676222.6014                   20676217.3904
        48.2504         33.0004
  -9899833.23049  -7696929.57347  22202141.8514                   22202138.2024
        40.5004         28.7504
 03  1 17  3 52 29.9950000  0  9G 2G 6G 3G15G17G18G23G26G29
  -8150201.60949  -6344641.54046  22934703.3354                   22934700.1084
        39.7504         22.0004
  -1242652.04749   -958573.60947  20408284.2184                   20408280.4914
        47.0004         35.5004
  -3397295.30949  -2627951.07546  22589595.6554                   22589591.9374
        41.7504         23.0004
 -24496190.69949 -19085190.47048  19275340.1014                   19275335.7614
        51.5004         40.5004
 -14599667.82849 -11361287.47548  19223631.2104                   19223627.7374
        49.0004         41.2504
 -29542168.18049 -22995584.42248  18992008.9524                   18992003.5584
        47.5004         41.5004
  -6466924.91849  -5022420.34247  20077053.8984                   20077050.2104
        47.7504         37.7504
 -17827088.22749 -13872354.10947  20678062.0854                   20678058.7494
        47.0004         32.2504
  -9871108.98049  -7674547.00947  22207607.9994                   22207603.7304
        39.5004         26.0004
 03  1 17  3 52 59.9950000  0  9G 2G 6G 3G15G17G18G23G26G29
  -8192498.42649  -6377600.10946  22926654.4684                   22926651.3664
        40.0004         22.0004
  -1191001.61349   -918326.52547  20418112.7884                   20418109.6244
        47.2504         34.7504
  -3528458.71149  -2730156.25946  22564636.0854                   22564631.8704
        41.2504         22.5004
 -24564485.48449 -19138407.16948  19262343.9994                   19262339.5694
        52.0004         40.5004
 -14628704.70349 -11383913.60248  19218105.6324                   19218102.0854
        49.2504         41.2504
 -29602352.87949 -23042481.58148  18980556.4834                   18980550.9994
        47.5004         41.0004
  -6439108.56649  -5000745.24847  20082347.3584                   20082343.3474
        48.7504         38.2504
 -17816804.42649 -13864340.80347  20680019.9994                   20680016.7144
        45.0004         32.2504
  -9841949.32449  -7651825.17946  22213155.8044                   22213151.9604
        40.2504         23.0004
 03  1 17  3 53 29.9950000  0  9G 2G 6G 3G15G17G18G23G26G29
  -8234355.23849  -6410215.74646  22918689.7574                   22918686.0344
        41.0004         22.0004
  -1139005.06649   -877809.76047  20428007.5464                   20428004.1284
        47.7504         35.5004
  -3659448.30949  -2832226.01146  22539709.5624                   22539705.5154
        41.2504         22.7504
 -24632574.21949 -19191463.31248  19249386.8584                   19249382.7024
        51.7504         40.7504
 -14657531.91849 -11406376.37248  19212619.9764                   19212616.2224
        48.7504         41.0004
 -29662102.15249 -23089039.44048  18969186.4764                   18969181.4644
        48.0004         41.0004
  -6411060.64149  -4978889.71747  20087684.6554                   20087680.6204
        50.0004         38.2504
 -17805910.44949 -13855851.94247  20682093.1944                   20682087.3354
        49.2504         32.5004
  -9812355.87549  -7628765.38047  22218788.2734                   22218784.5974
        41.0004         28.0004
 03  1 17  3 53 59.9950000  0  9G 2G 6G 3G15G17G18G23G26G29
  -8275768.96949  -6442486.26146  22910809.2494                   22910805.2884
        40.7504         22.7504
  -1086660.63349   -837021.89747  20437968.4604                   20437964.9134
        47.5004         35.0004
  -3790258.25449  -2934155.84346  22514817.5544                   22514813.0504
        42.5004         22.0004
 -24700452.74249 -19244355.65848  19236470.1484                   19236465.6904
        51.5004         40.7504
 -14686145.08249 -11428672.34048  19207175.2654                   19207171.6324
        49.0004         41.0004
 -29721412.69949 -23135255.44248  18957899.8434                   18957894.7144
        48.7504         41.2504
  -6382779.46949  -4956852.44447  20093065.9994                   20093062.6554
        49.0004         38.2504
 -17794403.94549 -13846885.84547  20684282.1944                   20684278.7334
        44.2504         30.5004
  -9782326.96949  -7605366.23847  22224502.0934                   22224498.2734
        37.5004         26.7504
 03  1 17  3 54 29.9950000  0  9G 2G 6G 3G15G17G18G23G26G29
  -8316742.48849  -6474413.62746  22903012.6944                   22903008.3944
        42.2504         22.0004
  -1033972.55949   -795966.28047  20447994.7884                   20447990.8824
        47.5004         34.0004
  -3920888.68449  -3035945.67546  22489958.5304                   22489954.9524
        42.5004         22.0004
 -24768123.09049 -19297085.78948  19223592.9914                   19223588.4954
        51.2504         40.7504
 -14714546.10249 -11450803.00048  19201770.7024                   19201766.7884
        51.0004         41.2504
 -29780287.13349 -23181131.60048  18946696.5304                   18946691.2964
        49.2504         40.2504
  -6354269.39149  -4934636.79047  20098491.6404                   20098487.7374
        49.0004         38.5004
 -17782289.06649 -13837445.67847  20686588.4914                   20686583.1514
        47.7504         31.7504
  -9751866.71149  -7581630.95546  22230298.5774                   22230293.7264
        39.2504         24.5004
 03  1 17  3 54 59.9950000  0  9G 2G 6G 3G15G17G18G23G26G29
  -8357273.77349  -6505996.39346  22895299.5234                   22895295.1124
        41.5004         21.7504
   -980939.98049   -754642.19247  20458086.1404                   20458082.5694
        47.5004         34.2504
  -4051334.58649  -3137591.79346  22465136.4214                   22465130.7764
        43.5004         22.2504
 -24835581.96149 -19349651.12848  19210755.7574                   19210751.6364
        51.5004         41.0004
 -14742731.99249 -11472766.02848  19196407.0234                   19196403.3154
        50.5004         41.0004
 -29838723.32449 -23226666.29248  18935576.5154                   18935571.3274
        49.5004         41.0004
  -6325529.90649  -4912242.38447  20103960.5854                   20103956.6054
        49.5004         38.0004
 -17769564.90249 -13827530.71947  20689009.1244                   20689005.1324
        47.5004         33.5004
  -9720974.78149  -7557559.32947  22236177.5234                   22236173.5194
        40.5004         27.7504
 03  1 17  3 55 29.9950000  0  9G 2G 6G 3G15G17G18G23G26G29
  -8397366.85949  -6537237.79046  22887669.9444                   22887666.7064
        41.5004         22.2504
   -927568.36749   -713053.95247  20468242.7494                   20468238.8704
        46.7504         34.2504
  -4181597.25449  -3239095.20446  22440348.3434                   22440343.5264
        42.7504         22.2504
 -24902832.27349 -19402053.96148  19197958.5154                   19197954.1554
        51.5004         40.7504
 -14770705.93049 -11494563.89648  19191083.8274                   19191079.8154
        51.0004         41.2504
 -29896725.22749 -23271862.56348  18924539.0694                   18924533.8354
        49.7504         40.7504
  -6296566.80949  -4889673.73947  20109471.8584                   20109468.1284
        49.5004         37.2504
 -17756236.61749 -13817145.06847  20691544.4994                   20691541.0154
        46.2504         30.5004
  -9689656.70749  -7533155.64446  22242136.6554                   22242132.8274
        38.2504         25.2504
 03  1 17  3 55 59.9950000  0  9G 2G 6G 3G15G17G18G23G26G29
  -8437019.30949  -6568135.80646  22880123.7184                   22880120.0384
        40.0004         22.0004
   -873856.83649   -671200.81647  20478463.7334                   20478460.1324
        46.0004         33.7504
  -4311671.52749  -3340451.69746  22415595.2104                   22415591.0504
        42.5004         22.5004
 -24969870.69949 -19454291.68648  19185201.5154                   19185197.2764
        51.5004         40.2504
 -14798464.43449 -11516193.88148  19185801.7494                   19185797.8434
        50.7504         40.7504
 -29954290.52349 -23316718.63048  18913584.6324                   18913579.5344
        49.2504         41.0004
  -6267379.14149  -4866930.09547  20115026.1794                   20115022.1904
        49.5004         37.7504
 -17742302.94149 -13806287.64347  20694197.2804                   20694191.4404
        48.2504         31.5004
  -9657911.70749  -7508419.27047  22248177.8194                   22248173.3944
        39.0004         26.5004
 03  1 17  3 56 29.9950000  0  9G 2G 6G 3G15G17G18G23G26G29
  -8476236.05949  -6598694.28746  22872661.1014                   22872658.6084
        40.5004         22.5004
   -819811.48849   -629087.56747  20488748.3824                   20488744.5154
        46.2504         34.5004
  -4441559.07449  -3441662.79646  22390878.9214                   22390875.3514
        43.0004         22.2504
 -25036700.80149 -19506367.08048  19172484.0934                   19172479.6204
        51.0004         40.5004
 -14826011.26649 -11537658.94348  19180559.7184                   19180555.9134
        47.2504         41.5004
 -30011423.77349 -23361238.03548  18902712.7024                   18902707.7104
        46.5004         41.0004
  -6237973.23049  -4844016.39147  20120621.9374                   20120617.9054
        49.5004         37.2504
 -17727770.01249 -13794963.23747  20696961.4604                   20696957.8554
        47.2504         31.7504
  -9625746.14849  -7483355.21246  22254298.8194                   22254294.6244
        41.0004         25.0004
 03  1 17  3 56 59.9950000  0  9G 2G 6G 3G15G17G18G23G26G29
  -8515015.46149  -6628912.04946  22865282.2414                   22865277.5584
        41.5004         21.2504
   -765432.14149   -586714.07347  20499096.2734                   20499092.4954
        46.2504         34.2504
  -4571255.21549  -3542724.62846  22366197.7104                   22366193.9094
        41.7504         22.7504
 -25103319.94549 -19558278.09848  19159807.0624                   19159802.7064
        51.5004         41.0004
 -14853344.02749 -11558957.18848  19175358.3044                   19175354.8744
        49.7504         41.5004
 -30068123.41849 -23405419.56748  18891923.0384                   18891918.0894
        50.2504         41.2504
  -6208348.91449  -4820932.50947  20126259.2264                   20126255.1794
        49.5004         37.2504
 -17712637.18449 -13783171.47947  20699841.6164                   20699838.9254
        45.7504         30.5004
  -9593159.78549  -7457963.21946  22260498.9444                   22260495.1444
        39.2504         24.5004
 03  1 17  3 57 29.9950000  0  9G 2G 6G 3G15G17G18G23G26G29
  -8553356.62949  -6658788.18646  22857985.4134                   22857982.8744
        38.5004         22.5004
   -710719.17249   -544080.61547  20509507.6484                   20509504.1554
        45.0004         33.2504
  -4700756.18749  -3643634.45746  22341555.3434                   22341551.1164
        42.7504         24.5004
 -25169726.09849 -19610023.14848  19147170.2334                   19147166.2184
        51.0004         41.0004
 -14880460.50449 -11580086.90948  19170198.4764                   19170194.5194
        46.5004         41.2504
 -30124388.39549 -23449262.40548  18881216.2734                   18881210.8124
        45.7504         41.2504
  -6178506.77349  -4797678.89047  20131938.0854                   20131934.3864
        49.2504         37.5004
 -17696904.91449 -13770912.53947  20702835.9444                   20702830.6244
        48.7504         31.0004
  -9560153.30949  -7432243.91146  22266780.9134                   22266776.2104
        39.7504         24.2504
 03  1 17  3 57 59.9950000  0  9G 2G 6G 3G15G17G18G23G26G29
  -8591262.83649  -6688325.53946  22850773.3354                   22850769.3084
        40.0004         22.5004
   -655677.34449   -501190.87847  20519982.0074                   20519978.2534
        44.5004         33.0004
  -4830062.18749  -3744392.33746  22316949.6944                   22316944.5974
        43.2504         25.0004
 -25235921.12549 -19661603.67248  19134573.9444                   19134569.4764
        51.0004         41.0004
 -14907362.95349 -11601049.84548  19165078.8904                   19165074.7804
        49.5004         41.5004
 -30180221.50449 -23492768.70848  18870591.3354                   18870586.4444
        49.2504         41.2504
  -6148451.45349  -4774259.14847  20137657.7264                   20137653.5774
        49.7504         37.5004
 -17680577.51249 -13758189.86047  20705941.6014                   20705937.9954
        45.5004         29.2504
  -9526731.34849  -7406200.81747  22273140.6014                   22273136.5154
        41.0004         26.2504
 03  1 17  3 58 29.9950000  0  9G 2G 6G 3G15G17G18G23G26G29
  -8628738.82849  -6717527.59146  22843641.0154                   22843637.9254
        38.5004         22.7504
   -600312.50049   -458049.47047  20530517.6554                   20530513.6634
        44.7504         34.0004
  -4959175.24649  -3844999.88446  22292379.3354                   22292375.3824
        43.5004         24.5004
 -25301908.56249 -19713022.45448  19122016.8124                   19122012.3394
        51.0004         41.5004
 -14934055.07449 -11621848.89848  19159999.6244                   19159995.5384
        49.5004         41.0004
 -30235627.61349 -23535942.29548  18860048.2654                   18860042.9564
        48.0004         41.0004
  -6118189.20749  -4750678.18447  20143416.1014                   20143412.2574
        49.5004         37.5004
 -17663660.91849 -13745008.11647  20709161.5934                   20709158.2804
        47.0004         31.7504
  -9492900.36349  -7379839.00146  22279578.4134                   22279574.3984
        40.5004         24.5004
 03  1 17  3 58 59.9950000  0  9G 2G 6G 3G15G17G18G23G26G29
  -8665776.74649  -6746388.30446  22836593.3434                   22836590.2844
        39.7504         22.2504
   -544618.15649   -414651.29047  20541115.8434                   20541111.9604
        43.5004         32.7504
  -5088084.33249  -3945448.50546  22267849.8044                   22267844.4874
        44.0004         24.5004
 -25367679.49649 -19764272.53148  19109501.1324                   19109496.9094
        50.5004         41.2504
 -14960527.82449 -11642477.01848  19154962.0854                   19154958.1054
        49.0004         41.5004
 -30290598.82049 -23578776.99448  18849587.3194                   18849582.0584
        47.7504         41.5004
  -6087713.64549  -4726930.99447  20149215.5074                   20149211.3904
        49.5004         37.5004
 -17646148.57449 -13731362.13347  20712493.9994                   20712489.6284
        46.2504         30.5004
  -9458653.79349  -7353153.40246  22286095.0854                   22286091.1594
        38.7504         25.0004
 03  1 17  3 59 29.9950000  0  9G 2G 6G 3G15G17G18G23G26G29
  -8702377.99649  -6774908.71046  22829628.2414                   22829624.5034
        40.0004         22.5004
   -488597.27049   -370998.67147  20551776.4764                   20551772.2964
        45.0004         33.2504
  -5216787.87549  -4045736.93846  22243357.2574                   22243353.5894
        42.5004         25.2504
 -25433234.37949 -19815354.23748  19097026.4684                   19097022.2844
        51.2504         41.0004
 -14986781.71949 -11662934.58748  19149966.0934                   19149961.9834
        50.0004         41.5004
 -30345136.66849 -23621274.00448  18839209.1324                   18839203.9134
        48.7504         40.7504
  -6057027.60249  -4703019.78347  20155054.9134                   20155050.9094
        50.0004         37.2504
 -17628043.05549 -13717253.89847  20715939.2574                   20715934.8704
        46.2504         30.5004
  -9423994.92249  -7326146.45046  22292690.7804                   22292685.7534
        41.2504         24.7504
 03  1 17  3 59 59.9950000  0  9G 2G 6G 3G15G17G18G23G26G29
  -8738543.65649  -6803089.83346  22822745.9524                   22822743.2844
        38.5004         22.5004
   -432251.82849   -327093.16447  20562498.2884                   20562494.6514
        45.5004         32.5004
  -5345283.95749  -4145863.74446  22218904.9914                   22218901.6084
        42.0004         24.5004
 -25498572.60549 -19866267.13648  19084592.8194                   19084588.5774
        50.7504         41.2504
 -15012815.90249 -11683220.96548  19145011.7574                   19145007.7414
        50.7504         41.0004
 -30399241.55149 -23663433.65148  18828913.3904                   18828907.8584
        49.5004         41.2504
  -6026133.25849  -4678946.26447  20160933.9524                   20160930.1444
        49.5004         38.0004
 -17609346.50049 -13702685.18447  20719497.2494                   20719494.6014
        46.2504         30.2504
  -9388925.69949  -7298819.79746  22299363.9604                   22299359.7884
        40.2504         25.5004
 03  1 17  4  0 29.9950000  0  9G 2G 6G 3G15G17G18G23G26G29
  -8774278.62949  -6830935.17446  22815946.6244                   22815942.1634
        41.5004         22.7504
   -375588.02349   -282939.55047  20573281.0544                   20573277.4444
        45.5004         33.0004
  -5473573.97349  -4245829.91647  22194492.6164                   22194488.6244
        44.0004         26.0004
 -25563697.91049 -19917014.12948  19072199.4604                   19072195.6634
        51.0004         40.5004
 -15038634.77049 -11703339.55648  19140098.4604                   19140094.6834
        50.5004         40.7504
 -30452918.25449 -23705259.63948  18818699.0854                   18818693.7844
        49.5004         41.5004
  -5995036.84449  -4654715.29947  20166851.5234                   20166847.2334
        50.0004         37.7504
 -17590064.82449 -13687660.48847  20723166.2414                   20723160.1714
        45.0004         28.0004
  -9353452.69149  -7271178.54146  22306114.1874                   22306110.6984
        37.7504         24.0004
 03  1 17  4  0 59.9950000  0  9G 2G 6G 3G15G17G18G23G26G29
  -8809586.63349  -6858447.94246  22809226.4994                   22809223.8664
        40.0004         22.5004
   -318610.99249   -238541.88947  20584123.6944                   20584120.3274
        45.7504         33.2504
  -5601658.78549  -4345636.26347  22170118.9524                   22170114.7064
        43.5004         26.5004
 -25628612.68049 -19967597.05848  19059846.9764                   19059842.8474
        51.0004         40.7504
 -15064240.62149 -11723292.16348  19135225.8124                   19135222.1054
        50.2504         40.5004
 -30506170.43449 -23746754.82948  18808565.2574                   18808560.1714
        50.0004         41.2504
  -5963743.37949  -4630330.77747  20172806.4764                   20172801.9604
        50.0004         37.5004
 -17570203.22349 -13672183.89347  20726946.2184                   20726943.5464
        46.5004         32.5004
  -9317581.08249  -7243226.60746  22312940.9374                   22312936.3474
        41.0004         24.0004
 03  1 17  4  1 29.9950000  0  9G 2G 6G 3G15G17G18G23G26G29
  -8844464.64849  -6885625.55046  22802589.6084                   22802585.7304
        40.5004         22.2504
   -261318.89549   -193898.71947  20595026.1484                   20595022.2694
        46.2504         33.2504
  -5729532.26649  -4445277.91547  22145785.9214                   22145781.3234
        43.7504         27.5004
 -25693312.71149 -20018012.66348  19047534.8434                   19047530.6594
        51.0004         40.5004
 -15089629.20749 -11743075.47548  19130394.7414                   19130390.9564
        50.7504         41.0004
 -30558995.03549 -23787916.85348  18798512.9444                   18798507.9954
        50.0004         41.7504
  -5932251.32449  -4605791.51647  20178798.9684                   20178795.1124
        50.0004         37.0004
 -17549759.75049 -13656253.95647  20730836.2104                   20730831.2534
        44.5004         28.7504
  -9281309.34049  -7214962.89546  22319842.5854                   22319838.6164
        41.0004         23.5004
 03  1 17  4  1 59.9950000  0  9G 2G 6G 3G15G17G18G23G26G29
  -8878909.83249  -6912466.03946  22796035.9134                   22796032.3434
        38.2504         22.7504
   -203710.29749   -149008.91547  20605988.5074                   20605984.8394
        46.0004         33.5004
  -5857188.44149  -4544750.23047  22121492.9214                   22121489.3274
        43.0004         25.7504
 -25757793.66849 -20068257.55248  19035264.3904                   19035260.5464
        51.0004         40.7504
 -15114796.22349 -11762686.12848  19125605.5154                   19125601.8434
        50.5004         41.0004
 -30611389.10949 -23828743.38648  18788542.8434                   18788537.8984
        50.2504         42.0004
  -5900559.00849  -4581096.19647  20184830.1714                   20184826.1484
        50.0004         37.5004
 -17528732.99649 -13639869.42147  20734836.8354                   20734832.9254
        44.5004         29.7504
  -9244636.09049  -7186386.35146  22326821.1944                   22326817.3474
        39.5004         24.2504
 03  1 17  4  2 29.9950000  0  9G 2G 6G 3G15G17G18G23G26G29
  -8912925.97749  -6938972.03846  22789561.6484                   22789557.8154
        38.5004         22.2504
   -145790.09449   -103876.29847  20617009.8904                   20617006.6054
        45.5004         33.2504
  -5984627.75049  -4644053.56347  22097241.9524                   22097238.4014
        43.0004         26.0004
 -25822057.91849 -20118333.58348  19023035.4914                   19023031.3664
        51.2504         41.2504
 -15139744.65649 -11782126.46648  19120857.8194                   19120854.0894
        50.0004         41.0004
 -30663356.11749 -23869237.15948  18778653.9914                   18778648.9254
        49.5004         41.7504
  -5868671.33249  -4556248.66847  20190897.7884                   20190893.9764
        50.0004         37.5004
 -17507127.61749 -13623034.10047  20738949.9524                   20738944.2614
        47.5004         31.0004
  -9207566.39149  -7157500.89546  22333876.0854                   22333871.6164
        41.2504         25.5004
 03  1 17  4  2 59.9940000  0  9G 2G 6G 3G15G17G18G23G26G29
  -8946511.89849  -6965142.91646  22783171.4164                   22783168.5534
        40.5004         22.7504
    -87561.44149    -58503.33547  20628091.0964                   20628087.3504
        46.5004         32.2504
  -6111843.13349  -4743182.39347  22073033.7214                   22073029.8974
        44.0004         26.7504
 -25886101.69949 -20168237.82548  19010848.5254                   19010844.1314
        51.5004         41.0004
 -15164471.98449 -11801394.51748  19116152.5804                   19116148.6434
        50.7504         41.2504
 -30714894.08649 -23909396.58948  18768846.5654                   18768841.5184
        50.2504         41.0004
  -5836590.55949  -4531250.64647  20197002.5804                   20196998.5254
        50.2504         37.7504
 -17484945.75449 -13605749.50547  20743169.4864                   20743166.7684
        44.7504         29.5004
  -9170103.13749  -7128308.74546  22341004.6114                   22341000.2604
        40.5004         25.2504
 03  1 17  4  3 29.9940000  0  9G 2G 6G 3G15G17G18G23G26G29
  -8979670.16449  -6990980.52246  22776860.5884                   22776856.9434
        37.5004         21.7504
    -29021.66849    -12887.94147  20639230.5024                   20639227.0724
        46.5004         32.7504
  -6238839.66449  -4842140.74547  22048867.1274                   22048863.3814
        43.7504         26.0004
 -25949928.08649 -20217972.66448  18998702.7754                   18998698.4634
        51.7504         41.0004
 -15188978.78549 -11820490.71848  19111488.9404                   19111485.4434
        50.5004         40.7504
 -30766006.21949 -23949224.21948  18759120.2134                   18759115.2954
        49.7504         41.5004
  -5804315.89549  -4506101.55247  20203144.1194                   20203140.1504
        50.5004         37.5004
 -17462187.02749 -13588015.46247  20747501.1504                   20747496.6744
        45.7504         29.7504
  -9132245.19549  -7098809.06146  22348208.9794                   22348204.8304
        42.2504         22.5004
 03  1 17  4  3 59.9940000  0  9G 2G 6G 3G15G17G18G23G26G29
  -9012405.13349  -7016488.23546  22770632.5184                   22770628.4864
        42.0004         24.5004
     29820.28149     32962.92047  20650427.9324                   20650424.1504
        45.7504         32.5004
  -6365615.50049  -4940927.06047  22024741.5964                   22024738.3574
        43.2504         26.5004
 -26013539.27049 -20267539.79948  18986597.6354                   18986593.5614
        51.2504         40.7504
 -15213267.84849 -11839417.25348  19106866.8464                   19106863.0884
        51.2504         41.0004
 -30816696.34449 -23988723.00348  18749474.1114                   18749469.0764
        50.0004         41.5004
  -5771855.12949  -4480807.44647  20209321.2684                   20209317.2754
        50.0004         37.0004
 -17438859.21949 -13569837.87847  20751939.9714                   20751934.6044
        46.2504         30.0004
  -9094000.64549  -7069008.11346  22355486.9404                   22355482.2174
        40.5004         24.0004
 03  1 17  4  4 29.9940000  0  9G 2G 6G 3G15G17G18G23G26G29
  -9044705.02048  -7041657.08346  22764484.2054                   22764482.7134
        35.7504         22.0004
     88974.99249     79057.47947  20661685.1274                   20661680.9824
        46.5004         32.2504
  -6492155.39549  -5039529.53747  22000662.8774                   22000658.2754
        44.2504         27.5004
 -26076921.81649 -20316928.79748  18974536.6194                   18974532.4284
        52.0004         40.7504
 -15237326.44149 -11858164.21848  19102288.7604                   19102284.6744
        51.0004         41.0004
 -30866952.55149 -24027883.67248  18739910.9404                   18739905.5574
        49.7504         41.0004
  -5739197.52349  -4455359.96447  20215536.0494                   20215531.6114
        49.0004         37.2504
 -17414951.58649 -13551208.61347  20756489.7134                   20756486.3114
        46.0004         31.5004
  -9055359.15649  -7038897.84846  22362839.6974                   22362835.3504
        40.5004         22.0004
